<?xml version="1.0" encoding="UTF-8" standalone="no" ?>
<gpx xmlns="http://www.topografix.com/GPX/1/1" xmlns:xsi="http://www.w3.org/2001/XMLSchema-instance" xsi:schemaLocation="http://www.topografix.com/GPX/1/1 http://www.topografix.com/GPX/1/1/gpx.xsd" version="1.1" creator="VisuGPX - https://www.visugpx.com">
  <metadata>
    <name>Balade à 5 avec un café en prime </name>
    <desc><![CDATA[Nous partons à 4, café chez la cinquième, et nous repartons tranquilles sur les chemins.
Ténébra allait aussi vite que les journées Equi\'Tey !! Dès que nous passons le chiffre 3, elle est TRES en forme !]]></desc>
  </metadata>
  <trk>
    <name><![CDATA[Untitled]]></name>
    <trkseg>
      <trkpt lat="48.70955" lon="1.74926">
        <ele>176.60000610352</ele>
        <time>2011-10-08T07:44:08.000Z</time>
      </trkpt>
      <trkpt lat="48.70955" lon="1.74926">
        <ele>176.60000610352</ele>
        <time>2011-10-08T07:44:09.000Z</time>
      </trkpt>
      <trkpt lat="48.70955" lon="1.74926">
        <ele>176.60000610352</ele>
        <time>2011-10-08T07:44:10.000Z</time>
      </trkpt>
      <trkpt lat="48.70961" lon="1.74915">
        <ele>177</ele>
        <time>2011-10-08T07:44:27.000Z</time>
      </trkpt>
      <trkpt lat="48.70966" lon="1.74908">
        <ele>177.39999389648</ele>
        <time>2011-10-08T07:44:31.000Z</time>
      </trkpt>
      <trkpt lat="48.70972" lon="1.749">
        <ele>177.80000305176</ele>
        <time>2011-10-08T07:44:36.000Z</time>
      </trkpt>
      <trkpt lat="48.70975" lon="1.74898">
        <ele>178</ele>
        <time>2011-10-08T07:44:38.000Z</time>
      </trkpt>
      <trkpt lat="48.70979" lon="1.74893">
        <ele>178.19999694824</ele>
        <time>2011-10-08T07:44:42.000Z</time>
      </trkpt>
      <trkpt lat="48.70982" lon="1.74888">
        <ele>178.19999694824</ele>
        <time>2011-10-08T07:44:45.000Z</time>
      </trkpt>
      <trkpt lat="48.70988" lon="1.74882">
        <ele>178.60000610352</ele>
        <time>2011-10-08T07:44:50.000Z</time>
      </trkpt>
      <trkpt lat="48.70992" lon="1.74878">
        <ele>178.60000610352</ele>
        <time>2011-10-08T07:44:53.000Z</time>
      </trkpt>
      <trkpt lat="48.70993" lon="1.74876">
        <ele>178.60000610352</ele>
        <time>2011-10-08T07:44:55.000Z</time>
      </trkpt>
      <trkpt lat="48.70996" lon="1.74868">
        <ele>178.80000305176</ele>
        <time>2011-10-08T07:45:00.000Z</time>
      </trkpt>
      <trkpt lat="48.71005" lon="1.7486">
        <ele>178.60000610352</ele>
        <time>2011-10-08T07:45:05.000Z</time>
      </trkpt>
      <trkpt lat="48.71007" lon="1.74853">
        <ele>178.60000610352</ele>
        <time>2011-10-08T07:45:09.000Z</time>
      </trkpt>
      <trkpt lat="48.71013" lon="1.74845">
        <ele>178.19999694824</ele>
        <time>2011-10-08T07:45:14.000Z</time>
      </trkpt>
      <trkpt lat="48.71014" lon="1.74839">
        <ele>178</ele>
        <time>2011-10-08T07:45:17.000Z</time>
      </trkpt>
      <trkpt lat="48.71007" lon="1.74827">
        <ele>178.39999389648</ele>
        <time>2011-10-08T07:45:25.000Z</time>
      </trkpt>
      <trkpt lat="48.70999" lon="1.74818">
        <ele>178.80000305176</ele>
        <time>2011-10-08T07:45:31.000Z</time>
      </trkpt>
      <trkpt lat="48.70995" lon="1.74809">
        <ele>178.60000610352</ele>
        <time>2011-10-08T07:45:37.000Z</time>
      </trkpt>
      <trkpt lat="48.7099" lon="1.74801">
        <ele>178.39999389648</ele>
        <time>2011-10-08T07:45:43.000Z</time>
      </trkpt>
      <trkpt lat="48.70987" lon="1.74794">
        <ele>178.39999389648</ele>
        <time>2011-10-08T07:45:47.000Z</time>
      </trkpt>
      <trkpt lat="48.70986" lon="1.74793">
        <ele>178.39999389648</ele>
        <time>2011-10-08T07:45:48.000Z</time>
      </trkpt>
      <trkpt lat="48.70978" lon="1.74783">
        <ele>178.19999694824</ele>
        <time>2011-10-08T07:45:55.000Z</time>
      </trkpt>
      <trkpt lat="48.70968" lon="1.74774">
        <ele>178</ele>
        <time>2011-10-08T07:46:01.000Z</time>
      </trkpt>
      <trkpt lat="48.70965" lon="1.74771">
        <ele>178</ele>
        <time>2011-10-08T07:46:03.000Z</time>
      </trkpt>
      <trkpt lat="48.70963" lon="1.74768">
        <ele>178</ele>
        <time>2011-10-08T07:46:05.000Z</time>
      </trkpt>
      <trkpt lat="48.70956" lon="1.7476">
        <ele>178</ele>
        <time>2011-10-08T07:46:10.000Z</time>
      </trkpt>
      <trkpt lat="48.7095" lon="1.74753">
        <ele>178</ele>
        <time>2011-10-08T07:46:15.000Z</time>
      </trkpt>
      <trkpt lat="48.70947" lon="1.7475">
        <ele>178</ele>
        <time>2011-10-08T07:46:17.000Z</time>
      </trkpt>
      <trkpt lat="48.70943" lon="1.74745">
        <ele>177.80000305176</ele>
        <time>2011-10-08T07:46:20.000Z</time>
      </trkpt>
      <trkpt lat="48.70936" lon="1.74737">
        <ele>177.60000610352</ele>
        <time>2011-10-08T07:46:26.000Z</time>
      </trkpt>
      <trkpt lat="48.70928" lon="1.74728">
        <ele>177.39999389648</ele>
        <time>2011-10-08T07:46:32.000Z</time>
      </trkpt>
      <trkpt lat="48.70927" lon="1.74727">
        <ele>177.39999389648</ele>
        <time>2011-10-08T07:46:33.000Z</time>
      </trkpt>
      <trkpt lat="48.70915" lon="1.74713">
        <ele>177</ele>
        <time>2011-10-08T07:46:42.000Z</time>
      </trkpt>
      <trkpt lat="48.7091" lon="1.74706">
        <ele>177</ele>
        <time>2011-10-08T07:46:47.000Z</time>
      </trkpt>
      <trkpt lat="48.70902" lon="1.74695">
        <ele>176.60000610352</ele>
        <time>2011-10-08T07:46:54.000Z</time>
      </trkpt>
      <trkpt lat="48.70895" lon="1.74686">
        <ele>176.39999389648</ele>
        <time>2011-10-08T07:47:00.000Z</time>
      </trkpt>
      <trkpt lat="48.70891" lon="1.74678">
        <ele>176.19999694824</ele>
        <time>2011-10-08T07:47:05.000Z</time>
      </trkpt>
      <trkpt lat="48.70884" lon="1.7467">
        <ele>176</ele>
        <time>2011-10-08T07:47:10.000Z</time>
      </trkpt>
      <trkpt lat="48.70879" lon="1.74664">
        <ele>175.80000305176</ele>
        <time>2011-10-08T07:47:14.000Z</time>
      </trkpt>
      <trkpt lat="48.70875" lon="1.74659">
        <ele>175.80000305176</ele>
        <time>2011-10-08T07:47:17.000Z</time>
      </trkpt>
      <trkpt lat="48.70869" lon="1.74651">
        <ele>175.80000305176</ele>
        <time>2011-10-08T07:47:22.000Z</time>
      </trkpt>
      <trkpt lat="48.70866" lon="1.74646">
        <ele>175.80000305176</ele>
        <time>2011-10-08T07:47:25.000Z</time>
      </trkpt>
      <trkpt lat="48.70864" lon="1.74644">
        <ele>175.80000305176</ele>
        <time>2011-10-08T07:47:27.000Z</time>
      </trkpt>
      <trkpt lat="48.70858" lon="1.74638">
        <ele>175.80000305176</ele>
        <time>2011-10-08T07:47:31.000Z</time>
      </trkpt>
      <trkpt lat="48.70848" lon="1.74625">
        <ele>175.80000305176</ele>
        <time>2011-10-08T07:47:40.000Z</time>
      </trkpt>
      <trkpt lat="48.70843" lon="1.74619">
        <ele>175.80000305176</ele>
        <time>2011-10-08T07:47:44.000Z</time>
      </trkpt>
      <trkpt lat="48.70839" lon="1.74611">
        <ele>175.80000305176</ele>
        <time>2011-10-08T07:47:49.000Z</time>
      </trkpt>
      <trkpt lat="48.70834" lon="1.74606">
        <ele>175.80000305176</ele>
        <time>2011-10-08T07:47:53.000Z</time>
      </trkpt>
      <trkpt lat="48.7083" lon="1.74597">
        <ele>176</ele>
        <time>2011-10-08T07:47:58.000Z</time>
      </trkpt>
      <trkpt lat="48.70826" lon="1.74591">
        <ele>176</ele>
        <time>2011-10-08T07:48:02.000Z</time>
      </trkpt>
      <trkpt lat="48.70821" lon="1.74583">
        <ele>176</ele>
        <time>2011-10-08T07:48:07.000Z</time>
      </trkpt>
      <trkpt lat="48.70815" lon="1.74572">
        <ele>176.19999694824</ele>
        <time>2011-10-08T07:48:14.000Z</time>
      </trkpt>
      <trkpt lat="48.70809" lon="1.74566">
        <ele>176.19999694824</ele>
        <time>2011-10-08T07:48:19.000Z</time>
      </trkpt>
      <trkpt lat="48.70804" lon="1.74559">
        <ele>176.19999694824</ele>
        <time>2011-10-08T07:48:24.000Z</time>
      </trkpt>
      <trkpt lat="48.708" lon="1.74553">
        <ele>176.19999694824</ele>
        <time>2011-10-08T07:48:28.000Z</time>
      </trkpt>
      <trkpt lat="48.70795" lon="1.74547">
        <ele>176.39999389648</ele>
        <time>2011-10-08T07:48:32.000Z</time>
      </trkpt>
      <trkpt lat="48.7079" lon="1.74539">
        <ele>176.39999389648</ele>
        <time>2011-10-08T07:48:37.000Z</time>
      </trkpt>
      <trkpt lat="48.70783" lon="1.74532">
        <ele>176.60000610352</ele>
        <time>2011-10-08T07:48:42.000Z</time>
      </trkpt>
      <trkpt lat="48.70782" lon="1.74531">
        <ele>176.60000610352</ele>
        <time>2011-10-08T07:48:43.000Z</time>
      </trkpt>
      <trkpt lat="48.70774" lon="1.74521">
        <ele>176.60000610352</ele>
        <time>2011-10-08T07:48:51.000Z</time>
      </trkpt>
      <trkpt lat="48.70766" lon="1.7451">
        <ele>176.80000305176</ele>
        <time>2011-10-08T07:48:58.000Z</time>
      </trkpt>
      <trkpt lat="48.70763" lon="1.74507">
        <ele>176.80000305176</ele>
        <time>2011-10-08T07:49:00.000Z</time>
      </trkpt>
      <trkpt lat="48.70756" lon="1.74498">
        <ele>176.80000305176</ele>
        <time>2011-10-08T07:49:07.000Z</time>
      </trkpt>
      <trkpt lat="48.70752" lon="1.74494">
        <ele>177</ele>
        <time>2011-10-08T07:49:10.000Z</time>
      </trkpt>
      <trkpt lat="48.70744" lon="1.74486">
        <ele>177.19999694824</ele>
        <time>2011-10-08T07:49:17.000Z</time>
      </trkpt>
      <trkpt lat="48.7074" lon="1.7448">
        <ele>177.39999389648</ele>
        <time>2011-10-08T07:49:22.000Z</time>
      </trkpt>
      <trkpt lat="48.7074" lon="1.7448">
        <ele>177.39999389648</ele>
        <time>2011-10-08T07:49:23.000Z</time>
      </trkpt>
      <trkpt lat="48.70731" lon="1.7447">
        <ele>178</ele>
        <time>2011-10-08T07:51:10.000Z</time>
      </trkpt>
      <trkpt lat="48.70733" lon="1.74461">
        <ele>178</ele>
        <time>2011-10-08T07:51:14.000Z</time>
      </trkpt>
      <trkpt lat="48.70736" lon="1.74455">
        <ele>178</ele>
        <time>2011-10-08T07:51:18.000Z</time>
      </trkpt>
      <trkpt lat="48.70737" lon="1.74454">
        <ele>178</ele>
        <time>2011-10-08T07:51:19.000Z</time>
      </trkpt>
      <trkpt lat="48.70745" lon="1.74447">
        <ele>177.80000305176</ele>
        <time>2011-10-08T07:51:27.000Z</time>
      </trkpt>
      <trkpt lat="48.7075" lon="1.74444">
        <ele>177.60000610352</ele>
        <time>2011-10-08T07:51:31.000Z</time>
      </trkpt>
      <trkpt lat="48.70757" lon="1.74439">
        <ele>177.39999389648</ele>
        <time>2011-10-08T07:51:36.000Z</time>
      </trkpt>
      <trkpt lat="48.70762" lon="1.74435">
        <ele>177.39999389648</ele>
        <time>2011-10-08T07:51:40.000Z</time>
      </trkpt>
      <trkpt lat="48.70765" lon="1.74433">
        <ele>177.39999389648</ele>
        <time>2011-10-08T07:51:42.000Z</time>
      </trkpt>
      <trkpt lat="48.70772" lon="1.74428">
        <ele>177.19999694824</ele>
        <time>2011-10-08T07:51:49.000Z</time>
      </trkpt>
      <trkpt lat="48.70774" lon="1.74428">
        <ele>177.19999694824</ele>
        <time>2011-10-08T07:51:50.000Z</time>
      </trkpt>
      <trkpt lat="48.70776" lon="1.74426">
        <ele>177.19999694824</ele>
        <time>2011-10-08T07:51:52.000Z</time>
      </trkpt>
      <trkpt lat="48.70778" lon="1.74425">
        <ele>177.19999694824</ele>
        <time>2011-10-08T07:51:55.000Z</time>
      </trkpt>
      <trkpt lat="48.70781" lon="1.74424">
        <ele>177.19999694824</ele>
        <time>2011-10-08T07:51:56.000Z</time>
      </trkpt>
      <trkpt lat="48.70787" lon="1.74419">
        <ele>177</ele>
        <time>2011-10-08T07:52:02.000Z</time>
      </trkpt>
      <trkpt lat="48.70788" lon="1.74418">
        <ele>177</ele>
        <time>2011-10-08T07:52:03.000Z</time>
      </trkpt>
      <trkpt lat="48.70798" lon="1.74412">
        <ele>176.80000305176</ele>
        <time>2011-10-08T07:52:11.000Z</time>
      </trkpt>
      <trkpt lat="48.708" lon="1.74411">
        <ele>176.80000305176</ele>
        <time>2011-10-08T07:52:13.000Z</time>
      </trkpt>
      <trkpt lat="48.70804" lon="1.74406">
        <ele>176.80000305176</ele>
        <time>2011-10-08T07:52:17.000Z</time>
      </trkpt>
      <trkpt lat="48.70816" lon="1.74398">
        <ele>176.60000610352</ele>
        <time>2011-10-08T07:52:26.000Z</time>
      </trkpt>
      <trkpt lat="48.70818" lon="1.74397">
        <ele>176.60000610352</ele>
        <time>2011-10-08T07:52:28.000Z</time>
      </trkpt>
      <trkpt lat="48.70822" lon="1.74392">
        <ele>176.39999389648</ele>
        <time>2011-10-08T07:52:33.000Z</time>
      </trkpt>
      <trkpt lat="48.7083" lon="1.74384">
        <ele>176.39999389648</ele>
        <time>2011-10-08T07:52:40.000Z</time>
      </trkpt>
      <trkpt lat="48.70835" lon="1.74382">
        <ele>176.19999694824</ele>
        <time>2011-10-08T07:52:43.000Z</time>
      </trkpt>
      <trkpt lat="48.70837" lon="1.74379">
        <ele>176.39999389648</ele>
        <time>2011-10-08T07:52:45.000Z</time>
      </trkpt>
      <trkpt lat="48.7084" lon="1.74372">
        <ele>176.39999389648</ele>
        <time>2011-10-08T07:52:50.000Z</time>
      </trkpt>
      <trkpt lat="48.70846" lon="1.74364">
        <ele>176.39999389648</ele>
        <time>2011-10-08T07:52:56.000Z</time>
      </trkpt>
      <trkpt lat="48.7085" lon="1.7436">
        <ele>176.39999389648</ele>
        <time>2011-10-08T07:53:01.000Z</time>
      </trkpt>
      <trkpt lat="48.70855" lon="1.74352">
        <ele>176.39999389648</ele>
        <time>2011-10-08T07:53:07.000Z</time>
      </trkpt>
      <trkpt lat="48.70857" lon="1.74351">
        <ele>176.39999389648</ele>
        <time>2011-10-08T07:53:08.000Z</time>
      </trkpt>
      <trkpt lat="48.70863" lon="1.74341">
        <ele>176.39999389648</ele>
        <time>2011-10-08T07:53:14.000Z</time>
      </trkpt>
      <trkpt lat="48.70867" lon="1.7433">
        <ele>176.60000610352</ele>
        <time>2011-10-08T07:53:20.000Z</time>
      </trkpt>
      <trkpt lat="48.70871" lon="1.74324">
        <ele>176.80000305176</ele>
        <time>2011-10-08T07:53:25.000Z</time>
      </trkpt>
      <trkpt lat="48.70874" lon="1.7432">
        <ele>177</ele>
        <time>2011-10-08T07:53:28.000Z</time>
      </trkpt>
      <trkpt lat="48.70877" lon="1.74314">
        <ele>177.39999389648</ele>
        <time>2011-10-08T07:53:32.000Z</time>
      </trkpt>
      <trkpt lat="48.70881" lon="1.74304">
        <ele>177.80000305176</ele>
        <time>2011-10-08T07:53:38.000Z</time>
      </trkpt>
      <trkpt lat="48.70885" lon="1.74296">
        <ele>178.19999694824</ele>
        <time>2011-10-08T07:53:44.000Z</time>
      </trkpt>
      <trkpt lat="48.70887" lon="1.74288">
        <ele>178.60000610352</ele>
        <time>2011-10-08T07:53:49.000Z</time>
      </trkpt>
      <trkpt lat="48.70891" lon="1.74281">
        <ele>179</ele>
        <time>2011-10-08T07:53:53.000Z</time>
      </trkpt>
      <trkpt lat="48.70894" lon="1.74272">
        <ele>179.39999389648</ele>
        <time>2011-10-08T07:53:58.000Z</time>
      </trkpt>
      <trkpt lat="48.70896" lon="1.74268">
        <ele>179.60000610352</ele>
        <time>2011-10-08T07:54:00.000Z</time>
      </trkpt>
      <trkpt lat="48.70901" lon="1.74257">
        <ele>180.39999389648</ele>
        <time>2011-10-08T07:54:06.000Z</time>
      </trkpt>
      <trkpt lat="48.70905" lon="1.74248">
        <ele>180.80000305176</ele>
        <time>2011-10-08T07:54:10.000Z</time>
      </trkpt>
      <trkpt lat="48.70907" lon="1.74242">
        <ele>181</ele>
        <time>2011-10-08T07:54:14.000Z</time>
      </trkpt>
      <trkpt lat="48.70907" lon="1.74237">
        <ele>181.19999694824</ele>
        <time>2011-10-08T07:54:16.000Z</time>
      </trkpt>
      <trkpt lat="48.70908" lon="1.74233">
        <ele>181.19999694824</ele>
        <time>2011-10-08T07:54:20.000Z</time>
      </trkpt>
      <trkpt lat="48.70909" lon="1.74232">
        <ele>181.19999694824</ele>
        <time>2011-10-08T07:54:24.000Z</time>
      </trkpt>
      <trkpt lat="48.7091" lon="1.74232">
        <ele>181.19999694824</ele>
        <time>2011-10-08T07:54:26.000Z</time>
      </trkpt>
      <trkpt lat="48.70917" lon="1.74217">
        <ele>181.80000305176</ele>
        <time>2011-10-08T07:55:16.000Z</time>
      </trkpt>
      <trkpt lat="48.70917" lon="1.74205">
        <ele>182</ele>
        <time>2011-10-08T07:55:21.000Z</time>
      </trkpt>
      <trkpt lat="48.70918" lon="1.74203">
        <ele>182</ele>
        <time>2011-10-08T07:55:22.000Z</time>
      </trkpt>
      <trkpt lat="48.70919" lon="1.74192">
        <ele>182.19999694824</ele>
        <time>2011-10-08T07:55:29.000Z</time>
      </trkpt>
      <trkpt lat="48.70919" lon="1.74191">
        <ele>182.19999694824</ele>
        <time>2011-10-08T07:55:31.000Z</time>
      </trkpt>
      <trkpt lat="48.70921" lon="1.74186">
        <ele>182.19999694824</ele>
        <time>2011-10-08T07:55:35.000Z</time>
      </trkpt>
      <trkpt lat="48.70925" lon="1.74171">
        <ele>182.39999389648</ele>
        <time>2011-10-08T07:55:40.000Z</time>
      </trkpt>
      <trkpt lat="48.70928" lon="1.74157">
        <ele>182.60000610352</ele>
        <time>2011-10-08T07:55:47.000Z</time>
      </trkpt>
      <trkpt lat="48.70928" lon="1.74155">
        <ele>182.60000610352</ele>
        <time>2011-10-08T07:55:48.000Z</time>
      </trkpt>
      <trkpt lat="48.70932" lon="1.74143">
        <ele>182.39999389648</ele>
        <time>2011-10-08T07:55:55.000Z</time>
      </trkpt>
      <trkpt lat="48.70934" lon="1.74133">
        <ele>182.39999389648</ele>
        <time>2011-10-08T07:56:00.000Z</time>
      </trkpt>
      <trkpt lat="48.70935" lon="1.74119">
        <ele>182.39999389648</ele>
        <time>2011-10-08T07:56:06.000Z</time>
      </trkpt>
      <trkpt lat="48.7094" lon="1.74102">
        <ele>182.39999389648</ele>
        <time>2011-10-08T07:56:14.000Z</time>
      </trkpt>
      <trkpt lat="48.70942" lon="1.74086">
        <ele>182.60000610352</ele>
        <time>2011-10-08T07:56:21.000Z</time>
      </trkpt>
      <trkpt lat="48.70945" lon="1.74072">
        <ele>182.60000610352</ele>
        <time>2011-10-08T07:56:28.000Z</time>
      </trkpt>
      <trkpt lat="48.7095" lon="1.74057">
        <ele>182.39999389648</ele>
        <time>2011-10-08T07:56:35.000Z</time>
      </trkpt>
      <trkpt lat="48.70953" lon="1.74044">
        <ele>182.39999389648</ele>
        <time>2011-10-08T07:56:41.000Z</time>
      </trkpt>
      <trkpt lat="48.70956" lon="1.74033">
        <ele>182.39999389648</ele>
        <time>2011-10-08T07:56:47.000Z</time>
      </trkpt>
      <trkpt lat="48.70961" lon="1.74021">
        <ele>182.39999389648</ele>
        <time>2011-10-08T07:56:53.000Z</time>
      </trkpt>
      <trkpt lat="48.70962" lon="1.74019">
        <ele>182.39999389648</ele>
        <time>2011-10-08T07:56:54.000Z</time>
      </trkpt>
      <trkpt lat="48.70965" lon="1.74008">
        <ele>182.39999389648</ele>
        <time>2011-10-08T07:56:59.000Z</time>
      </trkpt>
      <trkpt lat="48.70968" lon="1.74001">
        <ele>182.19999694824</ele>
        <time>2011-10-08T07:57:02.000Z</time>
      </trkpt>
      <trkpt lat="48.7097" lon="1.73989">
        <ele>182.60000610352</ele>
        <time>2011-10-08T07:57:07.000Z</time>
      </trkpt>
      <trkpt lat="48.70972" lon="1.73974">
        <ele>182.80000305176</ele>
        <time>2011-10-08T07:57:13.000Z</time>
      </trkpt>
      <trkpt lat="48.70972" lon="1.73964">
        <ele>183</ele>
        <time>2011-10-08T07:57:17.000Z</time>
      </trkpt>
      <trkpt lat="48.70974" lon="1.73958">
        <ele>183.19999694824</ele>
        <time>2011-10-08T07:57:20.000Z</time>
      </trkpt>
      <trkpt lat="48.70978" lon="1.7394">
        <ele>183.80000305176</ele>
        <time>2011-10-08T07:57:28.000Z</time>
      </trkpt>
      <trkpt lat="48.70981" lon="1.73923">
        <ele>184.19999694824</ele>
        <time>2011-10-08T07:57:36.000Z</time>
      </trkpt>
      <trkpt lat="48.70983" lon="1.73914">
        <ele>184.39999389648</ele>
        <time>2011-10-08T07:57:40.000Z</time>
      </trkpt>
      <trkpt lat="48.70987" lon="1.73897">
        <ele>184</ele>
        <time>2011-10-08T07:57:48.000Z</time>
      </trkpt>
      <trkpt lat="48.7099" lon="1.73884">
        <ele>183.80000305176</ele>
        <time>2011-10-08T07:57:54.000Z</time>
      </trkpt>
      <trkpt lat="48.70992" lon="1.73876">
        <ele>183.60000610352</ele>
        <time>2011-10-08T07:57:58.000Z</time>
      </trkpt>
      <trkpt lat="48.70997" lon="1.73855">
        <ele>183.19999694824</ele>
        <time>2011-10-08T07:58:08.000Z</time>
      </trkpt>
      <trkpt lat="48.70997" lon="1.7385">
        <ele>183.19999694824</ele>
        <time>2011-10-08T07:58:10.000Z</time>
      </trkpt>
      <trkpt lat="48.71" lon="1.73841">
        <ele>183</ele>
        <time>2011-10-08T07:58:14.000Z</time>
      </trkpt>
      <trkpt lat="48.71001" lon="1.73832">
        <ele>182.80000305176</ele>
        <time>2011-10-08T07:58:18.000Z</time>
      </trkpt>
      <trkpt lat="48.71004" lon="1.73818">
        <ele>182.60000610352</ele>
        <time>2011-10-08T07:58:24.000Z</time>
      </trkpt>
      <trkpt lat="48.71008" lon="1.73807">
        <ele>182.19999694824</ele>
        <time>2011-10-08T07:58:30.000Z</time>
      </trkpt>
      <trkpt lat="48.71012" lon="1.73803">
        <ele>182.19999694824</ele>
        <time>2011-10-08T07:58:34.000Z</time>
      </trkpt>
      <trkpt lat="48.7102" lon="1.73792">
        <ele>182</ele>
        <time>2011-10-08T07:58:42.000Z</time>
      </trkpt>
      <trkpt lat="48.71021" lon="1.73791">
        <ele>182</ele>
        <time>2011-10-08T07:58:43.000Z</time>
      </trkpt>
      <trkpt lat="48.71022" lon="1.73789">
        <ele>182</ele>
        <time>2011-10-08T07:58:45.000Z</time>
      </trkpt>
      <trkpt lat="48.71029" lon="1.73781">
        <ele>182</ele>
        <time>2011-10-08T07:58:51.000Z</time>
      </trkpt>
      <trkpt lat="48.71032" lon="1.73778">
        <ele>182</ele>
        <time>2011-10-08T07:58:53.000Z</time>
      </trkpt>
      <trkpt lat="48.71039" lon="1.7377">
        <ele>182</ele>
        <time>2011-10-08T07:58:58.000Z</time>
      </trkpt>
      <trkpt lat="48.71049" lon="1.73758">
        <ele>182</ele>
        <time>2011-10-08T07:59:06.000Z</time>
      </trkpt>
      <trkpt lat="48.71056" lon="1.73751">
        <ele>182.19999694824</ele>
        <time>2011-10-08T07:59:11.000Z</time>
      </trkpt>
      <trkpt lat="48.71064" lon="1.73744">
        <ele>182.19999694824</ele>
        <time>2011-10-08T07:59:16.000Z</time>
      </trkpt>
      <trkpt lat="48.71072" lon="1.73738">
        <ele>182</ele>
        <time>2011-10-08T07:59:22.000Z</time>
      </trkpt>
      <trkpt lat="48.71078" lon="1.73733">
        <ele>182</ele>
        <time>2011-10-08T07:59:27.000Z</time>
      </trkpt>
      <trkpt lat="48.71081" lon="1.7373">
        <ele>181.80000305176</ele>
        <time>2011-10-08T07:59:29.000Z</time>
      </trkpt>
      <trkpt lat="48.7109" lon="1.73721">
        <ele>181.60000610352</ele>
        <time>2011-10-08T07:59:36.000Z</time>
      </trkpt>
      <trkpt lat="48.71098" lon="1.7371">
        <ele>181.39999389648</ele>
        <time>2011-10-08T07:59:44.000Z</time>
      </trkpt>
      <trkpt lat="48.71099" lon="1.73709">
        <ele>181.39999389648</ele>
        <time>2011-10-08T07:59:45.000Z</time>
      </trkpt>
      <trkpt lat="48.71105" lon="1.73704">
        <ele>181.39999389648</ele>
        <time>2011-10-08T07:59:51.000Z</time>
      </trkpt>
      <trkpt lat="48.71111" lon="1.73698">
        <ele>181.39999389648</ele>
        <time>2011-10-08T07:59:56.000Z</time>
      </trkpt>
      <trkpt lat="48.71113" lon="1.73696">
        <ele>181.39999389648</ele>
        <time>2011-10-08T07:59:57.000Z</time>
      </trkpt>
      <trkpt lat="48.71121" lon="1.73688">
        <ele>181.39999389648</ele>
        <time>2011-10-08T08:00:03.000Z</time>
      </trkpt>
      <trkpt lat="48.71131" lon="1.73678">
        <ele>181.39999389648</ele>
        <time>2011-10-08T08:00:10.000Z</time>
      </trkpt>
      <trkpt lat="48.71139" lon="1.7367">
        <ele>181.60000610352</ele>
        <time>2011-10-08T08:00:16.000Z</time>
      </trkpt>
      <trkpt lat="48.71144" lon="1.73662">
        <ele>181.60000610352</ele>
        <time>2011-10-08T08:00:22.000Z</time>
      </trkpt>
      <trkpt lat="48.7115" lon="1.73655">
        <ele>181.80000305176</ele>
        <time>2011-10-08T08:00:27.000Z</time>
      </trkpt>
      <trkpt lat="48.71158" lon="1.7365">
        <ele>182</ele>
        <time>2011-10-08T08:00:33.000Z</time>
      </trkpt>
      <trkpt lat="48.71166" lon="1.7364">
        <ele>182</ele>
        <time>2011-10-08T08:00:40.000Z</time>
      </trkpt>
      <trkpt lat="48.71172" lon="1.73634">
        <ele>181.80000305176</ele>
        <time>2011-10-08T08:00:45.000Z</time>
      </trkpt>
      <trkpt lat="48.71181" lon="1.73623">
        <ele>181.80000305176</ele>
        <time>2011-10-08T08:00:52.000Z</time>
      </trkpt>
      <trkpt lat="48.71188" lon="1.73615">
        <ele>181.80000305176</ele>
        <time>2011-10-08T08:00:58.000Z</time>
      </trkpt>
      <trkpt lat="48.71194" lon="1.73604">
        <ele>181.80000305176</ele>
        <time>2011-10-08T08:01:04.000Z</time>
      </trkpt>
      <trkpt lat="48.71201" lon="1.73605">
        <ele>182.19999694824</ele>
        <time>2011-10-08T08:01:09.000Z</time>
      </trkpt>
      <trkpt lat="48.71204" lon="1.73607">
        <ele>182.39999389648</ele>
        <time>2011-10-08T08:01:11.000Z</time>
      </trkpt>
      <trkpt lat="48.71212" lon="1.73615">
        <ele>182.80000305176</ele>
        <time>2011-10-08T08:01:18.000Z</time>
      </trkpt>
      <trkpt lat="48.71217" lon="1.73615">
        <ele>183</ele>
        <time>2011-10-08T08:01:22.000Z</time>
      </trkpt>
      <trkpt lat="48.71219" lon="1.73615">
        <ele>183</ele>
        <time>2011-10-08T08:01:24.000Z</time>
      </trkpt>
      <trkpt lat="48.71229" lon="1.73617">
        <ele>183.39999389648</ele>
        <time>2011-10-08T08:01:30.000Z</time>
      </trkpt>
      <trkpt lat="48.71238" lon="1.73615">
        <ele>183.60000610352</ele>
        <time>2011-10-08T08:01:36.000Z</time>
      </trkpt>
      <trkpt lat="48.71248" lon="1.73612">
        <ele>184.19999694824</ele>
        <time>2011-10-08T08:01:45.000Z</time>
      </trkpt>
      <trkpt lat="48.71258" lon="1.7361">
        <ele>182.80000305176</ele>
        <time>2011-10-08T08:01:52.000Z</time>
      </trkpt>
      <trkpt lat="48.71268" lon="1.73605">
        <ele>181.39999389648</ele>
        <time>2011-10-08T08:02:00.000Z</time>
      </trkpt>
      <trkpt lat="48.71275" lon="1.73597">
        <ele>180.19999694824</ele>
        <time>2011-10-08T08:02:07.000Z</time>
      </trkpt>
      <trkpt lat="48.71283" lon="1.73589">
        <ele>179.19999694824</ele>
        <time>2011-10-08T08:02:13.000Z</time>
      </trkpt>
      <trkpt lat="48.71286" lon="1.73585">
        <ele>178.80000305176</ele>
        <time>2011-10-08T08:02:16.000Z</time>
      </trkpt>
      <trkpt lat="48.71292" lon="1.73578">
        <ele>177.80000305176</ele>
        <time>2011-10-08T08:02:22.000Z</time>
      </trkpt>
      <trkpt lat="48.71297" lon="1.73565">
        <ele>177.39999389648</ele>
        <time>2011-10-08T08:02:28.000Z</time>
      </trkpt>
      <trkpt lat="48.71301" lon="1.73551">
        <ele>177.19999694824</ele>
        <time>2011-10-08T08:02:35.000Z</time>
      </trkpt>
      <trkpt lat="48.71306" lon="1.73542">
        <ele>177</ele>
        <time>2011-10-08T08:02:40.000Z</time>
      </trkpt>
      <trkpt lat="48.71308" lon="1.73539">
        <ele>176.80000305176</ele>
        <time>2011-10-08T08:02:42.000Z</time>
      </trkpt>
      <trkpt lat="48.71314" lon="1.73538">
        <ele>176.39999389648</ele>
        <time>2011-10-08T08:02:46.000Z</time>
      </trkpt>
      <trkpt lat="48.71322" lon="1.73531">
        <ele>175.80000305176</ele>
        <time>2011-10-08T08:02:52.000Z</time>
      </trkpt>
      <trkpt lat="48.71328" lon="1.73526">
        <ele>175.60000610352</ele>
        <time>2011-10-08T08:02:56.000Z</time>
      </trkpt>
      <trkpt lat="48.71332" lon="1.73524">
        <ele>175.19999694824</ele>
        <time>2011-10-08T08:03:00.000Z</time>
      </trkpt>
      <trkpt lat="48.71343" lon="1.73531">
        <ele>173.60000610352</ele>
        <time>2011-10-08T08:03:08.000Z</time>
      </trkpt>
      <trkpt lat="48.71351" lon="1.73539">
        <ele>172</ele>
        <time>2011-10-08T08:03:15.000Z</time>
      </trkpt>
      <trkpt lat="48.71362" lon="1.73549">
        <ele>170</ele>
        <time>2011-10-08T08:03:22.000Z</time>
      </trkpt>
      <trkpt lat="48.71372" lon="1.73556">
        <ele>168.39999389648</ele>
        <time>2011-10-08T08:03:29.000Z</time>
      </trkpt>
      <trkpt lat="48.71374" lon="1.73557">
        <ele>168</ele>
        <time>2011-10-08T08:03:30.000Z</time>
      </trkpt>
      <trkpt lat="48.71381" lon="1.73564">
        <ele>167</ele>
        <time>2011-10-08T08:03:36.000Z</time>
      </trkpt>
      <trkpt lat="48.71385" lon="1.7357">
        <ele>166.19999694824</ele>
        <time>2011-10-08T08:03:40.000Z</time>
      </trkpt>
      <trkpt lat="48.71393" lon="1.73574">
        <ele>165</ele>
        <time>2011-10-08T08:03:47.000Z</time>
      </trkpt>
      <trkpt lat="48.714" lon="1.73573">
        <ele>164.19999694824</ele>
        <time>2011-10-08T08:03:52.000Z</time>
      </trkpt>
      <trkpt lat="48.71406" lon="1.73576">
        <ele>163.39999389648</ele>
        <time>2011-10-08T08:03:57.000Z</time>
      </trkpt>
      <trkpt lat="48.71409" lon="1.73575">
        <ele>163.19999694824</ele>
        <time>2011-10-08T08:03:59.000Z</time>
      </trkpt>
      <trkpt lat="48.71419" lon="1.73573">
        <ele>162.19999694824</ele>
        <time>2011-10-08T08:04:06.000Z</time>
      </trkpt>
      <trkpt lat="48.71423" lon="1.73573">
        <ele>161.80000305176</ele>
        <time>2011-10-08T08:04:09.000Z</time>
      </trkpt>
      <trkpt lat="48.71432" lon="1.73573">
        <ele>161</ele>
        <time>2011-10-08T08:04:16.000Z</time>
      </trkpt>
      <trkpt lat="48.71442" lon="1.73569">
        <ele>160</ele>
        <time>2011-10-08T08:04:22.000Z</time>
      </trkpt>
      <trkpt lat="48.71449" lon="1.73568">
        <ele>159.39999389648</ele>
        <time>2011-10-08T08:04:26.000Z</time>
      </trkpt>
      <trkpt lat="48.71457" lon="1.73565">
        <ele>158.60000610352</ele>
        <time>2011-10-08T08:04:32.000Z</time>
      </trkpt>
      <trkpt lat="48.71463" lon="1.73563">
        <ele>158</ele>
        <time>2011-10-08T08:04:36.000Z</time>
      </trkpt>
      <trkpt lat="48.71474" lon="1.7356">
        <ele>156.80000305176</ele>
        <time>2011-10-08T08:04:41.000Z</time>
      </trkpt>
      <trkpt lat="48.71486" lon="1.73557">
        <ele>155.60000610352</ele>
        <time>2011-10-08T08:04:48.000Z</time>
      </trkpt>
      <trkpt lat="48.71495" lon="1.73555">
        <ele>154.39999389648</ele>
        <time>2011-10-08T08:04:53.000Z</time>
      </trkpt>
      <trkpt lat="48.715" lon="1.73553">
        <ele>153.80000305176</ele>
        <time>2011-10-08T08:04:57.000Z</time>
      </trkpt>
      <trkpt lat="48.71514" lon="1.73552">
        <ele>152.19999694824</ele>
        <time>2011-10-08T08:05:05.000Z</time>
      </trkpt>
      <trkpt lat="48.71522" lon="1.73551">
        <ele>151.39999389648</ele>
        <time>2011-10-08T08:05:11.000Z</time>
      </trkpt>
      <trkpt lat="48.71532" lon="1.73549">
        <ele>150.19999694824</ele>
        <time>2011-10-08T08:05:17.000Z</time>
      </trkpt>
      <trkpt lat="48.71543" lon="1.73546">
        <ele>148.80000305176</ele>
        <time>2011-10-08T08:05:24.000Z</time>
      </trkpt>
      <trkpt lat="48.71553" lon="1.73544">
        <ele>147.80000305176</ele>
        <time>2011-10-08T08:05:30.000Z</time>
      </trkpt>
      <trkpt lat="48.71562" lon="1.7354">
        <ele>146.80000305176</ele>
        <time>2011-10-08T08:05:37.000Z</time>
      </trkpt>
      <trkpt lat="48.71574" lon="1.73535">
        <ele>145.39999389648</ele>
        <time>2011-10-08T08:05:45.000Z</time>
      </trkpt>
      <trkpt lat="48.71584" lon="1.73535">
        <ele>144.39999389648</ele>
        <time>2011-10-08T08:05:51.000Z</time>
      </trkpt>
      <trkpt lat="48.71596" lon="1.73534">
        <ele>143.60000610352</ele>
        <time>2011-10-08T08:05:58.000Z</time>
      </trkpt>
      <trkpt lat="48.71605" lon="1.73531">
        <ele>143.19999694824</ele>
        <time>2011-10-08T08:06:04.000Z</time>
      </trkpt>
      <trkpt lat="48.71607" lon="1.73531">
        <ele>143</ele>
        <time>2011-10-08T08:06:07.000Z</time>
      </trkpt>
      <trkpt lat="48.71609" lon="1.73531">
        <ele>143</ele>
        <time>2011-10-08T08:06:10.000Z</time>
      </trkpt>
      <trkpt lat="48.71619" lon="1.73528">
        <ele>142.39999389648</ele>
        <time>2011-10-08T08:06:15.000Z</time>
      </trkpt>
      <trkpt lat="48.71634" lon="1.73522">
        <ele>141.60000610352</ele>
        <time>2011-10-08T08:06:25.000Z</time>
      </trkpt>
      <trkpt lat="48.71645" lon="1.7352">
        <ele>141</ele>
        <time>2011-10-08T08:06:32.000Z</time>
      </trkpt>
      <trkpt lat="48.71653" lon="1.73518">
        <ele>140.60000610352</ele>
        <time>2011-10-08T08:06:39.000Z</time>
      </trkpt>
      <trkpt lat="48.7166" lon="1.73517">
        <ele>140.19999694824</ele>
        <time>2011-10-08T08:06:45.000Z</time>
      </trkpt>
      <trkpt lat="48.71672" lon="1.73514">
        <ele>139.80000305176</ele>
        <time>2011-10-08T08:06:53.000Z</time>
      </trkpt>
      <trkpt lat="48.71685" lon="1.7351">
        <ele>139.39999389648</ele>
        <time>2011-10-08T08:07:01.000Z</time>
      </trkpt>
      <trkpt lat="48.71698" lon="1.73508">
        <ele>138.80000305176</ele>
        <time>2011-10-08T08:07:09.000Z</time>
      </trkpt>
      <trkpt lat="48.71711" lon="1.73506">
        <ele>138.39999389648</ele>
        <time>2011-10-08T08:07:17.000Z</time>
      </trkpt>
      <trkpt lat="48.71725" lon="1.73503">
        <ele>137.80000305176</ele>
        <time>2011-10-08T08:07:25.000Z</time>
      </trkpt>
      <trkpt lat="48.71737" lon="1.73502">
        <ele>137.39999389648</ele>
        <time>2011-10-08T08:07:32.000Z</time>
      </trkpt>
      <trkpt lat="48.71743" lon="1.73501">
        <ele>137.19999694824</ele>
        <time>2011-10-08T08:07:36.000Z</time>
      </trkpt>
      <trkpt lat="48.7175" lon="1.73492">
        <ele>136.80000305176</ele>
        <time>2011-10-08T08:07:43.000Z</time>
      </trkpt>
      <trkpt lat="48.71752" lon="1.73489">
        <ele>136.80000305176</ele>
        <time>2011-10-08T08:07:45.000Z</time>
      </trkpt>
      <trkpt lat="48.71753" lon="1.73484">
        <ele>136.80000305176</ele>
        <time>2011-10-08T08:07:48.000Z</time>
      </trkpt>
      <trkpt lat="48.71752" lon="1.7347">
        <ele>136.80000305176</ele>
        <time>2011-10-08T08:07:55.000Z</time>
      </trkpt>
      <trkpt lat="48.71751" lon="1.73467">
        <ele>136.80000305176</ele>
        <time>2011-10-08T08:07:57.000Z</time>
      </trkpt>
      <trkpt lat="48.71747" lon="1.73452">
        <ele>137</ele>
        <time>2011-10-08T08:08:04.000Z</time>
      </trkpt>
      <trkpt lat="48.71746" lon="1.73444">
        <ele>137</ele>
        <time>2011-10-08T08:08:08.000Z</time>
      </trkpt>
      <trkpt lat="48.71743" lon="1.73431">
        <ele>137.19999694824</ele>
        <time>2011-10-08T08:08:14.000Z</time>
      </trkpt>
      <trkpt lat="48.7174" lon="1.73413">
        <ele>137.19999694824</ele>
        <time>2011-10-08T08:08:22.000Z</time>
      </trkpt>
      <trkpt lat="48.71736" lon="1.73396">
        <ele>137</ele>
        <time>2011-10-08T08:08:30.000Z</time>
      </trkpt>
      <trkpt lat="48.71732" lon="1.73383">
        <ele>136.80000305176</ele>
        <time>2011-10-08T08:08:36.000Z</time>
      </trkpt>
      <trkpt lat="48.71729" lon="1.73374">
        <ele>136.60000610352</ele>
        <time>2011-10-08T08:08:41.000Z</time>
      </trkpt>
      <trkpt lat="48.71725" lon="1.73362">
        <ele>136.39999389648</ele>
        <time>2011-10-08T08:08:47.000Z</time>
      </trkpt>
      <trkpt lat="48.71725" lon="1.7336">
        <ele>136.39999389648</ele>
        <time>2011-10-08T08:08:48.000Z</time>
      </trkpt>
      <trkpt lat="48.71723" lon="1.7335">
        <ele>136.19999694824</ele>
        <time>2011-10-08T08:08:53.000Z</time>
      </trkpt>
      <trkpt lat="48.71718" lon="1.73328">
        <ele>136</ele>
        <time>2011-10-08T08:09:03.000Z</time>
      </trkpt>
      <trkpt lat="48.71716" lon="1.7332">
        <ele>136</ele>
        <time>2011-10-08T08:09:07.000Z</time>
      </trkpt>
      <trkpt lat="48.71714" lon="1.73312">
        <ele>136</ele>
        <time>2011-10-08T08:09:11.000Z</time>
      </trkpt>
      <trkpt lat="48.71712" lon="1.733">
        <ele>136</ele>
        <time>2011-10-08T08:09:16.000Z</time>
      </trkpt>
      <trkpt lat="48.71711" lon="1.73283">
        <ele>136</ele>
        <time>2011-10-08T08:09:23.000Z</time>
      </trkpt>
      <trkpt lat="48.7171" lon="1.73277">
        <ele>136</ele>
        <time>2011-10-08T08:09:26.000Z</time>
      </trkpt>
      <trkpt lat="48.71706" lon="1.73263">
        <ele>136</ele>
        <time>2011-10-08T08:09:32.000Z</time>
      </trkpt>
      <trkpt lat="48.71704" lon="1.73238">
        <ele>136</ele>
        <time>2011-10-08T08:09:43.000Z</time>
      </trkpt>
      <trkpt lat="48.71701" lon="1.73219">
        <ele>136</ele>
        <time>2011-10-08T08:09:52.000Z</time>
      </trkpt>
      <trkpt lat="48.71697" lon="1.73197">
        <ele>136</ele>
        <time>2011-10-08T08:10:02.000Z</time>
      </trkpt>
      <trkpt lat="48.71697" lon="1.73192">
        <ele>136</ele>
        <time>2011-10-08T08:10:04.000Z</time>
      </trkpt>
      <trkpt lat="48.71694" lon="1.73182">
        <ele>136</ele>
        <time>2011-10-08T08:10:09.000Z</time>
      </trkpt>
      <trkpt lat="48.71692" lon="1.73164">
        <ele>136</ele>
        <time>2011-10-08T08:10:17.000Z</time>
      </trkpt>
      <trkpt lat="48.7169" lon="1.73148">
        <ele>136.39999389648</ele>
        <time>2011-10-08T08:10:25.000Z</time>
      </trkpt>
      <trkpt lat="48.71687" lon="1.73131">
        <ele>137</ele>
        <time>2011-10-08T08:10:33.000Z</time>
      </trkpt>
      <trkpt lat="48.71684" lon="1.73112">
        <ele>137.39999389648</ele>
        <time>2011-10-08T08:10:42.000Z</time>
      </trkpt>
      <trkpt lat="48.71681" lon="1.73095">
        <ele>138</ele>
        <time>2011-10-08T08:10:50.000Z</time>
      </trkpt>
      <trkpt lat="48.71678" lon="1.73076">
        <ele>138.19999694824</ele>
        <time>2011-10-08T08:10:59.000Z</time>
      </trkpt>
      <trkpt lat="48.71678" lon="1.73072">
        <ele>138.19999694824</ele>
        <time>2011-10-08T08:11:01.000Z</time>
      </trkpt>
      <trkpt lat="48.71676" lon="1.73055">
        <ele>138</ele>
        <time>2011-10-08T08:11:09.000Z</time>
      </trkpt>
      <trkpt lat="48.71674" lon="1.73038">
        <ele>138</ele>
        <time>2011-10-08T08:11:17.000Z</time>
      </trkpt>
      <trkpt lat="48.7167" lon="1.73015">
        <ele>137.80000305176</ele>
        <time>2011-10-08T08:11:28.000Z</time>
      </trkpt>
      <trkpt lat="48.71668" lon="1.72998">
        <ele>137.80000305176</ele>
        <time>2011-10-08T08:11:36.000Z</time>
      </trkpt>
      <trkpt lat="48.71663" lon="1.72986">
        <ele>137.80000305176</ele>
        <time>2011-10-08T08:11:43.000Z</time>
      </trkpt>
      <trkpt lat="48.71659" lon="1.72974">
        <ele>138</ele>
        <time>2011-10-08T08:11:49.000Z</time>
      </trkpt>
      <trkpt lat="48.71654" lon="1.72961">
        <ele>138</ele>
        <time>2011-10-08T08:11:54.000Z</time>
      </trkpt>
      <trkpt lat="48.71647" lon="1.72947">
        <ele>138.19999694824</ele>
        <time>2011-10-08T08:11:59.000Z</time>
      </trkpt>
      <trkpt lat="48.71646" lon="1.72945">
        <ele>138.19999694824</ele>
        <time>2011-10-08T08:12:00.000Z</time>
      </trkpt>
      <trkpt lat="48.71644" lon="1.7294">
        <ele>138.19999694824</ele>
        <time>2011-10-08T08:12:03.000Z</time>
      </trkpt>
      <trkpt lat="48.71638" lon="1.72925">
        <ele>138.39999389648</ele>
        <time>2011-10-08T08:12:08.000Z</time>
      </trkpt>
      <trkpt lat="48.71631" lon="1.72907">
        <ele>138.60000610352</ele>
        <time>2011-10-08T08:12:13.000Z</time>
      </trkpt>
      <trkpt lat="48.71622" lon="1.72884">
        <ele>138.80000305176</ele>
        <time>2011-10-08T08:12:19.000Z</time>
      </trkpt>
      <trkpt lat="48.7161" lon="1.7286">
        <ele>139.19999694824</ele>
        <time>2011-10-08T08:12:25.000Z</time>
      </trkpt>
      <trkpt lat="48.71598" lon="1.72834">
        <ele>139.39999389648</ele>
        <time>2011-10-08T08:12:31.000Z</time>
      </trkpt>
      <trkpt lat="48.71585" lon="1.72812">
        <ele>140</ele>
        <time>2011-10-08T08:12:36.000Z</time>
      </trkpt>
      <trkpt lat="48.71576" lon="1.72791">
        <ele>140.80000305176</ele>
        <time>2011-10-08T08:12:41.000Z</time>
      </trkpt>
      <trkpt lat="48.71565" lon="1.72767">
        <ele>141.80000305176</ele>
        <time>2011-10-08T08:12:47.000Z</time>
      </trkpt>
      <trkpt lat="48.71554" lon="1.72743">
        <ele>142.60000610352</ele>
        <time>2011-10-08T08:12:53.000Z</time>
      </trkpt>
      <trkpt lat="48.71544" lon="1.72727">
        <ele>142.80000305176</ele>
        <time>2011-10-08T08:12:57.000Z</time>
      </trkpt>
      <trkpt lat="48.71536" lon="1.72709">
        <ele>143</ele>
        <time>2011-10-08T08:13:01.000Z</time>
      </trkpt>
      <trkpt lat="48.71528" lon="1.72685">
        <ele>142.80000305176</ele>
        <time>2011-10-08T08:13:06.000Z</time>
      </trkpt>
      <trkpt lat="48.7152" lon="1.72654">
        <ele>142.60000610352</ele>
        <time>2011-10-08T08:13:12.000Z</time>
      </trkpt>
      <trkpt lat="48.71511" lon="1.72618">
        <ele>142.19999694824</ele>
        <time>2011-10-08T08:13:19.000Z</time>
      </trkpt>
      <trkpt lat="48.71507" lon="1.72587">
        <ele>141.60000610352</ele>
        <time>2011-10-08T08:13:25.000Z</time>
      </trkpt>
      <trkpt lat="48.71501" lon="1.7255">
        <ele>141.39999389648</ele>
        <time>2011-10-08T08:13:32.000Z</time>
      </trkpt>
      <trkpt lat="48.71498" lon="1.72523">
        <ele>141.19999694824</ele>
        <time>2011-10-08T08:13:37.000Z</time>
      </trkpt>
      <trkpt lat="48.71493" lon="1.72484">
        <ele>141</ele>
        <time>2011-10-08T08:13:44.000Z</time>
      </trkpt>
      <trkpt lat="48.71491" lon="1.7245">
        <ele>140.19999694824</ele>
        <time>2011-10-08T08:13:50.000Z</time>
      </trkpt>
      <trkpt lat="48.71489" lon="1.72418">
        <ele>139.60000610352</ele>
        <time>2011-10-08T08:13:56.000Z</time>
      </trkpt>
      <trkpt lat="48.71487" lon="1.7238">
        <ele>139.19999694824</ele>
        <time>2011-10-08T08:14:03.000Z</time>
      </trkpt>
      <trkpt lat="48.71488" lon="1.72348">
        <ele>138.80000305176</ele>
        <time>2011-10-08T08:14:09.000Z</time>
      </trkpt>
      <trkpt lat="48.71488" lon="1.72309">
        <ele>138.39999389648</ele>
        <time>2011-10-08T08:14:16.000Z</time>
      </trkpt>
      <trkpt lat="48.71485" lon="1.72281">
        <ele>138.19999694824</ele>
        <time>2011-10-08T08:14:21.000Z</time>
      </trkpt>
      <trkpt lat="48.7148" lon="1.72253">
        <ele>138.39999389648</ele>
        <time>2011-10-08T08:14:27.000Z</time>
      </trkpt>
      <trkpt lat="48.7147" lon="1.72224">
        <ele>139.60000610352</ele>
        <time>2011-10-08T08:14:33.000Z</time>
      </trkpt>
      <trkpt lat="48.71459" lon="1.72197">
        <ele>141.39999389648</ele>
        <time>2011-10-08T08:14:39.000Z</time>
      </trkpt>
      <trkpt lat="48.71446" lon="1.72185">
        <ele>143.19999694824</ele>
        <time>2011-10-08T08:14:44.000Z</time>
      </trkpt>
      <trkpt lat="48.71437" lon="1.72168">
        <ele>144.60000610352</ele>
        <time>2011-10-08T08:14:48.000Z</time>
      </trkpt>
      <trkpt lat="48.7143" lon="1.72143">
        <ele>144.60000610352</ele>
        <time>2011-10-08T08:14:53.000Z</time>
      </trkpt>
      <trkpt lat="48.71424" lon="1.72118">
        <ele>144</ele>
        <time>2011-10-08T08:14:58.000Z</time>
      </trkpt>
      <trkpt lat="48.71417" lon="1.72091">
        <ele>143.19999694824</ele>
        <time>2011-10-08T08:15:03.000Z</time>
      </trkpt>
      <trkpt lat="48.71411" lon="1.72068">
        <ele>143.80000305176</ele>
        <time>2011-10-08T08:15:08.000Z</time>
      </trkpt>
      <trkpt lat="48.71396" lon="1.72044">
        <ele>145.19999694824</ele>
        <time>2011-10-08T08:15:14.000Z</time>
      </trkpt>
      <trkpt lat="48.7138" lon="1.72023">
        <ele>146</ele>
        <time>2011-10-08T08:15:20.000Z</time>
      </trkpt>
      <trkpt lat="48.71362" lon="1.72007">
        <ele>146.19999694824</ele>
        <time>2011-10-08T08:15:26.000Z</time>
      </trkpt>
      <trkpt lat="48.71347" lon="1.7199">
        <ele>146.60000610352</ele>
        <time>2011-10-08T08:15:31.000Z</time>
      </trkpt>
      <trkpt lat="48.7133" lon="1.71972">
        <ele>148</ele>
        <time>2011-10-08T08:15:37.000Z</time>
      </trkpt>
      <trkpt lat="48.71316" lon="1.71952">
        <ele>150</ele>
        <time>2011-10-08T08:15:43.000Z</time>
      </trkpt>
      <trkpt lat="48.71314" lon="1.71925">
        <ele>150.80000305176</ele>
        <time>2011-10-08T08:15:49.000Z</time>
      </trkpt>
      <trkpt lat="48.71316" lon="1.71898">
        <ele>151</ele>
        <time>2011-10-08T08:15:55.000Z</time>
      </trkpt>
      <trkpt lat="48.71318" lon="1.71882">
        <ele>151</ele>
        <time>2011-10-08T08:15:59.000Z</time>
      </trkpt>
      <trkpt lat="48.71326" lon="1.71856">
        <ele>150.39999389648</ele>
        <time>2011-10-08T08:16:05.000Z</time>
      </trkpt>
      <trkpt lat="48.71328" lon="1.71834">
        <ele>150.39999389648</ele>
        <time>2011-10-08T08:16:10.000Z</time>
      </trkpt>
      <trkpt lat="48.71329" lon="1.71818">
        <ele>149.80000305176</ele>
        <time>2011-10-08T08:16:15.000Z</time>
      </trkpt>
      <trkpt lat="48.71328" lon="1.71801">
        <ele>149.39999389648</ele>
        <time>2011-10-08T08:16:19.000Z</time>
      </trkpt>
      <trkpt lat="48.71323" lon="1.71769">
        <ele>148.60000610352</ele>
        <time>2011-10-08T08:16:26.000Z</time>
      </trkpt>
      <trkpt lat="48.71321" lon="1.71732">
        <ele>147.60000610352</ele>
        <time>2011-10-08T08:16:34.000Z</time>
      </trkpt>
      <trkpt lat="48.7132" lon="1.71689">
        <ele>147</ele>
        <time>2011-10-08T08:16:43.000Z</time>
      </trkpt>
      <trkpt lat="48.71319" lon="1.71656">
        <ele>146.19999694824</ele>
        <time>2011-10-08T08:16:50.000Z</time>
      </trkpt>
      <trkpt lat="48.71317" lon="1.7163">
        <ele>145.39999389648</ele>
        <time>2011-10-08T08:16:56.000Z</time>
      </trkpt>
      <trkpt lat="48.71317" lon="1.71594">
        <ele>144.19999694824</ele>
        <time>2011-10-08T08:17:03.000Z</time>
      </trkpt>
      <trkpt lat="48.71316" lon="1.71555">
        <ele>143.60000610352</ele>
        <time>2011-10-08T08:17:10.000Z</time>
      </trkpt>
      <trkpt lat="48.71314" lon="1.71509">
        <ele>143</ele>
        <time>2011-10-08T08:17:18.000Z</time>
      </trkpt>
      <trkpt lat="48.71313" lon="1.71476">
        <ele>142.60000610352</ele>
        <time>2011-10-08T08:17:24.000Z</time>
      </trkpt>
      <trkpt lat="48.71304" lon="1.71444">
        <ele>142.80000305176</ele>
        <time>2011-10-08T08:17:30.000Z</time>
      </trkpt>
      <trkpt lat="48.71299" lon="1.7141">
        <ele>142.80000305176</ele>
        <time>2011-10-08T08:17:36.000Z</time>
      </trkpt>
      <trkpt lat="48.71294" lon="1.71377">
        <ele>142.60000610352</ele>
        <time>2011-10-08T08:17:42.000Z</time>
      </trkpt>
      <trkpt lat="48.7129" lon="1.71342">
        <ele>142.19999694824</ele>
        <time>2011-10-08T08:17:48.000Z</time>
      </trkpt>
      <trkpt lat="48.71282" lon="1.71302">
        <ele>141.80000305176</ele>
        <time>2011-10-08T08:17:55.000Z</time>
      </trkpt>
      <trkpt lat="48.71275" lon="1.71263">
        <ele>141.60000610352</ele>
        <time>2011-10-08T08:18:02.000Z</time>
      </trkpt>
      <trkpt lat="48.71272" lon="1.71218">
        <ele>141.19999694824</ele>
        <time>2011-10-08T08:18:10.000Z</time>
      </trkpt>
      <trkpt lat="48.71273" lon="1.71178">
        <ele>141.19999694824</ele>
        <time>2011-10-08T08:18:17.000Z</time>
      </trkpt>
      <trkpt lat="48.71266" lon="1.7114">
        <ele>141.39999389648</ele>
        <time>2011-10-08T08:18:24.000Z</time>
      </trkpt>
      <trkpt lat="48.71257" lon="1.71111">
        <ele>141.80000305176</ele>
        <time>2011-10-08T08:18:30.000Z</time>
      </trkpt>
      <trkpt lat="48.71239" lon="1.71073">
        <ele>143</ele>
        <time>2011-10-08T08:18:39.000Z</time>
      </trkpt>
      <trkpt lat="48.71226" lon="1.71046">
        <ele>144.19999694824</ele>
        <time>2011-10-08T08:18:46.000Z</time>
      </trkpt>
      <trkpt lat="48.71216" lon="1.7102">
        <ele>145</ele>
        <time>2011-10-08T08:18:52.000Z</time>
      </trkpt>
      <trkpt lat="48.71212" lon="1.70994">
        <ele>145.19999694824</ele>
        <time>2011-10-08T08:18:57.000Z</time>
      </trkpt>
      <trkpt lat="48.7121" lon="1.70955">
        <ele>146.19999694824</ele>
        <time>2011-10-08T08:19:04.000Z</time>
      </trkpt>
      <trkpt lat="48.7121" lon="1.70922">
        <ele>146.60000610352</ele>
        <time>2011-10-08T08:19:10.000Z</time>
      </trkpt>
      <trkpt lat="48.7121" lon="1.70896">
        <ele>147.80000305176</ele>
        <time>2011-10-08T08:19:14.000Z</time>
      </trkpt>
      <trkpt lat="48.7121" lon="1.70872">
        <ele>148.80000305176</ele>
        <time>2011-10-08T08:19:18.000Z</time>
      </trkpt>
      <trkpt lat="48.71212" lon="1.7086">
        <ele>149.19999694824</ele>
        <time>2011-10-08T08:19:20.000Z</time>
      </trkpt>
      <trkpt lat="48.7122" lon="1.70827">
        <ele>149.80000305176</ele>
        <time>2011-10-08T08:19:26.000Z</time>
      </trkpt>
      <trkpt lat="48.71221" lon="1.70805">
        <ele>149.39999389648</ele>
        <time>2011-10-08T08:19:30.000Z</time>
      </trkpt>
      <trkpt lat="48.7122" lon="1.70769">
        <ele>149.19999694824</ele>
        <time>2011-10-08T08:19:37.000Z</time>
      </trkpt>
      <trkpt lat="48.71219" lon="1.70738">
        <ele>149.19999694824</ele>
        <time>2011-10-08T08:19:43.000Z</time>
      </trkpt>
      <trkpt lat="48.71221" lon="1.70704">
        <ele>149</ele>
        <time>2011-10-08T08:19:50.000Z</time>
      </trkpt>
      <trkpt lat="48.71223" lon="1.70673">
        <ele>148.80000305176</ele>
        <time>2011-10-08T08:19:56.000Z</time>
      </trkpt>
      <trkpt lat="48.71223" lon="1.70648">
        <ele>148.60000610352</ele>
        <time>2011-10-08T08:20:01.000Z</time>
      </trkpt>
      <trkpt lat="48.71219" lon="1.70613">
        <ele>148.80000305176</ele>
        <time>2011-10-08T08:20:09.000Z</time>
      </trkpt>
      <trkpt lat="48.71215" lon="1.70592">
        <ele>149</ele>
        <time>2011-10-08T08:20:14.000Z</time>
      </trkpt>
      <trkpt lat="48.71206" lon="1.70568">
        <ele>149</ele>
        <time>2011-10-08T08:20:20.000Z</time>
      </trkpt>
      <trkpt lat="48.71197" lon="1.70537">
        <ele>148.80000305176</ele>
        <time>2011-10-08T08:20:27.000Z</time>
      </trkpt>
      <trkpt lat="48.71193" lon="1.70509">
        <ele>148</ele>
        <time>2011-10-08T08:20:33.000Z</time>
      </trkpt>
      <trkpt lat="48.71186" lon="1.70481">
        <ele>147.39999389648</ele>
        <time>2011-10-08T08:20:40.000Z</time>
      </trkpt>
      <trkpt lat="48.71175" lon="1.70457">
        <ele>146.80000305176</ele>
        <time>2011-10-08T08:20:46.000Z</time>
      </trkpt>
      <trkpt lat="48.71164" lon="1.70431">
        <ele>145.80000305176</ele>
        <time>2011-10-08T08:20:52.000Z</time>
      </trkpt>
      <trkpt lat="48.71155" lon="1.70394">
        <ele>145</ele>
        <time>2011-10-08T08:20:59.000Z</time>
      </trkpt>
      <trkpt lat="48.71155" lon="1.70375">
        <ele>145.19999694824</ele>
        <time>2011-10-08T08:21:03.000Z</time>
      </trkpt>
      <trkpt lat="48.71154" lon="1.70353">
        <ele>145.39999389648</ele>
        <time>2011-10-08T08:21:08.000Z</time>
      </trkpt>
      <trkpt lat="48.71156" lon="1.70326">
        <ele>145.60000610352</ele>
        <time>2011-10-08T08:21:13.000Z</time>
      </trkpt>
      <trkpt lat="48.7116" lon="1.70302">
        <ele>146</ele>
        <time>2011-10-08T08:21:18.000Z</time>
      </trkpt>
      <trkpt lat="48.71166" lon="1.70279">
        <ele>146.19999694824</ele>
        <time>2011-10-08T08:21:23.000Z</time>
      </trkpt>
      <trkpt lat="48.71169" lon="1.7026">
        <ele>146.39999389648</ele>
        <time>2011-10-08T08:21:27.000Z</time>
      </trkpt>
      <trkpt lat="48.71179" lon="1.70236">
        <ele>145.60000610352</ele>
        <time>2011-10-08T08:21:32.000Z</time>
      </trkpt>
      <trkpt lat="48.71188" lon="1.70217">
        <ele>144.80000305176</ele>
        <time>2011-10-08T08:21:36.000Z</time>
      </trkpt>
      <trkpt lat="48.71195" lon="1.70178">
        <ele>144.19999694824</ele>
        <time>2011-10-08T08:21:43.000Z</time>
      </trkpt>
      <trkpt lat="48.71199" lon="1.7015">
        <ele>144.19999694824</ele>
        <time>2011-10-08T08:21:48.000Z</time>
      </trkpt>
      <trkpt lat="48.71207" lon="1.70121">
        <ele>144.39999389648</ele>
        <time>2011-10-08T08:21:54.000Z</time>
      </trkpt>
      <trkpt lat="48.71212" lon="1.70092">
        <ele>144.80000305176</ele>
        <time>2011-10-08T08:22:00.000Z</time>
      </trkpt>
      <trkpt lat="48.71219" lon="1.70056">
        <ele>145.19999694824</ele>
        <time>2011-10-08T08:22:07.000Z</time>
      </trkpt>
      <trkpt lat="48.71227" lon="1.70024">
        <ele>145.60000610352</ele>
        <time>2011-10-08T08:22:13.000Z</time>
      </trkpt>
      <trkpt lat="48.7123" lon="1.70002">
        <ele>146</ele>
        <time>2011-10-08T08:22:17.000Z</time>
      </trkpt>
      <trkpt lat="48.71232" lon="1.6998">
        <ele>146.19999694824</ele>
        <time>2011-10-08T08:22:21.000Z</time>
      </trkpt>
      <trkpt lat="48.71231" lon="1.6995">
        <ele>146.60000610352</ele>
        <time>2011-10-08T08:22:26.000Z</time>
      </trkpt>
      <trkpt lat="48.7123" lon="1.69926">
        <ele>146.80000305176</ele>
        <time>2011-10-08T08:22:30.000Z</time>
      </trkpt>
      <trkpt lat="48.71232" lon="1.69885">
        <ele>147</ele>
        <time>2011-10-08T08:22:37.000Z</time>
      </trkpt>
      <trkpt lat="48.71235" lon="1.69837">
        <ele>147.19999694824</ele>
        <time>2011-10-08T08:22:45.000Z</time>
      </trkpt>
      <trkpt lat="48.71239" lon="1.69806">
        <ele>147.39999389648</ele>
        <time>2011-10-08T08:22:51.000Z</time>
      </trkpt>
      <trkpt lat="48.71248" lon="1.69764">
        <ele>147.80000305176</ele>
        <time>2011-10-08T08:22:59.000Z</time>
      </trkpt>
      <trkpt lat="48.71253" lon="1.69725">
        <ele>148.60000610352</ele>
        <time>2011-10-08T08:23:06.000Z</time>
      </trkpt>
      <trkpt lat="48.71255" lon="1.69706">
        <ele>149.19999694824</ele>
        <time>2011-10-08T08:23:10.000Z</time>
      </trkpt>
      <trkpt lat="48.71257" lon="1.69689">
        <ele>149.80000305176</ele>
        <time>2011-10-08T08:23:16.000Z</time>
      </trkpt>
      <trkpt lat="48.71258" lon="1.69679">
        <ele>150.19999694824</ele>
        <time>2011-10-08T08:23:21.000Z</time>
      </trkpt>
      <trkpt lat="48.7126" lon="1.69669">
        <ele>150.39999389648</ele>
        <time>2011-10-08T08:23:27.000Z</time>
      </trkpt>
      <trkpt lat="48.71264" lon="1.69659">
        <ele>150.60000610352</ele>
        <time>2011-10-08T08:23:32.000Z</time>
      </trkpt>
      <trkpt lat="48.71269" lon="1.69647">
        <ele>150.80000305176</ele>
        <time>2011-10-08T08:23:39.000Z</time>
      </trkpt>
      <trkpt lat="48.71273" lon="1.69633">
        <ele>151</ele>
        <time>2011-10-08T08:23:46.000Z</time>
      </trkpt>
      <trkpt lat="48.71274" lon="1.69629">
        <ele>151.19999694824</ele>
        <time>2011-10-08T08:23:48.000Z</time>
      </trkpt>
      <trkpt lat="48.71274" lon="1.69625">
        <ele>151.19999694824</ele>
        <time>2011-10-08T08:23:50.000Z</time>
      </trkpt>
      <trkpt lat="48.71275" lon="1.69611">
        <ele>151.60000610352</ele>
        <time>2011-10-08T08:23:56.000Z</time>
      </trkpt>
      <trkpt lat="48.71275" lon="1.69603">
        <ele>151.80000305176</ele>
        <time>2011-10-08T08:24:00.000Z</time>
      </trkpt>
      <trkpt lat="48.71274" lon="1.69591">
        <ele>152.19999694824</ele>
        <time>2011-10-08T08:24:05.000Z</time>
      </trkpt>
      <trkpt lat="48.71275" lon="1.69578">
        <ele>152.19999694824</ele>
        <time>2011-10-08T08:24:10.000Z</time>
      </trkpt>
      <trkpt lat="48.71276" lon="1.6957">
        <ele>152</ele>
        <time>2011-10-08T08:24:14.000Z</time>
      </trkpt>
      <trkpt lat="48.71277" lon="1.69556">
        <ele>151.39999389648</ele>
        <time>2011-10-08T08:24:21.000Z</time>
      </trkpt>
      <trkpt lat="48.71276" lon="1.69541">
        <ele>151</ele>
        <time>2011-10-08T08:24:29.000Z</time>
      </trkpt>
      <trkpt lat="48.71279" lon="1.69524">
        <ele>150.19999694824</ele>
        <time>2011-10-08T08:24:34.000Z</time>
      </trkpt>
      <trkpt lat="48.71281" lon="1.69513">
        <ele>149.80000305176</ele>
        <time>2011-10-08T08:24:38.000Z</time>
      </trkpt>
      <trkpt lat="48.71282" lon="1.69509">
        <ele>149.39999389648</ele>
        <time>2011-10-08T08:24:40.000Z</time>
      </trkpt>
      <trkpt lat="48.71286" lon="1.69495">
        <ele>148.60000610352</ele>
        <time>2011-10-08T08:24:46.000Z</time>
      </trkpt>
      <trkpt lat="48.71289" lon="1.69479">
        <ele>147.19999694824</ele>
        <time>2011-10-08T08:24:53.000Z</time>
      </trkpt>
      <trkpt lat="48.7129" lon="1.69464">
        <ele>146.19999694824</ele>
        <time>2011-10-08T08:24:59.000Z</time>
      </trkpt>
      <trkpt lat="48.71294" lon="1.69447">
        <ele>144.80000305176</ele>
        <time>2011-10-08T08:25:06.000Z</time>
      </trkpt>
      <trkpt lat="48.71297" lon="1.69423">
        <ele>143</ele>
        <time>2011-10-08T08:25:15.000Z</time>
      </trkpt>
      <trkpt lat="48.71302" lon="1.69402">
        <ele>142</ele>
        <time>2011-10-08T08:25:23.000Z</time>
      </trkpt>
      <trkpt lat="48.71307" lon="1.69384">
        <ele>141</ele>
        <time>2011-10-08T08:25:30.000Z</time>
      </trkpt>
      <trkpt lat="48.7131" lon="1.69367">
        <ele>140.39999389648</ele>
        <time>2011-10-08T08:25:37.000Z</time>
      </trkpt>
      <trkpt lat="48.71312" lon="1.69353">
        <ele>139.60000610352</ele>
        <time>2011-10-08T08:25:42.000Z</time>
      </trkpt>
      <trkpt lat="48.71313" lon="1.69343">
        <ele>139.19999694824</ele>
        <time>2011-10-08T08:25:46.000Z</time>
      </trkpt>
      <trkpt lat="48.71319" lon="1.69322">
        <ele>138.60000610352</ele>
        <time>2011-10-08T08:25:55.000Z</time>
      </trkpt>
      <trkpt lat="48.71322" lon="1.69308">
        <ele>138.39999389648</ele>
        <time>2011-10-08T08:26:01.000Z</time>
      </trkpt>
      <trkpt lat="48.71325" lon="1.69291">
        <ele>138.60000610352</ele>
        <time>2011-10-08T08:26:07.000Z</time>
      </trkpt>
      <trkpt lat="48.71327" lon="1.69275">
        <ele>138.80000305176</ele>
        <time>2011-10-08T08:26:13.000Z</time>
      </trkpt>
      <trkpt lat="48.71329" lon="1.69257">
        <ele>139</ele>
        <time>2011-10-08T08:26:20.000Z</time>
      </trkpt>
      <trkpt lat="48.71331" lon="1.69232">
        <ele>138.60000610352</ele>
        <time>2011-10-08T08:26:28.000Z</time>
      </trkpt>
      <trkpt lat="48.71334" lon="1.69212">
        <ele>138</ele>
        <time>2011-10-08T08:26:35.000Z</time>
      </trkpt>
      <trkpt lat="48.71334" lon="1.69198">
        <ele>137.60000610352</ele>
        <time>2011-10-08T08:26:40.000Z</time>
      </trkpt>
      <trkpt lat="48.71336" lon="1.6918">
        <ele>137.19999694824</ele>
        <time>2011-10-08T08:26:46.000Z</time>
      </trkpt>
      <trkpt lat="48.71339" lon="1.69158">
        <ele>137.19999694824</ele>
        <time>2011-10-08T08:26:54.000Z</time>
      </trkpt>
      <trkpt lat="48.71345" lon="1.69134">
        <ele>138.39999389648</ele>
        <time>2011-10-08T08:27:03.000Z</time>
      </trkpt>
      <trkpt lat="48.7135" lon="1.6912">
        <ele>139</ele>
        <time>2011-10-08T08:27:09.000Z</time>
      </trkpt>
      <trkpt lat="48.71354" lon="1.69106">
        <ele>139.60000610352</ele>
        <time>2011-10-08T08:27:15.000Z</time>
      </trkpt>
      <trkpt lat="48.71357" lon="1.69095">
        <ele>140</ele>
        <time>2011-10-08T08:27:19.000Z</time>
      </trkpt>
      <trkpt lat="48.71361" lon="1.69075">
        <ele>140.60000610352</ele>
        <time>2011-10-08T08:27:27.000Z</time>
      </trkpt>
      <trkpt lat="48.7137" lon="1.69057">
        <ele>140.60000610352</ele>
        <time>2011-10-08T08:27:36.000Z</time>
      </trkpt>
      <trkpt lat="48.71378" lon="1.6904">
        <ele>140.39999389648</ele>
        <time>2011-10-08T08:27:44.000Z</time>
      </trkpt>
      <trkpt lat="48.71387" lon="1.69023">
        <ele>140</ele>
        <time>2011-10-08T08:27:52.000Z</time>
      </trkpt>
      <trkpt lat="48.71394" lon="1.6901">
        <ele>139.60000610352</ele>
        <time>2011-10-08T08:28:00.000Z</time>
      </trkpt>
      <trkpt lat="48.71396" lon="1.69007">
        <ele>139.39999389648</ele>
        <time>2011-10-08T08:28:03.000Z</time>
      </trkpt>
      <trkpt lat="48.714" lon="1.68998">
        <ele>139.19999694824</ele>
        <time>2011-10-08T08:28:11.000Z</time>
      </trkpt>
      <trkpt lat="48.71409" lon="1.68981">
        <ele>138.60000610352</ele>
        <time>2011-10-08T08:28:20.000Z</time>
      </trkpt>
      <trkpt lat="48.71417" lon="1.68967">
        <ele>138</ele>
        <time>2011-10-08T08:28:28.000Z</time>
      </trkpt>
      <trkpt lat="48.71424" lon="1.68946">
        <ele>138.19999694824</ele>
        <time>2011-10-08T08:28:37.000Z</time>
      </trkpt>
      <trkpt lat="48.71431" lon="1.68931">
        <ele>137.80000305176</ele>
        <time>2011-10-08T08:28:45.000Z</time>
      </trkpt>
      <trkpt lat="48.7144" lon="1.68917">
        <ele>137.39999389648</ele>
        <time>2011-10-08T08:28:54.000Z</time>
      </trkpt>
      <trkpt lat="48.71441" lon="1.68915">
        <ele>137.39999389648</ele>
        <time>2011-10-08T08:28:55.000Z</time>
      </trkpt>
      <trkpt lat="48.71448" lon="1.68901">
        <ele>137</ele>
        <time>2011-10-08T08:29:02.000Z</time>
      </trkpt>
      <trkpt lat="48.71451" lon="1.68893">
        <ele>137</ele>
        <time>2011-10-08T08:29:06.000Z</time>
      </trkpt>
      <trkpt lat="48.71455" lon="1.68884">
        <ele>136.80000305176</ele>
        <time>2011-10-08T08:29:11.000Z</time>
      </trkpt>
      <trkpt lat="48.71459" lon="1.68876">
        <ele>136.60000610352</ele>
        <time>2011-10-08T08:29:15.000Z</time>
      </trkpt>
      <trkpt lat="48.71462" lon="1.68867">
        <ele>136.39999389648</ele>
        <time>2011-10-08T08:29:20.000Z</time>
      </trkpt>
      <trkpt lat="48.71467" lon="1.68855">
        <ele>136.19999694824</ele>
        <time>2011-10-08T08:29:26.000Z</time>
      </trkpt>
      <trkpt lat="48.71474" lon="1.68839">
        <ele>135.80000305176</ele>
        <time>2011-10-08T08:29:35.000Z</time>
      </trkpt>
      <trkpt lat="48.7148" lon="1.68821">
        <ele>136</ele>
        <time>2011-10-08T08:29:45.000Z</time>
      </trkpt>
      <trkpt lat="48.71485" lon="1.68803">
        <ele>136.39999389648</ele>
        <time>2011-10-08T08:29:54.000Z</time>
      </trkpt>
      <trkpt lat="48.7149" lon="1.68785">
        <ele>137</ele>
        <time>2011-10-08T08:30:03.000Z</time>
      </trkpt>
      <trkpt lat="48.7149" lon="1.68783">
        <ele>137</ele>
        <time>2011-10-08T08:30:04.000Z</time>
      </trkpt>
      <trkpt lat="48.71492" lon="1.6877">
        <ele>137.60000610352</ele>
        <time>2011-10-08T08:30:10.000Z</time>
      </trkpt>
      <trkpt lat="48.71494" lon="1.68758">
        <ele>138</ele>
        <time>2011-10-08T08:30:16.000Z</time>
      </trkpt>
      <trkpt lat="48.71496" lon="1.68746">
        <ele>138.19999694824</ele>
        <time>2011-10-08T08:30:22.000Z</time>
      </trkpt>
      <trkpt lat="48.71498" lon="1.68742">
        <ele>138.19999694824</ele>
        <time>2011-10-08T08:30:24.000Z</time>
      </trkpt>
      <trkpt lat="48.715" lon="1.68727">
        <ele>137.80000305176</ele>
        <time>2011-10-08T08:30:31.000Z</time>
      </trkpt>
      <trkpt lat="48.71503" lon="1.68709">
        <ele>137.60000610352</ele>
        <time>2011-10-08T08:30:39.000Z</time>
      </trkpt>
      <trkpt lat="48.71507" lon="1.68689">
        <ele>137.39999389648</ele>
        <time>2011-10-08T08:30:48.000Z</time>
      </trkpt>
      <trkpt lat="48.7151" lon="1.68664">
        <ele>137.19999694824</ele>
        <time>2011-10-08T08:30:58.000Z</time>
      </trkpt>
      <trkpt lat="48.71512" lon="1.68645">
        <ele>136.80000305176</ele>
        <time>2011-10-08T08:31:06.000Z</time>
      </trkpt>
      <trkpt lat="48.71518" lon="1.68643">
        <ele>136.39999389648</ele>
        <time>2011-10-08T08:31:10.000Z</time>
      </trkpt>
      <trkpt lat="48.71527" lon="1.68644">
        <ele>135.80000305176</ele>
        <time>2011-10-08T08:31:16.000Z</time>
      </trkpt>
      <trkpt lat="48.71539" lon="1.68648">
        <ele>135.19999694824</ele>
        <time>2011-10-08T08:31:23.000Z</time>
      </trkpt>
      <trkpt lat="48.71547" lon="1.6865">
        <ele>134.60000610352</ele>
        <time>2011-10-08T08:31:28.000Z</time>
      </trkpt>
      <trkpt lat="48.71554" lon="1.68652">
        <ele>134.19999694824</ele>
        <time>2011-10-08T08:31:32.000Z</time>
      </trkpt>
      <trkpt lat="48.71563" lon="1.68648">
        <ele>133.60000610352</ele>
        <time>2011-10-08T08:31:38.000Z</time>
      </trkpt>
      <trkpt lat="48.71571" lon="1.68643">
        <ele>132.80000305176</ele>
        <time>2011-10-08T08:31:44.000Z</time>
      </trkpt>
      <trkpt lat="48.71574" lon="1.68643">
        <ele>132.60000610352</ele>
        <time>2011-10-08T08:31:46.000Z</time>
      </trkpt>
      <trkpt lat="48.71577" lon="1.68647">
        <ele>132.60000610352</ele>
        <time>2011-10-08T08:31:51.000Z</time>
      </trkpt>
      <trkpt lat="48.71577" lon="1.68647">
        <ele>132.60000610352</ele>
        <time>2011-10-08T08:31:52.000Z</time>
      </trkpt>
      <trkpt lat="48.71571" lon="1.68646">
        <ele>133</ele>
        <time>2011-10-08T08:51:31.000Z</time>
      </trkpt>
      <trkpt lat="48.71571" lon="1.68648">
        <ele>133</ele>
        <time>2011-10-08T08:51:40.000Z</time>
      </trkpt>
      <trkpt lat="48.71573" lon="1.68649">
        <ele>133</ele>
        <time>2011-10-08T08:56:24.000Z</time>
      </trkpt>
      <trkpt lat="48.7157" lon="1.68646">
        <ele>133</ele>
        <time>2011-10-08T08:56:26.000Z</time>
      </trkpt>
      <trkpt lat="48.7157" lon="1.68646">
        <ele>133</ele>
        <time>2011-10-08T08:56:27.000Z</time>
      </trkpt>
      <trkpt lat="48.71566" lon="1.68645">
        <ele>133.19999694824</ele>
        <time>2011-10-08T08:56:34.000Z</time>
      </trkpt>
      <trkpt lat="48.71566" lon="1.68644">
        <ele>133.19999694824</ele>
        <time>2011-10-08T08:56:35.000Z</time>
      </trkpt>
      <trkpt lat="48.7155" lon="1.6865">
        <ele>134.39999389648</ele>
        <time>2011-10-08T08:57:04.000Z</time>
      </trkpt>
      <trkpt lat="48.7154" lon="1.68649">
        <ele>135</ele>
        <time>2011-10-08T08:57:10.000Z</time>
      </trkpt>
      <trkpt lat="48.71539" lon="1.68649">
        <ele>135.19999694824</ele>
        <time>2011-10-08T08:57:11.000Z</time>
      </trkpt>
      <trkpt lat="48.71529" lon="1.68646">
        <ele>135.80000305176</ele>
        <time>2011-10-08T08:57:19.000Z</time>
      </trkpt>
      <trkpt lat="48.71518" lon="1.68643">
        <ele>136.39999389648</ele>
        <time>2011-10-08T08:57:27.000Z</time>
      </trkpt>
      <trkpt lat="48.71511" lon="1.68647">
        <ele>137</ele>
        <time>2011-10-08T08:57:34.000Z</time>
      </trkpt>
      <trkpt lat="48.71509" lon="1.68656">
        <ele>137.19999694824</ele>
        <time>2011-10-08T08:57:40.000Z</time>
      </trkpt>
      <trkpt lat="48.7151" lon="1.68655">
        <ele>137.19999694824</ele>
        <time>2011-10-08T08:57:44.000Z</time>
      </trkpt>
      <trkpt lat="48.71507" lon="1.68681">
        <ele>137.39999389648</ele>
        <time>2011-10-08T08:59:13.000Z</time>
      </trkpt>
      <trkpt lat="48.71505" lon="1.68691">
        <ele>137.60000610352</ele>
        <time>2011-10-08T08:59:17.000Z</time>
      </trkpt>
      <trkpt lat="48.71504" lon="1.68704">
        <ele>137.60000610352</ele>
        <time>2011-10-08T08:59:24.000Z</time>
      </trkpt>
      <trkpt lat="48.71504" lon="1.68706">
        <ele>137.60000610352</ele>
        <time>2011-10-08T08:59:25.000Z</time>
      </trkpt>
      <trkpt lat="48.71502" lon="1.68723">
        <ele>137.80000305176</ele>
        <time>2011-10-08T08:59:34.000Z</time>
      </trkpt>
      <trkpt lat="48.715" lon="1.68739">
        <ele>137.80000305176</ele>
        <time>2011-10-08T08:59:43.000Z</time>
      </trkpt>
      <trkpt lat="48.71497" lon="1.68751">
        <ele>138.19999694824</ele>
        <time>2011-10-08T08:59:51.000Z</time>
      </trkpt>
      <trkpt lat="48.71495" lon="1.68762">
        <ele>137.60000610352</ele>
        <time>2011-10-08T08:59:58.000Z</time>
      </trkpt>
      <trkpt lat="48.71494" lon="1.68775">
        <ele>137</ele>
        <time>2011-10-08T09:00:05.000Z</time>
      </trkpt>
      <trkpt lat="48.71492" lon="1.68776">
        <ele>137.19999694824</ele>
        <time>2011-10-08T09:00:09.000Z</time>
      </trkpt>
      <trkpt lat="48.7148" lon="1.6877">
        <ele>139</ele>
        <time>2011-10-08T09:00:42.000Z</time>
      </trkpt>
      <trkpt lat="48.71471" lon="1.6876">
        <ele>140.39999389648</ele>
        <time>2011-10-08T09:00:49.000Z</time>
      </trkpt>
      <trkpt lat="48.71465" lon="1.68752">
        <ele>141.39999389648</ele>
        <time>2011-10-08T09:00:54.000Z</time>
      </trkpt>
      <trkpt lat="48.71458" lon="1.68744">
        <ele>142.39999389648</ele>
        <time>2011-10-08T09:01:00.000Z</time>
      </trkpt>
      <trkpt lat="48.71451" lon="1.68739">
        <ele>143.19999694824</ele>
        <time>2011-10-08T09:01:06.000Z</time>
      </trkpt>
      <trkpt lat="48.71446" lon="1.68737">
        <ele>143.60000610352</ele>
        <time>2011-10-08T09:01:09.000Z</time>
      </trkpt>
      <trkpt lat="48.71437" lon="1.68729">
        <ele>144.60000610352</ele>
        <time>2011-10-08T09:01:17.000Z</time>
      </trkpt>
      <trkpt lat="48.71429" lon="1.68719">
        <ele>145.19999694824</ele>
        <time>2011-10-08T09:01:25.000Z</time>
      </trkpt>
      <trkpt lat="48.71421" lon="1.68707">
        <ele>146</ele>
        <time>2011-10-08T09:01:33.000Z</time>
      </trkpt>
      <trkpt lat="48.7141" lon="1.68696">
        <ele>146.80000305176</ele>
        <time>2011-10-08T09:01:42.000Z</time>
      </trkpt>
      <trkpt lat="48.71403" lon="1.6869">
        <ele>147.39999389648</ele>
        <time>2011-10-08T09:01:48.000Z</time>
      </trkpt>
      <trkpt lat="48.71399" lon="1.68686">
        <ele>147.80000305176</ele>
        <time>2011-10-08T09:01:51.000Z</time>
      </trkpt>
      <trkpt lat="48.71392" lon="1.68679">
        <ele>148.39999389648</ele>
        <time>2011-10-08T09:01:58.000Z</time>
      </trkpt>
      <trkpt lat="48.71386" lon="1.68672">
        <ele>148.80000305176</ele>
        <time>2011-10-08T09:02:03.000Z</time>
      </trkpt>
      <trkpt lat="48.71385" lon="1.68671">
        <ele>149</ele>
        <time>2011-10-08T09:02:04.000Z</time>
      </trkpt>
      <trkpt lat="48.71376" lon="1.68664">
        <ele>149.80000305176</ele>
        <time>2011-10-08T09:02:11.000Z</time>
      </trkpt>
      <trkpt lat="48.71368" lon="1.68659">
        <ele>150.39999389648</ele>
        <time>2011-10-08T09:02:16.000Z</time>
      </trkpt>
      <trkpt lat="48.71362" lon="1.68653">
        <ele>151</ele>
        <time>2011-10-08T09:02:21.000Z</time>
      </trkpt>
      <trkpt lat="48.71361" lon="1.68652">
        <ele>151</ele>
        <time>2011-10-08T09:02:22.000Z</time>
      </trkpt>
      <trkpt lat="48.71353" lon="1.68644">
        <ele>151.60000610352</ele>
        <time>2011-10-08T09:02:29.000Z</time>
      </trkpt>
      <trkpt lat="48.71346" lon="1.68637">
        <ele>152</ele>
        <time>2011-10-08T09:02:35.000Z</time>
      </trkpt>
      <trkpt lat="48.71339" lon="1.68627">
        <ele>152.39999389648</ele>
        <time>2011-10-08T09:02:42.000Z</time>
      </trkpt>
      <trkpt lat="48.71332" lon="1.68622">
        <ele>153</ele>
        <time>2011-10-08T09:02:48.000Z</time>
      </trkpt>
      <trkpt lat="48.71325" lon="1.6861">
        <ele>153.80000305176</ele>
        <time>2011-10-08T09:02:56.000Z</time>
      </trkpt>
      <trkpt lat="48.71325" lon="1.68608">
        <ele>153.80000305176</ele>
        <time>2011-10-08T09:02:57.000Z</time>
      </trkpt>
      <trkpt lat="48.71324" lon="1.68605">
        <ele>153.80000305176</ele>
        <time>2011-10-08T09:03:00.000Z</time>
      </trkpt>
      <trkpt lat="48.71324" lon="1.68597">
        <ele>153.60000610352</ele>
        <time>2011-10-08T09:03:03.000Z</time>
      </trkpt>
      <trkpt lat="48.71315" lon="1.68597">
        <ele>155</ele>
        <time>2011-10-08T09:03:11.000Z</time>
      </trkpt>
      <trkpt lat="48.71312" lon="1.686">
        <ele>155.39999389648</ele>
        <time>2011-10-08T09:03:15.000Z</time>
      </trkpt>
      <trkpt lat="48.71312" lon="1.68599">
        <ele>155.39999389648</ele>
        <time>2011-10-08T09:03:16.000Z</time>
      </trkpt>
      <trkpt lat="48.71307" lon="1.68604">
        <ele>156.39999389648</ele>
        <time>2011-10-08T09:03:32.000Z</time>
      </trkpt>
      <trkpt lat="48.71302" lon="1.68608">
        <ele>157.19999694824</ele>
        <time>2011-10-08T09:03:34.000Z</time>
      </trkpt>
      <trkpt lat="48.71299" lon="1.68609">
        <ele>157.80000305176</ele>
        <time>2011-10-08T09:03:37.000Z</time>
      </trkpt>
      <trkpt lat="48.71294" lon="1.6861">
        <ele>158.60000610352</ele>
        <time>2011-10-08T09:03:43.000Z</time>
      </trkpt>
      <trkpt lat="48.71286" lon="1.68608">
        <ele>159.60000610352</ele>
        <time>2011-10-08T09:03:50.000Z</time>
      </trkpt>
      <trkpt lat="48.71284" lon="1.68607">
        <ele>159.80000305176</ele>
        <time>2011-10-08T09:03:52.000Z</time>
      </trkpt>
      <trkpt lat="48.71279" lon="1.68605">
        <ele>160.60000610352</ele>
        <time>2011-10-08T09:03:56.000Z</time>
      </trkpt>
      <trkpt lat="48.7127" lon="1.68603">
        <ele>161.80000305176</ele>
        <time>2011-10-08T09:04:03.000Z</time>
      </trkpt>
      <trkpt lat="48.71268" lon="1.686">
        <ele>162</ele>
        <time>2011-10-08T09:04:06.000Z</time>
      </trkpt>
      <trkpt lat="48.71263" lon="1.68599">
        <ele>162.80000305176</ele>
        <time>2011-10-08T09:04:10.000Z</time>
      </trkpt>
      <trkpt lat="48.71261" lon="1.68599">
        <ele>163</ele>
        <time>2011-10-08T09:04:13.000Z</time>
      </trkpt>
      <trkpt lat="48.7125" lon="1.68599">
        <ele>164.60000610352</ele>
        <time>2011-10-08T09:04:21.000Z</time>
      </trkpt>
      <trkpt lat="48.71243" lon="1.68603">
        <ele>166.19999694824</ele>
        <time>2011-10-08T09:04:28.000Z</time>
      </trkpt>
      <trkpt lat="48.71236" lon="1.68613">
        <ele>167.80000305176</ele>
        <time>2011-10-08T09:04:34.000Z</time>
      </trkpt>
      <trkpt lat="48.71235" lon="1.68623">
        <ele>168.39999389648</ele>
        <time>2011-10-08T09:04:40.000Z</time>
      </trkpt>
      <trkpt lat="48.7123" lon="1.68632">
        <ele>169.60000610352</ele>
        <time>2011-10-08T09:04:46.000Z</time>
      </trkpt>
      <trkpt lat="48.71228" lon="1.68642">
        <ele>170.19999694824</ele>
        <time>2011-10-08T09:04:52.000Z</time>
      </trkpt>
      <trkpt lat="48.71226" lon="1.68654">
        <ele>171.19999694824</ele>
        <time>2011-10-08T09:04:58.000Z</time>
      </trkpt>
      <trkpt lat="48.71224" lon="1.68668">
        <ele>172</ele>
        <time>2011-10-08T09:05:05.000Z</time>
      </trkpt>
      <trkpt lat="48.71223" lon="1.68679">
        <ele>172</ele>
        <time>2011-10-08T09:05:10.000Z</time>
      </trkpt>
      <trkpt lat="48.71216" lon="1.68689">
        <ele>172.80000305176</ele>
        <time>2011-10-08T09:05:16.000Z</time>
      </trkpt>
      <trkpt lat="48.71213" lon="1.68693">
        <ele>173.19999694824</ele>
        <time>2011-10-08T09:05:19.000Z</time>
      </trkpt>
      <trkpt lat="48.71204" lon="1.68703">
        <ele>174.39999389648</ele>
        <time>2011-10-08T09:05:26.000Z</time>
      </trkpt>
      <trkpt lat="48.71198" lon="1.68709">
        <ele>175.19999694824</ele>
        <time>2011-10-08T09:05:31.000Z</time>
      </trkpt>
      <trkpt lat="48.7119" lon="1.68719">
        <ele>176.39999389648</ele>
        <time>2011-10-08T09:05:37.000Z</time>
      </trkpt>
      <trkpt lat="48.71184" lon="1.68727">
        <ele>177.19999694824</ele>
        <time>2011-10-08T09:05:42.000Z</time>
      </trkpt>
      <trkpt lat="48.71174" lon="1.68736">
        <ele>179</ele>
        <time>2011-10-08T09:05:49.000Z</time>
      </trkpt>
      <trkpt lat="48.7117" lon="1.6874">
        <ele>179.60000610352</ele>
        <time>2011-10-08T09:05:54.000Z</time>
      </trkpt>
      <trkpt lat="48.71165" lon="1.68745">
        <ele>180</ele>
        <time>2011-10-08T09:06:00.000Z</time>
      </trkpt>
      <trkpt lat="48.71156" lon="1.68754">
        <ele>180.39999389648</ele>
        <time>2011-10-08T09:06:07.000Z</time>
      </trkpt>
      <trkpt lat="48.71148" lon="1.68763">
        <ele>180.39999389648</ele>
        <time>2011-10-08T09:06:14.000Z</time>
      </trkpt>
      <trkpt lat="48.71147" lon="1.68764">
        <ele>180.39999389648</ele>
        <time>2011-10-08T09:06:15.000Z</time>
      </trkpt>
      <trkpt lat="48.71141" lon="1.68773">
        <ele>180.60000610352</ele>
        <time>2011-10-08T09:06:21.000Z</time>
      </trkpt>
      <trkpt lat="48.7113" lon="1.68785">
        <ele>181</ele>
        <time>2011-10-08T09:06:30.000Z</time>
      </trkpt>
      <trkpt lat="48.71122" lon="1.68797">
        <ele>181.60000610352</ele>
        <time>2011-10-08T09:06:37.000Z</time>
      </trkpt>
      <trkpt lat="48.71115" lon="1.68805">
        <ele>182.19999694824</ele>
        <time>2011-10-08T09:06:43.000Z</time>
      </trkpt>
      <trkpt lat="48.7111" lon="1.68812">
        <ele>182.60000610352</ele>
        <time>2011-10-08T09:06:49.000Z</time>
      </trkpt>
      <trkpt lat="48.71106" lon="1.68818">
        <ele>183</ele>
        <time>2011-10-08T09:06:53.000Z</time>
      </trkpt>
      <trkpt lat="48.71105" lon="1.68825">
        <ele>183</ele>
        <time>2011-10-08T09:06:56.000Z</time>
      </trkpt>
      <trkpt lat="48.711" lon="1.68836">
        <ele>183.60000610352</ele>
        <time>2011-10-08T09:07:01.000Z</time>
      </trkpt>
      <trkpt lat="48.71097" lon="1.68846">
        <ele>183.80000305176</ele>
        <time>2011-10-08T09:07:05.000Z</time>
      </trkpt>
      <trkpt lat="48.71091" lon="1.68859">
        <ele>184.39999389648</ele>
        <time>2011-10-08T09:07:11.000Z</time>
      </trkpt>
      <trkpt lat="48.71089" lon="1.68874">
        <ele>184.60000610352</ele>
        <time>2011-10-08T09:07:18.000Z</time>
      </trkpt>
      <trkpt lat="48.71087" lon="1.68887">
        <ele>184.60000610352</ele>
        <time>2011-10-08T09:07:24.000Z</time>
      </trkpt>
      <trkpt lat="48.71083" lon="1.68903">
        <ele>185</ele>
        <time>2011-10-08T09:07:32.000Z</time>
      </trkpt>
      <trkpt lat="48.71079" lon="1.68917">
        <ele>185.19999694824</ele>
        <time>2011-10-08T09:07:38.000Z</time>
      </trkpt>
      <trkpt lat="48.71079" lon="1.68924">
        <ele>184.80000305176</ele>
        <time>2011-10-08T09:07:41.000Z</time>
      </trkpt>
      <trkpt lat="48.71078" lon="1.68935">
        <ele>184.39999389648</ele>
        <time>2011-10-08T09:07:46.000Z</time>
      </trkpt>
      <trkpt lat="48.71076" lon="1.68956">
        <ele>183.60000610352</ele>
        <time>2011-10-08T09:07:54.000Z</time>
      </trkpt>
      <trkpt lat="48.71072" lon="1.68971">
        <ele>183.19999694824</ele>
        <time>2011-10-08T09:08:01.000Z</time>
      </trkpt>
      <trkpt lat="48.71071" lon="1.68975">
        <ele>183.19999694824</ele>
        <time>2011-10-08T09:08:03.000Z</time>
      </trkpt>
      <trkpt lat="48.71065" lon="1.68988">
        <ele>183.19999694824</ele>
        <time>2011-10-08T09:08:09.000Z</time>
      </trkpt>
      <trkpt lat="48.71061" lon="1.68994">
        <ele>183.19999694824</ele>
        <time>2011-10-08T09:08:13.000Z</time>
      </trkpt>
      <trkpt lat="48.71056" lon="1.69004">
        <ele>183.19999694824</ele>
        <time>2011-10-08T09:08:19.000Z</time>
      </trkpt>
      <trkpt lat="48.71051" lon="1.69013">
        <ele>183.19999694824</ele>
        <time>2011-10-08T09:08:25.000Z</time>
      </trkpt>
      <trkpt lat="48.71046" lon="1.69022">
        <ele>183.39999389648</ele>
        <time>2011-10-08T09:08:31.000Z</time>
      </trkpt>
      <trkpt lat="48.71039" lon="1.69031">
        <ele>183.39999389648</ele>
        <time>2011-10-08T09:08:37.000Z</time>
      </trkpt>
      <trkpt lat="48.71031" lon="1.69044">
        <ele>183.60000610352</ele>
        <time>2011-10-08T09:08:46.000Z</time>
      </trkpt>
      <trkpt lat="48.7103" lon="1.69045">
        <ele>183.60000610352</ele>
        <time>2011-10-08T09:08:47.000Z</time>
      </trkpt>
      <trkpt lat="48.71024" lon="1.69054">
        <ele>183.80000305176</ele>
        <time>2011-10-08T09:08:52.000Z</time>
      </trkpt>
      <trkpt lat="48.71017" lon="1.69063">
        <ele>184</ele>
        <time>2011-10-08T09:08:58.000Z</time>
      </trkpt>
      <trkpt lat="48.7101" lon="1.69076">
        <ele>184.19999694824</ele>
        <time>2011-10-08T09:09:05.000Z</time>
      </trkpt>
      <trkpt lat="48.71004" lon="1.69086">
        <ele>184.39999389648</ele>
        <time>2011-10-08T09:09:10.000Z</time>
      </trkpt>
      <trkpt lat="48.70997" lon="1.69097">
        <ele>184.39999389648</ele>
        <time>2011-10-08T09:09:16.000Z</time>
      </trkpt>
      <trkpt lat="48.70995" lon="1.69099">
        <ele>184.19999694824</ele>
        <time>2011-10-08T09:09:18.000Z</time>
      </trkpt>
      <trkpt lat="48.70986" lon="1.69115">
        <ele>183.80000305176</ele>
        <time>2011-10-08T09:09:26.000Z</time>
      </trkpt>
      <trkpt lat="48.70982" lon="1.69119">
        <ele>183.60000610352</ele>
        <time>2011-10-08T09:09:28.000Z</time>
      </trkpt>
      <trkpt lat="48.70976" lon="1.69125">
        <ele>183.60000610352</ele>
        <time>2011-10-08T09:09:33.000Z</time>
      </trkpt>
      <trkpt lat="48.70967" lon="1.69138">
        <ele>183.39999389648</ele>
        <time>2011-10-08T09:09:41.000Z</time>
      </trkpt>
      <trkpt lat="48.70964" lon="1.69144">
        <ele>183.39999389648</ele>
        <time>2011-10-08T09:09:44.000Z</time>
      </trkpt>
      <trkpt lat="48.70955" lon="1.69155">
        <ele>183.39999389648</ele>
        <time>2011-10-08T09:09:52.000Z</time>
      </trkpt>
      <trkpt lat="48.70951" lon="1.69162">
        <ele>183.39999389648</ele>
        <time>2011-10-08T09:09:57.000Z</time>
      </trkpt>
      <trkpt lat="48.70942" lon="1.69175">
        <ele>183.19999694824</ele>
        <time>2011-10-08T09:10:06.000Z</time>
      </trkpt>
      <trkpt lat="48.7094" lon="1.69183">
        <ele>183</ele>
        <time>2011-10-08T09:10:10.000Z</time>
      </trkpt>
      <trkpt lat="48.70936" lon="1.69189">
        <ele>183</ele>
        <time>2011-10-08T09:10:16.000Z</time>
      </trkpt>
      <trkpt lat="48.7093" lon="1.69192">
        <ele>183</ele>
        <time>2011-10-08T09:10:24.000Z</time>
      </trkpt>
      <trkpt lat="48.70921" lon="1.69191">
        <ele>183.60000610352</ele>
        <time>2011-10-08T09:10:29.000Z</time>
      </trkpt>
      <trkpt lat="48.70907" lon="1.69185">
        <ele>184</ele>
        <time>2011-10-08T09:10:39.000Z</time>
      </trkpt>
      <trkpt lat="48.70893" lon="1.69178">
        <ele>184.39999389648</ele>
        <time>2011-10-08T09:10:48.000Z</time>
      </trkpt>
      <trkpt lat="48.70873" lon="1.69171">
        <ele>184.80000305176</ele>
        <time>2011-10-08T09:11:01.000Z</time>
      </trkpt>
      <trkpt lat="48.70863" lon="1.69167">
        <ele>184.80000305176</ele>
        <time>2011-10-08T09:11:08.000Z</time>
      </trkpt>
      <trkpt lat="48.70852" lon="1.69163">
        <ele>185</ele>
        <time>2011-10-08T09:11:15.000Z</time>
      </trkpt>
      <trkpt lat="48.70839" lon="1.69157">
        <ele>185.39999389648</ele>
        <time>2011-10-08T09:11:23.000Z</time>
      </trkpt>
      <trkpt lat="48.70826" lon="1.69151">
        <ele>185.80000305176</ele>
        <time>2011-10-08T09:11:31.000Z</time>
      </trkpt>
      <trkpt lat="48.70811" lon="1.69146">
        <ele>186.60000610352</ele>
        <time>2011-10-08T09:11:40.000Z</time>
      </trkpt>
      <trkpt lat="48.70797" lon="1.6914">
        <ele>187.19999694824</ele>
        <time>2011-10-08T09:11:49.000Z</time>
      </trkpt>
      <trkpt lat="48.70794" lon="1.6914">
        <ele>187.39999389648</ele>
        <time>2011-10-08T09:11:51.000Z</time>
      </trkpt>
      <trkpt lat="48.70793" lon="1.6914">
        <ele>187.39999389648</ele>
        <time>2011-10-08T09:11:54.000Z</time>
      </trkpt>
      <trkpt lat="48.70788" lon="1.6914">
        <ele>187.39999389648</ele>
        <time>2011-10-08T09:12:10.000Z</time>
      </trkpt>
      <trkpt lat="48.70786" lon="1.69139">
        <ele>187.60000610352</ele>
        <time>2011-10-08T09:12:14.000Z</time>
      </trkpt>
      <trkpt lat="48.70779" lon="1.69133">
        <ele>187.80000305176</ele>
        <time>2011-10-08T09:12:36.000Z</time>
      </trkpt>
      <trkpt lat="48.70772" lon="1.69131">
        <ele>188</ele>
        <time>2011-10-08T09:12:41.000Z</time>
      </trkpt>
      <trkpt lat="48.70763" lon="1.69129">
        <ele>188.19999694824</ele>
        <time>2011-10-08T09:12:46.000Z</time>
      </trkpt>
      <trkpt lat="48.70754" lon="1.69124">
        <ele>188.39999389648</ele>
        <time>2011-10-08T09:12:51.000Z</time>
      </trkpt>
      <trkpt lat="48.70745" lon="1.69119">
        <ele>188.39999389648</ele>
        <time>2011-10-08T09:12:57.000Z</time>
      </trkpt>
      <trkpt lat="48.70734" lon="1.69115">
        <ele>188.19999694824</ele>
        <time>2011-10-08T09:13:04.000Z</time>
      </trkpt>
      <trkpt lat="48.70722" lon="1.6911">
        <ele>188.19999694824</ele>
        <time>2011-10-08T09:13:11.000Z</time>
      </trkpt>
      <trkpt lat="48.70713" lon="1.69106">
        <ele>188</ele>
        <time>2011-10-08T09:13:16.000Z</time>
      </trkpt>
      <trkpt lat="48.70699" lon="1.69099">
        <ele>187.80000305176</ele>
        <time>2011-10-08T09:13:25.000Z</time>
      </trkpt>
      <trkpt lat="48.70693" lon="1.69096">
        <ele>187.60000610352</ele>
        <time>2011-10-08T09:13:29.000Z</time>
      </trkpt>
      <trkpt lat="48.70682" lon="1.69091">
        <ele>187.39999389648</ele>
        <time>2011-10-08T09:13:37.000Z</time>
      </trkpt>
      <trkpt lat="48.70681" lon="1.69091">
        <ele>187.39999389648</ele>
        <time>2011-10-08T09:13:38.000Z</time>
      </trkpt>
      <trkpt lat="48.7068" lon="1.69091">
        <ele>187.39999389648</ele>
        <time>2011-10-08T09:13:41.000Z</time>
      </trkpt>
      <trkpt lat="48.70675" lon="1.69088">
        <ele>187.19999694824</ele>
        <time>2011-10-08T09:13:47.000Z</time>
      </trkpt>
      <trkpt lat="48.70664" lon="1.6908">
        <ele>186.80000305176</ele>
        <time>2011-10-08T09:13:54.000Z</time>
      </trkpt>
      <trkpt lat="48.70652" lon="1.69075">
        <ele>187</ele>
        <time>2011-10-08T09:14:02.000Z</time>
      </trkpt>
      <trkpt lat="48.70644" lon="1.69072">
        <ele>187</ele>
        <time>2011-10-08T09:14:09.000Z</time>
      </trkpt>
      <trkpt lat="48.70632" lon="1.69066">
        <ele>186.80000305176</ele>
        <time>2011-10-08T09:14:17.000Z</time>
      </trkpt>
      <trkpt lat="48.70621" lon="1.69064">
        <ele>186.80000305176</ele>
        <time>2011-10-08T09:14:25.000Z</time>
      </trkpt>
      <trkpt lat="48.7062" lon="1.69064">
        <ele>186.80000305176</ele>
        <time>2011-10-08T09:14:27.000Z</time>
      </trkpt>
      <trkpt lat="48.70614" lon="1.69065">
        <ele>186.80000305176</ele>
        <time>2011-10-08T09:14:46.000Z</time>
      </trkpt>
      <trkpt lat="48.70604" lon="1.6906">
        <ele>186.80000305176</ele>
        <time>2011-10-08T09:14:52.000Z</time>
      </trkpt>
      <trkpt lat="48.70595" lon="1.69055">
        <ele>186.60000610352</ele>
        <time>2011-10-08T09:14:59.000Z</time>
      </trkpt>
      <trkpt lat="48.7058" lon="1.69049">
        <ele>186</ele>
        <time>2011-10-08T09:15:10.000Z</time>
      </trkpt>
      <trkpt lat="48.70569" lon="1.69043">
        <ele>185.19999694824</ele>
        <time>2011-10-08T09:15:18.000Z</time>
      </trkpt>
      <trkpt lat="48.70555" lon="1.69038">
        <ele>184</ele>
        <time>2011-10-08T09:15:28.000Z</time>
      </trkpt>
      <trkpt lat="48.70544" lon="1.69032">
        <ele>183.19999694824</ele>
        <time>2011-10-08T09:15:36.000Z</time>
      </trkpt>
      <trkpt lat="48.70533" lon="1.69028">
        <ele>182.39999389648</ele>
        <time>2011-10-08T09:15:43.000Z</time>
      </trkpt>
      <trkpt lat="48.70524" lon="1.69024">
        <ele>181.80000305176</ele>
        <time>2011-10-08T09:15:50.000Z</time>
      </trkpt>
      <trkpt lat="48.70512" lon="1.69018">
        <ele>181</ele>
        <time>2011-10-08T09:15:59.000Z</time>
      </trkpt>
      <trkpt lat="48.70496" lon="1.69012">
        <ele>179.80000305176</ele>
        <time>2011-10-08T09:16:10.000Z</time>
      </trkpt>
      <trkpt lat="48.70484" lon="1.69008">
        <ele>178.80000305176</ele>
        <time>2011-10-08T09:16:18.000Z</time>
      </trkpt>
      <trkpt lat="48.70471" lon="1.69002">
        <ele>177.60000610352</ele>
        <time>2011-10-08T09:16:27.000Z</time>
      </trkpt>
      <trkpt lat="48.70459" lon="1.68999">
        <ele>176.39999389648</ele>
        <time>2011-10-08T09:16:35.000Z</time>
      </trkpt>
      <trkpt lat="48.70445" lon="1.68994">
        <ele>175.19999694824</ele>
        <time>2011-10-08T09:16:44.000Z</time>
      </trkpt>
      <trkpt lat="48.70433" lon="1.6899">
        <ele>174</ele>
        <time>2011-10-08T09:16:52.000Z</time>
      </trkpt>
      <trkpt lat="48.70423" lon="1.68986">
        <ele>173.19999694824</ele>
        <time>2011-10-08T09:16:58.000Z</time>
      </trkpt>
      <trkpt lat="48.70421" lon="1.68984">
        <ele>172.80000305176</ele>
        <time>2011-10-08T09:17:00.000Z</time>
      </trkpt>
      <trkpt lat="48.70412" lon="1.68983">
        <ele>172.39999389648</ele>
        <time>2011-10-08T09:17:07.000Z</time>
      </trkpt>
      <trkpt lat="48.70412" lon="1.68984">
        <ele>172.39999389648</ele>
        <time>2011-10-08T09:17:09.000Z</time>
      </trkpt>
      <trkpt lat="48.70404" lon="1.68977">
        <ele>172</ele>
        <time>2011-10-08T09:17:34.000Z</time>
      </trkpt>
      <trkpt lat="48.70392" lon="1.68971">
        <ele>171.60000610352</ele>
        <time>2011-10-08T09:17:41.000Z</time>
      </trkpt>
      <trkpt lat="48.70383" lon="1.68968">
        <ele>171.39999389648</ele>
        <time>2011-10-08T09:17:47.000Z</time>
      </trkpt>
      <trkpt lat="48.70374" lon="1.68963">
        <ele>171</ele>
        <time>2011-10-08T09:17:53.000Z</time>
      </trkpt>
      <trkpt lat="48.70362" lon="1.68959">
        <ele>170.60000610352</ele>
        <time>2011-10-08T09:18:01.000Z</time>
      </trkpt>
      <trkpt lat="48.70361" lon="1.68958">
        <ele>170.60000610352</ele>
        <time>2011-10-08T09:18:02.000Z</time>
      </trkpt>
      <trkpt lat="48.70349" lon="1.68952">
        <ele>170.19999694824</ele>
        <time>2011-10-08T09:18:11.000Z</time>
      </trkpt>
      <trkpt lat="48.70338" lon="1.68947">
        <ele>169.80000305176</ele>
        <time>2011-10-08T09:18:18.000Z</time>
      </trkpt>
      <trkpt lat="48.70325" lon="1.68941">
        <ele>169.60000610352</ele>
        <time>2011-10-08T09:18:27.000Z</time>
      </trkpt>
      <trkpt lat="48.70317" lon="1.68938">
        <ele>169.60000610352</ele>
        <time>2011-10-08T09:18:33.000Z</time>
      </trkpt>
      <trkpt lat="48.70308" lon="1.68932">
        <ele>169.39999389648</ele>
        <time>2011-10-08T09:18:40.000Z</time>
      </trkpt>
      <trkpt lat="48.70293" lon="1.68926">
        <ele>169.39999389648</ele>
        <time>2011-10-08T09:18:50.000Z</time>
      </trkpt>
      <trkpt lat="48.70277" lon="1.6892">
        <ele>169.60000610352</ele>
        <time>2011-10-08T09:19:00.000Z</time>
      </trkpt>
      <trkpt lat="48.7027" lon="1.68919">
        <ele>169.60000610352</ele>
        <time>2011-10-08T09:19:07.000Z</time>
      </trkpt>
      <trkpt lat="48.70269" lon="1.6892">
        <ele>169.60000610352</ele>
        <time>2011-10-08T09:19:13.000Z</time>
      </trkpt>
      <trkpt lat="48.70263" lon="1.68915">
        <ele>169.80000305176</ele>
        <time>2011-10-08T09:19:22.000Z</time>
      </trkpt>
      <trkpt lat="48.70258" lon="1.68916">
        <ele>169.80000305176</ele>
        <time>2011-10-08T09:19:24.000Z</time>
      </trkpt>
      <trkpt lat="48.70248" lon="1.68911">
        <ele>169.80000305176</ele>
        <time>2011-10-08T09:19:31.000Z</time>
      </trkpt>
      <trkpt lat="48.70245" lon="1.68908">
        <ele>169.60000610352</ele>
        <time>2011-10-08T09:19:34.000Z</time>
      </trkpt>
      <trkpt lat="48.70239" lon="1.68902">
        <ele>169.19999694824</ele>
        <time>2011-10-08T09:19:41.000Z</time>
      </trkpt>
      <trkpt lat="48.70239" lon="1.68902">
        <ele>169.19999694824</ele>
        <time>2011-10-08T09:19:42.000Z</time>
      </trkpt>
      <trkpt lat="48.70238" lon="1.68906">
        <ele>169</ele>
        <time>2011-10-08T09:20:13.000Z</time>
      </trkpt>
      <trkpt lat="48.70228" lon="1.68897">
        <ele>168.39999389648</ele>
        <time>2011-10-08T09:20:19.000Z</time>
      </trkpt>
      <trkpt lat="48.70228" lon="1.68893">
        <ele>168.39999389648</ele>
        <time>2011-10-08T09:20:21.000Z</time>
      </trkpt>
      <trkpt lat="48.70226" lon="1.68886">
        <ele>168.19999694824</ele>
        <time>2011-10-08T09:20:25.000Z</time>
      </trkpt>
      <trkpt lat="48.70214" lon="1.68872">
        <ele>167.60000610352</ele>
        <time>2011-10-08T09:20:34.000Z</time>
      </trkpt>
      <trkpt lat="48.70205" lon="1.68863">
        <ele>167</ele>
        <time>2011-10-08T09:20:41.000Z</time>
      </trkpt>
      <trkpt lat="48.70196" lon="1.68855">
        <ele>166.39999389648</ele>
        <time>2011-10-08T09:20:47.000Z</time>
      </trkpt>
      <trkpt lat="48.7019" lon="1.68851">
        <ele>166.19999694824</ele>
        <time>2011-10-08T09:20:50.000Z</time>
      </trkpt>
      <trkpt lat="48.7018" lon="1.68836">
        <ele>165.60000610352</ele>
        <time>2011-10-08T09:20:56.000Z</time>
      </trkpt>
      <trkpt lat="48.7017" lon="1.68823">
        <ele>165</ele>
        <time>2011-10-08T09:21:00.000Z</time>
      </trkpt>
      <trkpt lat="48.7015" lon="1.688">
        <ele>163.80000305176</ele>
        <time>2011-10-08T09:21:07.000Z</time>
      </trkpt>
      <trkpt lat="48.70127" lon="1.6878">
        <ele>162</ele>
        <time>2011-10-08T09:21:14.000Z</time>
      </trkpt>
      <trkpt lat="48.70109" lon="1.6876">
        <ele>160.80000305176</ele>
        <time>2011-10-08T09:21:20.000Z</time>
      </trkpt>
      <trkpt lat="48.70102" lon="1.68754">
        <ele>160.19999694824</ele>
        <time>2011-10-08T09:21:22.000Z</time>
      </trkpt>
      <trkpt lat="48.70084" lon="1.68732">
        <ele>159</ele>
        <time>2011-10-08T09:21:29.000Z</time>
      </trkpt>
      <trkpt lat="48.70064" lon="1.68711">
        <ele>157.80000305176</ele>
        <time>2011-10-08T09:21:35.000Z</time>
      </trkpt>
      <trkpt lat="48.70032" lon="1.6868">
        <ele>156.19999694824</ele>
        <time>2011-10-08T09:21:44.000Z</time>
      </trkpt>
      <trkpt lat="48.70019" lon="1.68667">
        <ele>155.80000305176</ele>
        <time>2011-10-08T09:21:49.000Z</time>
      </trkpt>
      <trkpt lat="48.70003" lon="1.68649">
        <ele>155.39999389648</ele>
        <time>2011-10-08T09:21:55.000Z</time>
      </trkpt>
      <trkpt lat="48.6998" lon="1.68627">
        <ele>155.19999694824</ele>
        <time>2011-10-08T09:22:02.000Z</time>
      </trkpt>
      <trkpt lat="48.69951" lon="1.68598">
        <ele>154.80000305176</ele>
        <time>2011-10-08T09:22:11.000Z</time>
      </trkpt>
      <trkpt lat="48.69932" lon="1.68578">
        <ele>154.60000610352</ele>
        <time>2011-10-08T09:22:17.000Z</time>
      </trkpt>
      <trkpt lat="48.69912" lon="1.68555">
        <ele>154.19999694824</ele>
        <time>2011-10-08T09:22:23.000Z</time>
      </trkpt>
      <trkpt lat="48.69898" lon="1.68541">
        <ele>154</ele>
        <time>2011-10-08T09:22:27.000Z</time>
      </trkpt>
      <trkpt lat="48.69869" lon="1.68512">
        <ele>153.60000610352</ele>
        <time>2011-10-08T09:22:35.000Z</time>
      </trkpt>
      <trkpt lat="48.69848" lon="1.6849">
        <ele>153.39999389648</ele>
        <time>2011-10-08T09:22:42.000Z</time>
      </trkpt>
      <trkpt lat="48.69841" lon="1.68481">
        <ele>153.60000610352</ele>
        <time>2011-10-08T09:22:47.000Z</time>
      </trkpt>
      <trkpt lat="48.69841" lon="1.68479">
        <ele>153.60000610352</ele>
        <time>2011-10-08T09:22:51.000Z</time>
      </trkpt>
      <trkpt lat="48.69842" lon="1.68473">
        <ele>153.80000305176</ele>
        <time>2011-10-08T09:23:03.000Z</time>
      </trkpt>
      <trkpt lat="48.69846" lon="1.68464">
        <ele>154</ele>
        <time>2011-10-08T09:23:05.000Z</time>
      </trkpt>
      <trkpt lat="48.69846" lon="1.68439">
        <ele>154.60000610352</ele>
        <time>2011-10-08T09:23:10.000Z</time>
      </trkpt>
      <trkpt lat="48.6984" lon="1.68415">
        <ele>155</ele>
        <time>2011-10-08T09:23:15.000Z</time>
      </trkpt>
      <trkpt lat="48.69833" lon="1.68395">
        <ele>154.39999389648</ele>
        <time>2011-10-08T09:23:20.000Z</time>
      </trkpt>
      <trkpt lat="48.69821" lon="1.68379">
        <ele>153.19999694824</ele>
        <time>2011-10-08T09:23:25.000Z</time>
      </trkpt>
      <trkpt lat="48.69812" lon="1.68364">
        <ele>152</ele>
        <time>2011-10-08T09:23:29.000Z</time>
      </trkpt>
      <trkpt lat="48.69801" lon="1.68335">
        <ele>150.60000610352</ele>
        <time>2011-10-08T09:23:35.000Z</time>
      </trkpt>
      <trkpt lat="48.69794" lon="1.6831">
        <ele>150</ele>
        <time>2011-10-08T09:23:40.000Z</time>
      </trkpt>
      <trkpt lat="48.69792" lon="1.68278">
        <ele>150</ele>
        <time>2011-10-08T09:23:46.000Z</time>
      </trkpt>
      <trkpt lat="48.69791" lon="1.68243">
        <ele>149.80000305176</ele>
        <time>2011-10-08T09:23:52.000Z</time>
      </trkpt>
      <trkpt lat="48.69793" lon="1.68224">
        <ele>149.39999389648</ele>
        <time>2011-10-08T09:23:55.000Z</time>
      </trkpt>
      <trkpt lat="48.69795" lon="1.68206">
        <ele>149.39999389648</ele>
        <time>2011-10-08T09:23:58.000Z</time>
      </trkpt>
      <trkpt lat="48.69799" lon="1.68193">
        <ele>149.19999694824</ele>
        <time>2011-10-08T09:24:00.000Z</time>
      </trkpt>
      <trkpt lat="48.698" lon="1.68171">
        <ele>149</ele>
        <time>2011-10-08T09:24:04.000Z</time>
      </trkpt>
      <trkpt lat="48.69794" lon="1.68148">
        <ele>148.60000610352</ele>
        <time>2011-10-08T09:24:09.000Z</time>
      </trkpt>
      <trkpt lat="48.69789" lon="1.68124">
        <ele>148.19999694824</ele>
        <time>2011-10-08T09:24:14.000Z</time>
      </trkpt>
      <trkpt lat="48.6979" lon="1.68097">
        <ele>148.39999389648</ele>
        <time>2011-10-08T09:24:19.000Z</time>
      </trkpt>
      <trkpt lat="48.69789" lon="1.68065">
        <ele>148.39999389648</ele>
        <time>2011-10-08T09:24:25.000Z</time>
      </trkpt>
      <trkpt lat="48.69784" lon="1.68031">
        <ele>148.60000610352</ele>
        <time>2011-10-08T09:24:31.000Z</time>
      </trkpt>
      <trkpt lat="48.69783" lon="1.68002">
        <ele>149</ele>
        <time>2011-10-08T09:24:36.000Z</time>
      </trkpt>
      <trkpt lat="48.69786" lon="1.67979">
        <ele>149.39999389648</ele>
        <time>2011-10-08T09:24:40.000Z</time>
      </trkpt>
      <trkpt lat="48.69793" lon="1.67956">
        <ele>149.80000305176</ele>
        <time>2011-10-08T09:24:45.000Z</time>
      </trkpt>
      <trkpt lat="48.69794" lon="1.67951">
        <ele>149.80000305176</ele>
        <time>2011-10-08T09:24:46.000Z</time>
      </trkpt>
      <trkpt lat="48.6979" lon="1.67937">
        <ele>149.60000610352</ele>
        <time>2011-10-08T09:24:50.000Z</time>
      </trkpt>
      <trkpt lat="48.69779" lon="1.6792">
        <ele>149.19999694824</ele>
        <time>2011-10-08T09:24:55.000Z</time>
      </trkpt>
      <trkpt lat="48.69765" lon="1.67906">
        <ele>148.60000610352</ele>
        <time>2011-10-08T09:25:00.000Z</time>
      </trkpt>
      <trkpt lat="48.69761" lon="1.67887">
        <ele>148.39999389648</ele>
        <time>2011-10-08T09:25:04.000Z</time>
      </trkpt>
      <trkpt lat="48.69761" lon="1.67862">
        <ele>148.60000610352</ele>
        <time>2011-10-08T09:25:09.000Z</time>
      </trkpt>
      <trkpt lat="48.6976" lon="1.67836">
        <ele>148.39999389648</ele>
        <time>2011-10-08T09:25:14.000Z</time>
      </trkpt>
      <trkpt lat="48.69761" lon="1.67813">
        <ele>148.80000305176</ele>
        <time>2011-10-08T09:25:18.000Z</time>
      </trkpt>
      <trkpt lat="48.69761" lon="1.67802">
        <ele>149</ele>
        <time>2011-10-08T09:25:20.000Z</time>
      </trkpt>
      <trkpt lat="48.69765" lon="1.67792">
        <ele>149.19999694824</ele>
        <time>2011-10-08T09:25:24.000Z</time>
      </trkpt>
      <trkpt lat="48.69771" lon="1.6778">
        <ele>149.80000305176</ele>
        <time>2011-10-08T09:25:31.000Z</time>
      </trkpt>
      <trkpt lat="48.69772" lon="1.67769">
        <ele>150</ele>
        <time>2011-10-08T09:25:37.000Z</time>
      </trkpt>
      <trkpt lat="48.69769" lon="1.6776">
        <ele>150</ele>
        <time>2011-10-08T09:25:41.000Z</time>
      </trkpt>
      <trkpt lat="48.69766" lon="1.67735">
        <ele>149.80000305176</ele>
        <time>2011-10-08T09:25:47.000Z</time>
      </trkpt>
      <trkpt lat="48.6976" lon="1.67707">
        <ele>149.19999694824</ele>
        <time>2011-10-08T09:25:53.000Z</time>
      </trkpt>
      <trkpt lat="48.69762" lon="1.67697">
        <ele>149.19999694824</ele>
        <time>2011-10-08T09:25:55.000Z</time>
      </trkpt>
      <trkpt lat="48.69758" lon="1.67672">
        <ele>149</ele>
        <time>2011-10-08T09:26:00.000Z</time>
      </trkpt>
      <trkpt lat="48.69751" lon="1.67643">
        <ele>149</ele>
        <time>2011-10-08T09:26:06.000Z</time>
      </trkpt>
      <trkpt lat="48.69746" lon="1.67621">
        <ele>148.60000610352</ele>
        <time>2011-10-08T09:26:11.000Z</time>
      </trkpt>
      <trkpt lat="48.69742" lon="1.67589">
        <ele>148.39999389648</ele>
        <time>2011-10-08T09:26:17.000Z</time>
      </trkpt>
      <trkpt lat="48.69744" lon="1.67557">
        <ele>148</ele>
        <time>2011-10-08T09:26:23.000Z</time>
      </trkpt>
      <trkpt lat="48.69747" lon="1.67531">
        <ele>147.60000610352</ele>
        <time>2011-10-08T09:26:28.000Z</time>
      </trkpt>
      <trkpt lat="48.69752" lon="1.675">
        <ele>146.80000305176</ele>
        <time>2011-10-08T09:26:34.000Z</time>
      </trkpt>
      <trkpt lat="48.69744" lon="1.67488">
        <ele>147.19999694824</ele>
        <time>2011-10-08T09:26:39.000Z</time>
      </trkpt>
      <trkpt lat="48.69737" lon="1.67475">
        <ele>147.39999389648</ele>
        <time>2011-10-08T09:26:44.000Z</time>
      </trkpt>
      <trkpt lat="48.69733" lon="1.67463">
        <ele>147.80000305176</ele>
        <time>2011-10-08T09:26:48.000Z</time>
      </trkpt>
      <trkpt lat="48.69732" lon="1.67456">
        <ele>148</ele>
        <time>2011-10-08T09:26:50.000Z</time>
      </trkpt>
      <trkpt lat="48.69728" lon="1.67444">
        <ele>148.39999389648</ele>
        <time>2011-10-08T09:26:55.000Z</time>
      </trkpt>
      <trkpt lat="48.69727" lon="1.67428">
        <ele>149</ele>
        <time>2011-10-08T09:27:01.000Z</time>
      </trkpt>
      <trkpt lat="48.69726" lon="1.67409">
        <ele>149.60000610352</ele>
        <time>2011-10-08T09:27:08.000Z</time>
      </trkpt>
      <trkpt lat="48.69725" lon="1.674">
        <ele>149.80000305176</ele>
        <time>2011-10-08T09:27:12.000Z</time>
      </trkpt>
      <trkpt lat="48.69721" lon="1.67387">
        <ele>150.19999694824</ele>
        <time>2011-10-08T09:27:18.000Z</time>
      </trkpt>
      <trkpt lat="48.69719" lon="1.67383">
        <ele>150.39999389648</ele>
        <time>2011-10-08T09:27:20.000Z</time>
      </trkpt>
      <trkpt lat="48.69712" lon="1.67375">
        <ele>150.39999389648</ele>
        <time>2011-10-08T09:27:24.000Z</time>
      </trkpt>
      <trkpt lat="48.6971" lon="1.67369">
        <ele>150.60000610352</ele>
        <time>2011-10-08T09:27:28.000Z</time>
      </trkpt>
      <trkpt lat="48.69706" lon="1.67362">
        <ele>150.80000305176</ele>
        <time>2011-10-08T09:27:31.000Z</time>
      </trkpt>
      <trkpt lat="48.69707" lon="1.67338">
        <ele>151.60000610352</ele>
        <time>2011-10-08T09:27:39.000Z</time>
      </trkpt>
      <trkpt lat="48.69707" lon="1.67336">
        <ele>151.80000305176</ele>
        <time>2011-10-08T09:27:40.000Z</time>
      </trkpt>
      <trkpt lat="48.69707" lon="1.6733">
        <ele>151.80000305176</ele>
        <time>2011-10-08T09:27:47.000Z</time>
      </trkpt>
      <trkpt lat="48.69711" lon="1.67317">
        <ele>152</ele>
        <time>2011-10-08T09:27:53.000Z</time>
      </trkpt>
      <trkpt lat="48.69713" lon="1.67308">
        <ele>152.19999694824</ele>
        <time>2011-10-08T09:27:57.000Z</time>
      </trkpt>
      <trkpt lat="48.69709" lon="1.67299">
        <ele>152.19999694824</ele>
        <time>2011-10-08T09:28:01.000Z</time>
      </trkpt>
      <trkpt lat="48.69702" lon="1.67297">
        <ele>152</ele>
        <time>2011-10-08T09:28:07.000Z</time>
      </trkpt>
      <trkpt lat="48.69702" lon="1.67297">
        <ele>152</ele>
        <time>2011-10-08T09:28:08.000Z</time>
      </trkpt>
      <trkpt lat="48.69705" lon="1.67298">
        <ele>152</ele>
        <time>2011-10-08T09:28:18.000Z</time>
      </trkpt>
      <trkpt lat="48.69708" lon="1.67293">
        <ele>152.19999694824</ele>
        <time>2011-10-08T09:28:21.000Z</time>
      </trkpt>
      <trkpt lat="48.6971" lon="1.67282">
        <ele>152.19999694824</ele>
        <time>2011-10-08T09:28:27.000Z</time>
      </trkpt>
      <trkpt lat="48.6971" lon="1.67272">
        <ele>152.39999389648</ele>
        <time>2011-10-08T09:28:30.000Z</time>
      </trkpt>
      <trkpt lat="48.69709" lon="1.67259">
        <ele>152.39999389648</ele>
        <time>2011-10-08T09:28:34.000Z</time>
      </trkpt>
      <trkpt lat="48.69714" lon="1.67229">
        <ele>152.60000610352</ele>
        <time>2011-10-08T09:28:39.000Z</time>
      </trkpt>
      <trkpt lat="48.69717" lon="1.67208">
        <ele>152.60000610352</ele>
        <time>2011-10-08T09:28:43.000Z</time>
      </trkpt>
      <trkpt lat="48.69728" lon="1.67183">
        <ele>153</ele>
        <time>2011-10-08T09:28:48.000Z</time>
      </trkpt>
      <trkpt lat="48.6974" lon="1.67175">
        <ele>153.39999389648</ele>
        <time>2011-10-08T09:28:52.000Z</time>
      </trkpt>
      <trkpt lat="48.69758" lon="1.6715">
        <ele>154</ele>
        <time>2011-10-08T09:28:58.000Z</time>
      </trkpt>
      <trkpt lat="48.69763" lon="1.6713">
        <ele>154.19999694824</ele>
        <time>2011-10-08T09:29:02.000Z</time>
      </trkpt>
      <trkpt lat="48.69769" lon="1.67108">
        <ele>154.19999694824</ele>
        <time>2011-10-08T09:29:06.000Z</time>
      </trkpt>
      <trkpt lat="48.69778" lon="1.67083">
        <ele>154.60000610352</ele>
        <time>2011-10-08T09:29:10.000Z</time>
      </trkpt>
      <trkpt lat="48.69786" lon="1.67048">
        <ele>154.80000305176</ele>
        <time>2011-10-08T09:29:16.000Z</time>
      </trkpt>
      <trkpt lat="48.69787" lon="1.67044">
        <ele>154.80000305176</ele>
        <time>2011-10-08T09:29:17.000Z</time>
      </trkpt>
      <trkpt lat="48.69791" lon="1.67024">
        <ele>154.80000305176</ele>
        <time>2011-10-08T09:29:22.000Z</time>
      </trkpt>
      <trkpt lat="48.69799" lon="1.67003">
        <ele>155</ele>
        <time>2011-10-08T09:29:27.000Z</time>
      </trkpt>
      <trkpt lat="48.69804" lon="1.66987">
        <ele>155.19999694824</ele>
        <time>2011-10-08T09:29:32.000Z</time>
      </trkpt>
      <trkpt lat="48.69798" lon="1.66969">
        <ele>155.19999694824</ele>
        <time>2011-10-08T09:29:37.000Z</time>
      </trkpt>
      <trkpt lat="48.69793" lon="1.66949">
        <ele>155.19999694824</ele>
        <time>2011-10-08T09:29:42.000Z</time>
      </trkpt>
      <trkpt lat="48.69797" lon="1.66917">
        <ele>155.60000610352</ele>
        <time>2011-10-08T09:29:47.000Z</time>
      </trkpt>
      <trkpt lat="48.69798" lon="1.6688">
        <ele>155.80000305176</ele>
        <time>2011-10-08T09:29:53.000Z</time>
      </trkpt>
      <trkpt lat="48.69797" lon="1.66849">
        <ele>156</ele>
        <time>2011-10-08T09:29:59.000Z</time>
      </trkpt>
      <trkpt lat="48.69791" lon="1.66824">
        <ele>156</ele>
        <time>2011-10-08T09:30:04.000Z</time>
      </trkpt>
      <trkpt lat="48.69788" lon="1.66799">
        <ele>156</ele>
        <time>2011-10-08T09:30:09.000Z</time>
      </trkpt>
      <trkpt lat="48.69786" lon="1.66793">
        <ele>156</ele>
        <time>2011-10-08T09:30:11.000Z</time>
      </trkpt>
      <trkpt lat="48.69784" lon="1.66785">
        <ele>156</ele>
        <time>2011-10-08T09:30:15.000Z</time>
      </trkpt>
      <trkpt lat="48.69779" lon="1.66768">
        <ele>156.19999694824</ele>
        <time>2011-10-08T09:30:24.000Z</time>
      </trkpt>
      <trkpt lat="48.69771" lon="1.66757">
        <ele>156</ele>
        <time>2011-10-08T09:30:31.000Z</time>
      </trkpt>
      <trkpt lat="48.69767" lon="1.66749">
        <ele>156.19999694824</ele>
        <time>2011-10-08T09:30:35.000Z</time>
      </trkpt>
      <trkpt lat="48.69757" lon="1.66746">
        <ele>156</ele>
        <time>2011-10-08T09:30:41.000Z</time>
      </trkpt>
      <trkpt lat="48.69746" lon="1.66741">
        <ele>155.80000305176</ele>
        <time>2011-10-08T09:30:48.000Z</time>
      </trkpt>
      <trkpt lat="48.69737" lon="1.66736">
        <ele>155.60000610352</ele>
        <time>2011-10-08T09:30:54.000Z</time>
      </trkpt>
      <trkpt lat="48.69728" lon="1.66728">
        <ele>155.19999694824</ele>
        <time>2011-10-08T09:31:01.000Z</time>
      </trkpt>
      <trkpt lat="48.69721" lon="1.66729">
        <ele>155</ele>
        <time>2011-10-08T09:31:07.000Z</time>
      </trkpt>
      <trkpt lat="48.69711" lon="1.66739">
        <ele>154.60000610352</ele>
        <time>2011-10-08T09:31:14.000Z</time>
      </trkpt>
      <trkpt lat="48.69702" lon="1.66749">
        <ele>154.19999694824</ele>
        <time>2011-10-08T09:31:21.000Z</time>
      </trkpt>
      <trkpt lat="48.6969" lon="1.66759">
        <ele>153.60000610352</ele>
        <time>2011-10-08T09:31:29.000Z</time>
      </trkpt>
      <trkpt lat="48.69682" lon="1.66766">
        <ele>153.19999694824</ele>
        <time>2011-10-08T09:31:35.000Z</time>
      </trkpt>
      <trkpt lat="48.69672" lon="1.66778">
        <ele>152.80000305176</ele>
        <time>2011-10-08T09:31:43.000Z</time>
      </trkpt>
      <trkpt lat="48.6966" lon="1.66791">
        <ele>152</ele>
        <time>2011-10-08T09:31:52.000Z</time>
      </trkpt>
      <trkpt lat="48.69653" lon="1.668">
        <ele>151.60000610352</ele>
        <time>2011-10-08T09:31:58.000Z</time>
      </trkpt>
      <trkpt lat="48.69649" lon="1.66806">
        <ele>151.39999389648</ele>
        <time>2011-10-08T09:32:02.000Z</time>
      </trkpt>
      <trkpt lat="48.6964" lon="1.66816">
        <ele>150.80000305176</ele>
        <time>2011-10-08T09:32:09.000Z</time>
      </trkpt>
      <trkpt lat="48.69632" lon="1.66826">
        <ele>150.39999389648</ele>
        <time>2011-10-08T09:32:15.000Z</time>
      </trkpt>
      <trkpt lat="48.69624" lon="1.66831">
        <ele>149.80000305176</ele>
        <time>2011-10-08T09:32:20.000Z</time>
      </trkpt>
      <trkpt lat="48.69613" lon="1.66841">
        <ele>149.19999694824</ele>
        <time>2011-10-08T09:32:28.000Z</time>
      </trkpt>
      <trkpt lat="48.69602" lon="1.6685">
        <ele>148.80000305176</ele>
        <time>2011-10-08T09:32:35.000Z</time>
      </trkpt>
      <trkpt lat="48.69593" lon="1.66859">
        <ele>148.19999694824</ele>
        <time>2011-10-08T09:32:41.000Z</time>
      </trkpt>
      <trkpt lat="48.69583" lon="1.66868">
        <ele>147.80000305176</ele>
        <time>2011-10-08T09:32:48.000Z</time>
      </trkpt>
      <trkpt lat="48.69568" lon="1.66882">
        <ele>147</ele>
        <time>2011-10-08T09:32:59.000Z</time>
      </trkpt>
      <trkpt lat="48.69554" lon="1.66896">
        <ele>146.19999694824</ele>
        <time>2011-10-08T09:33:09.000Z</time>
      </trkpt>
      <trkpt lat="48.69547" lon="1.66902">
        <ele>145.80000305176</ele>
        <time>2011-10-08T09:33:14.000Z</time>
      </trkpt>
      <trkpt lat="48.6954" lon="1.66911">
        <ele>145.19999694824</ele>
        <time>2011-10-08T09:33:20.000Z</time>
      </trkpt>
      <trkpt lat="48.69528" lon="1.66918">
        <ele>144.60000610352</ele>
        <time>2011-10-08T09:33:27.000Z</time>
      </trkpt>
      <trkpt lat="48.69526" lon="1.66919">
        <ele>144.39999389648</ele>
        <time>2011-10-08T09:33:31.000Z</time>
      </trkpt>
      <trkpt lat="48.69518" lon="1.66932">
        <ele>144</ele>
        <time>2011-10-08T09:33:48.000Z</time>
      </trkpt>
      <trkpt lat="48.69509" lon="1.66941">
        <ele>143.39999389648</ele>
        <time>2011-10-08T09:33:53.000Z</time>
      </trkpt>
      <trkpt lat="48.69506" lon="1.66943">
        <ele>143.19999694824</ele>
        <time>2011-10-08T09:33:55.000Z</time>
      </trkpt>
      <trkpt lat="48.69501" lon="1.66948">
        <ele>143</ele>
        <time>2011-10-08T09:33:58.000Z</time>
      </trkpt>
      <trkpt lat="48.69493" lon="1.66957">
        <ele>142.80000305176</ele>
        <time>2011-10-08T09:34:05.000Z</time>
      </trkpt>
      <trkpt lat="48.69483" lon="1.66965">
        <ele>142.39999389648</ele>
        <time>2011-10-08T09:34:11.000Z</time>
      </trkpt>
      <trkpt lat="48.69476" lon="1.66972">
        <ele>142.39999389648</ele>
        <time>2011-10-08T09:34:16.000Z</time>
      </trkpt>
      <trkpt lat="48.6947" lon="1.66978">
        <ele>142.19999694824</ele>
        <time>2011-10-08T09:34:20.000Z</time>
      </trkpt>
      <trkpt lat="48.69468" lon="1.66976">
        <ele>142.19999694824</ele>
        <time>2011-10-08T09:34:24.000Z</time>
      </trkpt>
      <trkpt lat="48.69471" lon="1.66973">
        <ele>142.19999694824</ele>
        <time>2011-10-08T09:34:30.000Z</time>
      </trkpt>
      <trkpt lat="48.69474" lon="1.66984">
        <ele>142.19999694824</ele>
        <time>2011-10-08T09:34:50.000Z</time>
      </trkpt>
      <trkpt lat="48.69477" lon="1.67001">
        <ele>142.39999389648</ele>
        <time>2011-10-08T09:34:55.000Z</time>
      </trkpt>
      <trkpt lat="48.69482" lon="1.67029">
        <ele>143</ele>
        <time>2011-10-08T09:35:00.000Z</time>
      </trkpt>
      <trkpt lat="48.69487" lon="1.67073">
        <ele>143.80000305176</ele>
        <time>2011-10-08T09:35:05.000Z</time>
      </trkpt>
      <trkpt lat="48.69495" lon="1.67131">
        <ele>145.60000610352</ele>
        <time>2011-10-08T09:35:11.000Z</time>
      </trkpt>
      <trkpt lat="48.69502" lon="1.67167">
        <ele>147</ele>
        <time>2011-10-08T09:35:15.000Z</time>
      </trkpt>
      <trkpt lat="48.69509" lon="1.67191">
        <ele>147</ele>
        <time>2011-10-08T09:35:18.000Z</time>
      </trkpt>
      <trkpt lat="48.69529" lon="1.6724">
        <ele>147.19999694824</ele>
        <time>2011-10-08T09:35:24.000Z</time>
      </trkpt>
      <trkpt lat="48.69544" lon="1.67272">
        <ele>147.39999389648</ele>
        <time>2011-10-08T09:35:28.000Z</time>
      </trkpt>
      <trkpt lat="48.69556" lon="1.67295">
        <ele>147.60000610352</ele>
        <time>2011-10-08T09:35:31.000Z</time>
      </trkpt>
      <trkpt lat="48.69582" lon="1.67349">
        <ele>147.60000610352</ele>
        <time>2011-10-08T09:35:38.000Z</time>
      </trkpt>
      <trkpt lat="48.69607" lon="1.67394">
        <ele>147.60000610352</ele>
        <time>2011-10-08T09:35:44.000Z</time>
      </trkpt>
      <trkpt lat="48.69619" lon="1.67419">
        <ele>147.19999694824</ele>
        <time>2011-10-08T09:35:48.000Z</time>
      </trkpt>
      <trkpt lat="48.69629" lon="1.67439">
        <ele>146.60000610352</ele>
        <time>2011-10-08T09:35:53.000Z</time>
      </trkpt>
      <trkpt lat="48.69636" lon="1.67449">
        <ele>146.39999389648</ele>
        <time>2011-10-08T09:35:59.000Z</time>
      </trkpt>
      <trkpt lat="48.69635" lon="1.67449">
        <ele>146.39999389648</ele>
        <time>2011-10-08T09:36:01.000Z</time>
      </trkpt>
      <trkpt lat="48.69641" lon="1.67453">
        <ele>146.39999389648</ele>
        <time>2011-10-08T09:36:08.000Z</time>
      </trkpt>
      <trkpt lat="48.6965" lon="1.67462">
        <ele>146</ele>
        <time>2011-10-08T09:36:11.000Z</time>
      </trkpt>
      <trkpt lat="48.69656" lon="1.67477">
        <ele>145.60000610352</ele>
        <time>2011-10-08T09:36:15.000Z</time>
      </trkpt>
      <trkpt lat="48.69657" lon="1.67481">
        <ele>145.39999389648</ele>
        <time>2011-10-08T09:36:16.000Z</time>
      </trkpt>
      <trkpt lat="48.69669" lon="1.6751">
        <ele>145</ele>
        <time>2011-10-08T09:36:23.000Z</time>
      </trkpt>
      <trkpt lat="48.69679" lon="1.67543">
        <ele>145.39999389648</ele>
        <time>2011-10-08T09:36:30.000Z</time>
      </trkpt>
      <trkpt lat="48.69682" lon="1.67561">
        <ele>145.60000610352</ele>
        <time>2011-10-08T09:36:37.000Z</time>
      </trkpt>
      <trkpt lat="48.69685" lon="1.67577">
        <ele>145.80000305176</ele>
        <time>2011-10-08T09:36:41.000Z</time>
      </trkpt>
      <trkpt lat="48.69693" lon="1.67614">
        <ele>145.80000305176</ele>
        <time>2011-10-08T09:36:47.000Z</time>
      </trkpt>
      <trkpt lat="48.69695" lon="1.67622">
        <ele>146</ele>
        <time>2011-10-08T09:36:48.000Z</time>
      </trkpt>
      <trkpt lat="48.69698" lon="1.67657">
        <ele>145.80000305176</ele>
        <time>2011-10-08T09:36:52.000Z</time>
      </trkpt>
      <trkpt lat="48.69702" lon="1.67684">
        <ele>146.19999694824</ele>
        <time>2011-10-08T09:36:55.000Z</time>
      </trkpt>
      <trkpt lat="48.69706" lon="1.67701">
        <ele>146.39999389648</ele>
        <time>2011-10-08T09:36:57.000Z</time>
      </trkpt>
      <trkpt lat="48.69717" lon="1.67767">
        <ele>147.19999694824</ele>
        <time>2011-10-08T09:37:04.000Z</time>
      </trkpt>
      <trkpt lat="48.6972" lon="1.67787">
        <ele>147.19999694824</ele>
        <time>2011-10-08T09:37:06.000Z</time>
      </trkpt>
      <trkpt lat="48.69725" lon="1.67828">
        <ele>147</ele>
        <time>2011-10-08T09:37:10.000Z</time>
      </trkpt>
      <trkpt lat="48.69735" lon="1.67885">
        <ele>147.39999389648</ele>
        <time>2011-10-08T09:37:16.000Z</time>
      </trkpt>
      <trkpt lat="48.69742" lon="1.67942">
        <ele>147.60000610352</ele>
        <time>2011-10-08T09:37:22.000Z</time>
      </trkpt>
      <trkpt lat="48.69745" lon="1.67969">
        <ele>147.80000305176</ele>
        <time>2011-10-08T09:37:25.000Z</time>
      </trkpt>
      <trkpt lat="48.69756" lon="1.6804">
        <ele>147.19999694824</ele>
        <time>2011-10-08T09:37:32.000Z</time>
      </trkpt>
      <trkpt lat="48.69759" lon="1.6806">
        <ele>147</ele>
        <time>2011-10-08T09:37:34.000Z</time>
      </trkpt>
      <trkpt lat="48.69762" lon="1.681">
        <ele>146.60000610352</ele>
        <time>2011-10-08T09:37:38.000Z</time>
      </trkpt>
      <trkpt lat="48.69761" lon="1.68136">
        <ele>146.60000610352</ele>
        <time>2011-10-08T09:37:42.000Z</time>
      </trkpt>
      <trkpt lat="48.69757" lon="1.68195">
        <ele>147</ele>
        <time>2011-10-08T09:37:48.000Z</time>
      </trkpt>
      <trkpt lat="48.69757" lon="1.68216">
        <ele>147.39999389648</ele>
        <time>2011-10-08T09:37:50.000Z</time>
      </trkpt>
      <trkpt lat="48.69757" lon="1.68277">
        <ele>148</ele>
        <time>2011-10-08T09:37:56.000Z</time>
      </trkpt>
      <trkpt lat="48.69756" lon="1.68311">
        <ele>147.60000610352</ele>
        <time>2011-10-08T09:38:01.000Z</time>
      </trkpt>
      <trkpt lat="48.69755" lon="1.68367">
        <ele>148</ele>
        <time>2011-10-08T09:38:11.000Z</time>
      </trkpt>
      <trkpt lat="48.69755" lon="1.68399">
        <ele>148.80000305176</ele>
        <time>2011-10-08T09:38:17.000Z</time>
      </trkpt>
      <trkpt lat="48.69764" lon="1.684">
        <ele>149.60000610352</ele>
        <time>2011-10-08T09:38:21.000Z</time>
      </trkpt>
      <trkpt lat="48.69765" lon="1.68395">
        <ele>149.39999389648</ele>
        <time>2011-10-08T09:38:23.000Z</time>
      </trkpt>
      <trkpt lat="48.6976" lon="1.68369">
        <ele>148.60000610352</ele>
        <time>2011-10-08T09:38:29.000Z</time>
      </trkpt>
      <trkpt lat="48.69755" lon="1.68366">
        <ele>148</ele>
        <time>2011-10-08T09:38:33.000Z</time>
      </trkpt>
      <trkpt lat="48.69754" lon="1.68366">
        <ele>148</ele>
        <time>2011-10-08T09:38:35.000Z</time>
      </trkpt>
      <trkpt lat="48.69752" lon="1.6836">
        <ele>147.60000610352</ele>
        <time>2011-10-08T09:38:51.000Z</time>
      </trkpt>
      <trkpt lat="48.69754" lon="1.68355">
        <ele>147.80000305176</ele>
        <time>2011-10-08T09:38:55.000Z</time>
      </trkpt>
      <trkpt lat="48.69755" lon="1.6835">
        <ele>147.60000610352</ele>
        <time>2011-10-08T09:38:59.000Z</time>
      </trkpt>
      <trkpt lat="48.69753" lon="1.68353">
        <ele>147.60000610352</ele>
        <time>2011-10-08T09:39:02.000Z</time>
      </trkpt>
      <trkpt lat="48.69754" lon="1.68361">
        <ele>147.80000305176</ele>
        <time>2011-10-08T09:39:08.000Z</time>
      </trkpt>
      <trkpt lat="48.69755" lon="1.68357">
        <ele>147.80000305176</ele>
        <time>2011-10-08T09:39:11.000Z</time>
      </trkpt>
      <trkpt lat="48.69753" lon="1.68342">
        <ele>147.39999389648</ele>
        <time>2011-10-08T09:39:20.000Z</time>
      </trkpt>
      <trkpt lat="48.69753" lon="1.6834">
        <ele>147.19999694824</ele>
        <time>2011-10-08T09:39:21.000Z</time>
      </trkpt>
      <trkpt lat="48.69752" lon="1.68337">
        <ele>147</ele>
        <time>2011-10-08T09:39:26.000Z</time>
      </trkpt>
      <trkpt lat="48.69754" lon="1.68343">
        <ele>147.39999389648</ele>
        <time>2011-10-08T09:39:50.000Z</time>
      </trkpt>
      <trkpt lat="48.69753" lon="1.68365">
        <ele>147.80000305176</ele>
        <time>2011-10-08T09:39:58.000Z</time>
      </trkpt>
      <trkpt lat="48.69752" lon="1.68384">
        <ele>148.19999694824</ele>
        <time>2011-10-08T09:40:06.000Z</time>
      </trkpt>
      <trkpt lat="48.69752" lon="1.684">
        <ele>148.60000610352</ele>
        <time>2011-10-08T09:40:13.000Z</time>
      </trkpt>
      <trkpt lat="48.69751" lon="1.68424">
        <ele>149</ele>
        <time>2011-10-08T09:40:22.000Z</time>
      </trkpt>
      <trkpt lat="48.69746" lon="1.68449">
        <ele>149.19999694824</ele>
        <time>2011-10-08T09:40:32.000Z</time>
      </trkpt>
      <trkpt lat="48.69743" lon="1.68473">
        <ele>149.60000610352</ele>
        <time>2011-10-08T09:40:41.000Z</time>
      </trkpt>
      <trkpt lat="48.69741" lon="1.68496">
        <ele>149.80000305176</ele>
        <time>2011-10-08T09:40:50.000Z</time>
      </trkpt>
      <trkpt lat="48.69741" lon="1.68506">
        <ele>150</ele>
        <time>2011-10-08T09:40:54.000Z</time>
      </trkpt>
      <trkpt lat="48.6974" lon="1.68516">
        <ele>150</ele>
        <time>2011-10-08T09:40:58.000Z</time>
      </trkpt>
      <trkpt lat="48.69736" lon="1.68531">
        <ele>150</ele>
        <time>2011-10-08T09:41:05.000Z</time>
      </trkpt>
      <trkpt lat="48.69736" lon="1.68533">
        <ele>150</ele>
        <time>2011-10-08T09:41:09.000Z</time>
      </trkpt>
      <trkpt lat="48.69738" lon="1.68536">
        <ele>150</ele>
        <time>2011-10-08T09:41:12.000Z</time>
      </trkpt>
      <trkpt lat="48.6974" lon="1.6855">
        <ele>150</ele>
        <time>2011-10-08T09:41:17.000Z</time>
      </trkpt>
      <trkpt lat="48.69739" lon="1.68564">
        <ele>150</ele>
        <time>2011-10-08T09:41:23.000Z</time>
      </trkpt>
      <trkpt lat="48.69738" lon="1.6858">
        <ele>150.19999694824</ele>
        <time>2011-10-08T09:41:29.000Z</time>
      </trkpt>
      <trkpt lat="48.69739" lon="1.68596">
        <ele>149.80000305176</ele>
        <time>2011-10-08T09:41:35.000Z</time>
      </trkpt>
      <trkpt lat="48.6974" lon="1.68618">
        <ele>149.39999389648</ele>
        <time>2011-10-08T09:41:43.000Z</time>
      </trkpt>
      <trkpt lat="48.6974" lon="1.68648">
        <ele>148.60000610352</ele>
        <time>2011-10-08T09:41:54.000Z</time>
      </trkpt>
      <trkpt lat="48.6974" lon="1.68669">
        <ele>148.19999694824</ele>
        <time>2011-10-08T09:42:02.000Z</time>
      </trkpt>
      <trkpt lat="48.69741" lon="1.68691">
        <ele>148.80000305176</ele>
        <time>2011-10-08T09:42:11.000Z</time>
      </trkpt>
      <trkpt lat="48.6974" lon="1.68712">
        <ele>149.19999694824</ele>
        <time>2011-10-08T09:42:19.000Z</time>
      </trkpt>
      <trkpt lat="48.6974" lon="1.68735">
        <ele>149.80000305176</ele>
        <time>2011-10-08T09:42:27.000Z</time>
      </trkpt>
      <trkpt lat="48.69741" lon="1.6876">
        <ele>150.19999694824</ele>
        <time>2011-10-08T09:42:37.000Z</time>
      </trkpt>
      <trkpt lat="48.69742" lon="1.68787">
        <ele>150.19999694824</ele>
        <time>2011-10-08T09:42:48.000Z</time>
      </trkpt>
      <trkpt lat="48.69742" lon="1.68809">
        <ele>150.19999694824</ele>
        <time>2011-10-08T09:42:57.000Z</time>
      </trkpt>
      <trkpt lat="48.69742" lon="1.68833">
        <ele>150.19999694824</ele>
        <time>2011-10-08T09:43:07.000Z</time>
      </trkpt>
      <trkpt lat="48.69742" lon="1.68845">
        <ele>150.39999389648</ele>
        <time>2011-10-08T09:43:12.000Z</time>
      </trkpt>
      <trkpt lat="48.69744" lon="1.68864">
        <ele>150.60000610352</ele>
        <time>2011-10-08T09:43:20.000Z</time>
      </trkpt>
      <trkpt lat="48.69745" lon="1.68882">
        <ele>150.60000610352</ele>
        <time>2011-10-08T09:43:27.000Z</time>
      </trkpt>
      <trkpt lat="48.69748" lon="1.68894">
        <ele>150.80000305176</ele>
        <time>2011-10-08T09:43:32.000Z</time>
      </trkpt>
      <trkpt lat="48.69747" lon="1.68916">
        <ele>151</ele>
        <time>2011-10-08T09:43:40.000Z</time>
      </trkpt>
      <trkpt lat="48.69747" lon="1.68932">
        <ele>151.19999694824</ele>
        <time>2011-10-08T09:43:46.000Z</time>
      </trkpt>
      <trkpt lat="48.69748" lon="1.68949">
        <ele>151.39999389648</ele>
        <time>2011-10-08T09:43:53.000Z</time>
      </trkpt>
      <trkpt lat="48.69748" lon="1.68958">
        <ele>151.39999389648</ele>
        <time>2011-10-08T09:43:57.000Z</time>
      </trkpt>
      <trkpt lat="48.69751" lon="1.68973">
        <ele>151.60000610352</ele>
        <time>2011-10-08T09:44:03.000Z</time>
      </trkpt>
      <trkpt lat="48.69749" lon="1.68985">
        <ele>151.80000305176</ele>
        <time>2011-10-08T09:44:08.000Z</time>
      </trkpt>
      <trkpt lat="48.69748" lon="1.68995">
        <ele>151.80000305176</ele>
        <time>2011-10-08T09:44:13.000Z</time>
      </trkpt>
      <trkpt lat="48.69748" lon="1.68997">
        <ele>152</ele>
        <time>2011-10-08T09:44:14.000Z</time>
      </trkpt>
      <trkpt lat="48.69748" lon="1.69007">
        <ele>152.19999694824</ele>
        <time>2011-10-08T09:44:18.000Z</time>
      </trkpt>
      <trkpt lat="48.69749" lon="1.69014">
        <ele>152.39999389648</ele>
        <time>2011-10-08T09:44:21.000Z</time>
      </trkpt>
      <trkpt lat="48.6975" lon="1.69028">
        <ele>153</ele>
        <time>2011-10-08T09:44:26.000Z</time>
      </trkpt>
      <trkpt lat="48.69751" lon="1.69031">
        <ele>153</ele>
        <time>2011-10-08T09:44:27.000Z</time>
      </trkpt>
      <trkpt lat="48.69752" lon="1.69048">
        <ele>153.60000610352</ele>
        <time>2011-10-08T09:44:34.000Z</time>
      </trkpt>
      <trkpt lat="48.69753" lon="1.69057">
        <ele>153.80000305176</ele>
        <time>2011-10-08T09:44:38.000Z</time>
      </trkpt>
      <trkpt lat="48.69753" lon="1.69077">
        <ele>154.60000610352</ele>
        <time>2011-10-08T09:44:46.000Z</time>
      </trkpt>
      <trkpt lat="48.69754" lon="1.69093">
        <ele>154.80000305176</ele>
        <time>2011-10-08T09:44:52.000Z</time>
      </trkpt>
      <trkpt lat="48.69755" lon="1.69107">
        <ele>155</ele>
        <time>2011-10-08T09:44:58.000Z</time>
      </trkpt>
      <trkpt lat="48.69756" lon="1.69118">
        <ele>155.19999694824</ele>
        <time>2011-10-08T09:45:03.000Z</time>
      </trkpt>
      <trkpt lat="48.69755" lon="1.69128">
        <ele>155.39999389648</ele>
        <time>2011-10-08T09:45:08.000Z</time>
      </trkpt>
      <trkpt lat="48.69756" lon="1.69142">
        <ele>155.39999389648</ele>
        <time>2011-10-08T09:45:14.000Z</time>
      </trkpt>
      <trkpt lat="48.69756" lon="1.69145">
        <ele>155.60000610352</ele>
        <time>2011-10-08T09:45:15.000Z</time>
      </trkpt>
      <trkpt lat="48.69758" lon="1.69162">
        <ele>155.80000305176</ele>
        <time>2011-10-08T09:45:22.000Z</time>
      </trkpt>
      <trkpt lat="48.69761" lon="1.69179">
        <ele>155.80000305176</ele>
        <time>2011-10-08T09:45:29.000Z</time>
      </trkpt>
      <trkpt lat="48.69766" lon="1.69204">
        <ele>156</ele>
        <time>2011-10-08T09:45:39.000Z</time>
      </trkpt>
      <trkpt lat="48.69769" lon="1.69219">
        <ele>156</ele>
        <time>2011-10-08T09:45:45.000Z</time>
      </trkpt>
      <trkpt lat="48.69772" lon="1.69234">
        <ele>156.19999694824</ele>
        <time>2011-10-08T09:45:51.000Z</time>
      </trkpt>
      <trkpt lat="48.69774" lon="1.69249">
        <ele>156.39999389648</ele>
        <time>2011-10-08T09:45:57.000Z</time>
      </trkpt>
      <trkpt lat="48.69777" lon="1.69266">
        <ele>156.39999389648</ele>
        <time>2011-10-08T09:46:04.000Z</time>
      </trkpt>
      <trkpt lat="48.6978" lon="1.69281">
        <ele>156.60000610352</ele>
        <time>2011-10-08T09:46:10.000Z</time>
      </trkpt>
      <trkpt lat="48.69783" lon="1.69298">
        <ele>156.60000610352</ele>
        <time>2011-10-08T09:46:17.000Z</time>
      </trkpt>
      <trkpt lat="48.69787" lon="1.69316">
        <ele>156.80000305176</ele>
        <time>2011-10-08T09:46:25.000Z</time>
      </trkpt>
      <trkpt lat="48.69791" lon="1.6933">
        <ele>156.80000305176</ele>
        <time>2011-10-08T09:46:31.000Z</time>
      </trkpt>
      <trkpt lat="48.69792" lon="1.69334">
        <ele>157</ele>
        <time>2011-10-08T09:46:33.000Z</time>
      </trkpt>
      <trkpt lat="48.69795" lon="1.69346">
        <ele>157.19999694824</ele>
        <time>2011-10-08T09:46:38.000Z</time>
      </trkpt>
      <trkpt lat="48.69797" lon="1.69352">
        <ele>157.60000610352</ele>
        <time>2011-10-08T09:46:41.000Z</time>
      </trkpt>
      <trkpt lat="48.69797" lon="1.69358">
        <ele>157.60000610352</ele>
        <time>2011-10-08T09:46:44.000Z</time>
      </trkpt>
      <trkpt lat="48.69798" lon="1.69373">
        <ele>158</ele>
        <time>2011-10-08T09:46:50.000Z</time>
      </trkpt>
      <trkpt lat="48.69801" lon="1.69383">
        <ele>158.39999389648</ele>
        <time>2011-10-08T09:46:54.000Z</time>
      </trkpt>
      <trkpt lat="48.69801" lon="1.69392">
        <ele>158.60000610352</ele>
        <time>2011-10-08T09:46:58.000Z</time>
      </trkpt>
      <trkpt lat="48.69806" lon="1.69407">
        <ele>159.39999389648</ele>
        <time>2011-10-08T09:47:05.000Z</time>
      </trkpt>
      <trkpt lat="48.69806" lon="1.6941">
        <ele>159.39999389648</ele>
        <time>2011-10-08T09:47:06.000Z</time>
      </trkpt>
      <trkpt lat="48.69809" lon="1.69428">
        <ele>160</ele>
        <time>2011-10-08T09:47:13.000Z</time>
      </trkpt>
      <trkpt lat="48.69813" lon="1.69444">
        <ele>160.60000610352</ele>
        <time>2011-10-08T09:47:20.000Z</time>
      </trkpt>
      <trkpt lat="48.69818" lon="1.6946">
        <ele>161.39999389648</ele>
        <time>2011-10-08T09:47:27.000Z</time>
      </trkpt>
      <trkpt lat="48.69816" lon="1.69463">
        <ele>161.19999694824</ele>
        <time>2011-10-08T09:47:29.000Z</time>
      </trkpt>
      <trkpt lat="48.69814" lon="1.6947">
        <ele>161.19999694824</ele>
        <time>2011-10-08T09:47:33.000Z</time>
      </trkpt>
      <trkpt lat="48.6982" lon="1.69482">
        <ele>162</ele>
        <time>2011-10-08T09:47:38.000Z</time>
      </trkpt>
      <trkpt lat="48.6982" lon="1.69484">
        <ele>162</ele>
        <time>2011-10-08T09:47:40.000Z</time>
      </trkpt>
      <trkpt lat="48.69821" lon="1.69487">
        <ele>162.19999694824</ele>
        <time>2011-10-08T09:47:42.000Z</time>
      </trkpt>
      <trkpt lat="48.69831" lon="1.69504">
        <ele>163.60000610352</ele>
        <time>2011-10-08T09:47:47.000Z</time>
      </trkpt>
      <trkpt lat="48.69832" lon="1.69518">
        <ele>163.39999389648</ele>
        <time>2011-10-08T09:47:52.000Z</time>
      </trkpt>
      <trkpt lat="48.69837" lon="1.69535">
        <ele>163.19999694824</ele>
        <time>2011-10-08T09:47:58.000Z</time>
      </trkpt>
      <trkpt lat="48.69842" lon="1.6955">
        <ele>162.80000305176</ele>
        <time>2011-10-08T09:48:04.000Z</time>
      </trkpt>
      <trkpt lat="48.69846" lon="1.69563">
        <ele>162.60000610352</ele>
        <time>2011-10-08T09:48:10.000Z</time>
      </trkpt>
      <trkpt lat="48.69851" lon="1.69576">
        <ele>162.39999389648</ele>
        <time>2011-10-08T09:48:15.000Z</time>
      </trkpt>
      <trkpt lat="48.69858" lon="1.69597">
        <ele>162.39999389648</ele>
        <time>2011-10-08T09:48:24.000Z</time>
      </trkpt>
      <trkpt lat="48.69866" lon="1.69618">
        <ele>162.39999389648</ele>
        <time>2011-10-08T09:48:33.000Z</time>
      </trkpt>
      <trkpt lat="48.69869" lon="1.6963">
        <ele>162.39999389648</ele>
        <time>2011-10-08T09:48:38.000Z</time>
      </trkpt>
      <trkpt lat="48.69873" lon="1.69647">
        <ele>162.39999389648</ele>
        <time>2011-10-08T09:48:45.000Z</time>
      </trkpt>
      <trkpt lat="48.69873" lon="1.69651">
        <ele>162.39999389648</ele>
        <time>2011-10-08T09:48:47.000Z</time>
      </trkpt>
      <trkpt lat="48.69878" lon="1.69667">
        <ele>162.60000610352</ele>
        <time>2011-10-08T09:48:54.000Z</time>
      </trkpt>
      <trkpt lat="48.69885" lon="1.69687">
        <ele>163.80000305176</ele>
        <time>2011-10-08T09:49:03.000Z</time>
      </trkpt>
      <trkpt lat="48.69893" lon="1.69704">
        <ele>164.80000305176</ele>
        <time>2011-10-08T09:49:10.000Z</time>
      </trkpt>
      <trkpt lat="48.699" lon="1.69722">
        <ele>166</ele>
        <time>2011-10-08T09:49:18.000Z</time>
      </trkpt>
      <trkpt lat="48.69903" lon="1.69728">
        <ele>166.39999389648</ele>
        <time>2011-10-08T09:49:21.000Z</time>
      </trkpt>
      <trkpt lat="48.69908" lon="1.69744">
        <ele>167.19999694824</ele>
        <time>2011-10-08T09:49:28.000Z</time>
      </trkpt>
      <trkpt lat="48.69908" lon="1.69754">
        <ele>167.80000305176</ele>
        <time>2011-10-08T09:49:33.000Z</time>
      </trkpt>
      <trkpt lat="48.69913" lon="1.69767">
        <ele>168.80000305176</ele>
        <time>2011-10-08T09:49:39.000Z</time>
      </trkpt>
      <trkpt lat="48.69917" lon="1.69782">
        <ele>169.80000305176</ele>
        <time>2011-10-08T09:49:46.000Z</time>
      </trkpt>
      <trkpt lat="48.69924" lon="1.69799">
        <ele>171</ele>
        <time>2011-10-08T09:49:54.000Z</time>
      </trkpt>
      <trkpt lat="48.6993" lon="1.69814">
        <ele>172</ele>
        <time>2011-10-08T09:50:01.000Z</time>
      </trkpt>
      <trkpt lat="48.69935" lon="1.69824">
        <ele>172.39999389648</ele>
        <time>2011-10-08T09:50:05.000Z</time>
      </trkpt>
      <trkpt lat="48.6994" lon="1.69845">
        <ele>173.19999694824</ele>
        <time>2011-10-08T09:50:14.000Z</time>
      </trkpt>
      <trkpt lat="48.69943" lon="1.69856">
        <ele>173.60000610352</ele>
        <time>2011-10-08T09:50:19.000Z</time>
      </trkpt>
      <trkpt lat="48.69948" lon="1.69869">
        <ele>174</ele>
        <time>2011-10-08T09:50:25.000Z</time>
      </trkpt>
      <trkpt lat="48.69952" lon="1.69879">
        <ele>174.39999389648</ele>
        <time>2011-10-08T09:50:29.000Z</time>
      </trkpt>
      <trkpt lat="48.69959" lon="1.69894">
        <ele>174.80000305176</ele>
        <time>2011-10-08T09:50:36.000Z</time>
      </trkpt>
      <trkpt lat="48.69965" lon="1.69907">
        <ele>175</ele>
        <time>2011-10-08T09:50:42.000Z</time>
      </trkpt>
      <trkpt lat="48.6997" lon="1.69916">
        <ele>175.19999694824</ele>
        <time>2011-10-08T09:50:47.000Z</time>
      </trkpt>
      <trkpt lat="48.69978" lon="1.69926">
        <ele>175.39999389648</ele>
        <time>2011-10-08T09:50:53.000Z</time>
      </trkpt>
      <trkpt lat="48.69986" lon="1.69939">
        <ele>175.60000610352</ele>
        <time>2011-10-08T09:51:00.000Z</time>
      </trkpt>
      <trkpt lat="48.69993" lon="1.69948">
        <ele>175.80000305176</ele>
        <time>2011-10-08T09:51:05.000Z</time>
      </trkpt>
      <trkpt lat="48.7" lon="1.69959">
        <ele>176</ele>
        <time>2011-10-08T09:51:11.000Z</time>
      </trkpt>
      <trkpt lat="48.70008" lon="1.69972">
        <ele>176.60000610352</ele>
        <time>2011-10-08T09:51:18.000Z</time>
      </trkpt>
      <trkpt lat="48.70012" lon="1.69978">
        <ele>177</ele>
        <time>2011-10-08T09:51:22.000Z</time>
      </trkpt>
      <trkpt lat="48.70023" lon="1.69992">
        <ele>177.80000305176</ele>
        <time>2011-10-08T09:51:30.000Z</time>
      </trkpt>
      <trkpt lat="48.70031" lon="1.70005">
        <ele>178.39999389648</ele>
        <time>2011-10-08T09:51:37.000Z</time>
      </trkpt>
      <trkpt lat="48.70034" lon="1.7001">
        <ele>178.60000610352</ele>
        <time>2011-10-08T09:51:41.000Z</time>
      </trkpt>
      <trkpt lat="48.70039" lon="1.70023">
        <ele>179</ele>
        <time>2011-10-08T09:51:45.000Z</time>
      </trkpt>
      <trkpt lat="48.7006" lon="1.70052">
        <ele>180</ele>
        <time>2011-10-08T09:51:52.000Z</time>
      </trkpt>
      <trkpt lat="48.70076" lon="1.70075">
        <ele>180.60000610352</ele>
        <time>2011-10-08T09:51:57.000Z</time>
      </trkpt>
      <trkpt lat="48.70099" lon="1.70112">
        <ele>180.19999694824</ele>
        <time>2011-10-08T09:52:05.000Z</time>
      </trkpt>
      <trkpt lat="48.70108" lon="1.70126">
        <ele>179.80000305176</ele>
        <time>2011-10-08T09:52:08.000Z</time>
      </trkpt>
      <trkpt lat="48.70126" lon="1.70163">
        <ele>178.60000610352</ele>
        <time>2011-10-08T09:52:15.000Z</time>
      </trkpt>
      <trkpt lat="48.7013" lon="1.70175">
        <ele>178.19999694824</ele>
        <time>2011-10-08T09:52:17.000Z</time>
      </trkpt>
      <trkpt lat="48.70141" lon="1.70206">
        <ele>177.60000610352</ele>
        <time>2011-10-08T09:52:22.000Z</time>
      </trkpt>
      <trkpt lat="48.7015" lon="1.70231">
        <ele>177.19999694824</ele>
        <time>2011-10-08T09:52:26.000Z</time>
      </trkpt>
      <trkpt lat="48.70161" lon="1.70254">
        <ele>176.80000305176</ele>
        <time>2011-10-08T09:52:30.000Z</time>
      </trkpt>
      <trkpt lat="48.70169" lon="1.70281">
        <ele>177.39999389648</ele>
        <time>2011-10-08T09:52:36.000Z</time>
      </trkpt>
      <trkpt lat="48.70172" lon="1.70294">
        <ele>177.80000305176</ele>
        <time>2011-10-08T09:52:40.000Z</time>
      </trkpt>
      <trkpt lat="48.70179" lon="1.70314">
        <ele>178.39999389648</ele>
        <time>2011-10-08T09:52:46.000Z</time>
      </trkpt>
      <trkpt lat="48.70188" lon="1.70337">
        <ele>179.19999694824</ele>
        <time>2011-10-08T09:52:53.000Z</time>
      </trkpt>
      <trkpt lat="48.70193" lon="1.70359">
        <ele>179.80000305176</ele>
        <time>2011-10-08T09:53:00.000Z</time>
      </trkpt>
      <trkpt lat="48.70198" lon="1.70378">
        <ele>180.39999389648</ele>
        <time>2011-10-08T09:53:04.000Z</time>
      </trkpt>
      <trkpt lat="48.70207" lon="1.70401">
        <ele>181.19999694824</ele>
        <time>2011-10-08T09:53:09.000Z</time>
      </trkpt>
      <trkpt lat="48.70216" lon="1.70423">
        <ele>181.80000305176</ele>
        <time>2011-10-08T09:53:14.000Z</time>
      </trkpt>
      <trkpt lat="48.70226" lon="1.7045">
        <ele>181.80000305176</ele>
        <time>2011-10-08T09:53:20.000Z</time>
      </trkpt>
      <trkpt lat="48.70238" lon="1.70481">
        <ele>181.80000305176</ele>
        <time>2011-10-08T09:53:27.000Z</time>
      </trkpt>
      <trkpt lat="48.70248" lon="1.70517">
        <ele>181.60000610352</ele>
        <time>2011-10-08T09:53:35.000Z</time>
      </trkpt>
      <trkpt lat="48.70259" lon="1.70541">
        <ele>181.80000305176</ele>
        <time>2011-10-08T09:53:40.000Z</time>
      </trkpt>
      <trkpt lat="48.70265" lon="1.70555">
        <ele>182</ele>
        <time>2011-10-08T09:53:43.000Z</time>
      </trkpt>
      <trkpt lat="48.70273" lon="1.70575">
        <ele>182.39999389648</ele>
        <time>2011-10-08T09:53:47.000Z</time>
      </trkpt>
      <trkpt lat="48.7028" lon="1.70593">
        <ele>182.80000305176</ele>
        <time>2011-10-08T09:53:51.000Z</time>
      </trkpt>
      <trkpt lat="48.70285" lon="1.70614">
        <ele>183</ele>
        <time>2011-10-08T09:53:55.000Z</time>
      </trkpt>
      <trkpt lat="48.70292" lon="1.70635">
        <ele>183.39999389648</ele>
        <time>2011-10-08T09:53:59.000Z</time>
      </trkpt>
      <trkpt lat="48.70303" lon="1.7066">
        <ele>184</ele>
        <time>2011-10-08T09:54:04.000Z</time>
      </trkpt>
      <trkpt lat="48.70307" lon="1.70672">
        <ele>184.19999694824</ele>
        <time>2011-10-08T09:54:06.000Z</time>
      </trkpt>
      <trkpt lat="48.70315" lon="1.70703">
        <ele>184.39999389648</ele>
        <time>2011-10-08T09:54:12.000Z</time>
      </trkpt>
      <trkpt lat="48.70324" lon="1.7073">
        <ele>184.19999694824</ele>
        <time>2011-10-08T09:54:17.000Z</time>
      </trkpt>
      <trkpt lat="48.7033" lon="1.70752">
        <ele>183.80000305176</ele>
        <time>2011-10-08T09:54:21.000Z</time>
      </trkpt>
      <trkpt lat="48.7034" lon="1.70783">
        <ele>184.80000305176</ele>
        <time>2011-10-08T09:54:27.000Z</time>
      </trkpt>
      <trkpt lat="48.70346" lon="1.70811">
        <ele>185.60000610352</ele>
        <time>2011-10-08T09:54:32.000Z</time>
      </trkpt>
      <trkpt lat="48.70353" lon="1.70831">
        <ele>186</ele>
        <time>2011-10-08T09:54:36.000Z</time>
      </trkpt>
      <trkpt lat="48.70365" lon="1.70857">
        <ele>186.39999389648</ele>
        <time>2011-10-08T09:54:41.000Z</time>
      </trkpt>
      <trkpt lat="48.70367" lon="1.70862">
        <ele>186.60000610352</ele>
        <time>2011-10-08T09:54:42.000Z</time>
      </trkpt>
      <trkpt lat="48.70373" lon="1.70878">
        <ele>186.60000610352</ele>
        <time>2011-10-08T09:54:45.000Z</time>
      </trkpt>
      <trkpt lat="48.70388" lon="1.7091">
        <ele>186.80000305176</ele>
        <time>2011-10-08T09:54:51.000Z</time>
      </trkpt>
      <trkpt lat="48.70391" lon="1.70922">
        <ele>186.80000305176</ele>
        <time>2011-10-08T09:54:53.000Z</time>
      </trkpt>
      <trkpt lat="48.704" lon="1.70949">
        <ele>186.80000305176</ele>
        <time>2011-10-08T09:54:59.000Z</time>
      </trkpt>
      <trkpt lat="48.70411" lon="1.70977">
        <ele>186.80000305176</ele>
        <time>2011-10-08T09:55:05.000Z</time>
      </trkpt>
      <trkpt lat="48.70419" lon="1.70994">
        <ele>186.80000305176</ele>
        <time>2011-10-08T09:55:09.000Z</time>
      </trkpt>
      <trkpt lat="48.70425" lon="1.71011">
        <ele>186.39999389648</ele>
        <time>2011-10-08T09:55:13.000Z</time>
      </trkpt>
      <trkpt lat="48.70433" lon="1.71038">
        <ele>185.60000610352</ele>
        <time>2011-10-08T09:55:18.000Z</time>
      </trkpt>
      <trkpt lat="48.7044" lon="1.71063">
        <ele>185.19999694824</ele>
        <time>2011-10-08T09:55:23.000Z</time>
      </trkpt>
      <trkpt lat="48.70446" lon="1.71084">
        <ele>185</ele>
        <time>2011-10-08T09:55:27.000Z</time>
      </trkpt>
      <trkpt lat="48.70453" lon="1.71107">
        <ele>185</ele>
        <time>2011-10-08T09:55:32.000Z</time>
      </trkpt>
      <trkpt lat="48.70462" lon="1.71122">
        <ele>185.19999694824</ele>
        <time>2011-10-08T09:55:37.000Z</time>
      </trkpt>
      <trkpt lat="48.70465" lon="1.71125">
        <ele>185.19999694824</ele>
        <time>2011-10-08T09:55:39.000Z</time>
      </trkpt>
      <trkpt lat="48.70478" lon="1.71136">
        <ele>185</ele>
        <time>2011-10-08T09:55:46.000Z</time>
      </trkpt>
      <trkpt lat="48.70482" lon="1.71147">
        <ele>185</ele>
        <time>2011-10-08T09:55:51.000Z</time>
      </trkpt>
      <trkpt lat="48.70485" lon="1.71157">
        <ele>185</ele>
        <time>2011-10-08T09:55:55.000Z</time>
      </trkpt>
      <trkpt lat="48.70491" lon="1.71162">
        <ele>185</ele>
        <time>2011-10-08T09:56:02.000Z</time>
      </trkpt>
      <trkpt lat="48.70491" lon="1.71161">
        <ele>185</ele>
        <time>2011-10-08T09:56:03.000Z</time>
      </trkpt>
      <trkpt lat="48.7049" lon="1.71157">
        <ele>185</ele>
        <time>2011-10-08T09:56:06.000Z</time>
      </trkpt>
      <trkpt lat="48.70493" lon="1.7116">
        <ele>185</ele>
        <time>2011-10-08T09:56:11.000Z</time>
      </trkpt>
      <trkpt lat="48.70488" lon="1.71157">
        <ele>185</ele>
        <time>2011-10-08T09:56:41.000Z</time>
      </trkpt>
      <trkpt lat="48.70487" lon="1.71163">
        <ele>185</ele>
        <time>2011-10-08T09:56:43.000Z</time>
      </trkpt>
      <trkpt lat="48.7049" lon="1.71171">
        <ele>185</ele>
        <time>2011-10-08T09:56:48.000Z</time>
      </trkpt>
      <trkpt lat="48.7049" lon="1.7118">
        <ele>185.19999694824</ele>
        <time>2011-10-08T09:56:53.000Z</time>
      </trkpt>
      <trkpt lat="48.70488" lon="1.71188">
        <ele>185.19999694824</ele>
        <time>2011-10-08T09:56:57.000Z</time>
      </trkpt>
      <trkpt lat="48.70484" lon="1.71204">
        <ele>185.60000610352</ele>
        <time>2011-10-08T09:57:04.000Z</time>
      </trkpt>
      <trkpt lat="48.70481" lon="1.71215">
        <ele>185.80000305176</ele>
        <time>2011-10-08T09:57:09.000Z</time>
      </trkpt>
      <trkpt lat="48.70476" lon="1.71231">
        <ele>186</ele>
        <time>2011-10-08T09:57:16.000Z</time>
      </trkpt>
      <trkpt lat="48.70472" lon="1.71247">
        <ele>186.19999694824</ele>
        <time>2011-10-08T09:57:23.000Z</time>
      </trkpt>
      <trkpt lat="48.70467" lon="1.71264">
        <ele>186.39999389648</ele>
        <time>2011-10-08T09:57:30.000Z</time>
      </trkpt>
      <trkpt lat="48.70466" lon="1.71282">
        <ele>186.60000610352</ele>
        <time>2011-10-08T09:57:37.000Z</time>
      </trkpt>
      <trkpt lat="48.70466" lon="1.71299">
        <ele>186.80000305176</ele>
        <time>2011-10-08T09:57:43.000Z</time>
      </trkpt>
      <trkpt lat="48.70463" lon="1.71319">
        <ele>186.80000305176</ele>
        <time>2011-10-08T09:57:51.000Z</time>
      </trkpt>
      <trkpt lat="48.70461" lon="1.71331">
        <ele>187</ele>
        <time>2011-10-08T09:57:56.000Z</time>
      </trkpt>
      <trkpt lat="48.70457" lon="1.71345">
        <ele>186.80000305176</ele>
        <time>2011-10-08T09:58:02.000Z</time>
      </trkpt>
      <trkpt lat="48.70454" lon="1.71357">
        <ele>186.80000305176</ele>
        <time>2011-10-08T09:58:07.000Z</time>
      </trkpt>
      <trkpt lat="48.7045" lon="1.71371">
        <ele>186.60000610352</ele>
        <time>2011-10-08T09:58:13.000Z</time>
      </trkpt>
      <trkpt lat="48.70447" lon="1.71384">
        <ele>186.39999389648</ele>
        <time>2011-10-08T09:58:18.000Z</time>
      </trkpt>
      <trkpt lat="48.70442" lon="1.71393">
        <ele>186.19999694824</ele>
        <time>2011-10-08T09:58:22.000Z</time>
      </trkpt>
      <trkpt lat="48.7044" lon="1.71403">
        <ele>186</ele>
        <time>2011-10-08T09:58:26.000Z</time>
      </trkpt>
      <trkpt lat="48.70435" lon="1.71415">
        <ele>185.80000305176</ele>
        <time>2011-10-08T09:58:31.000Z</time>
      </trkpt>
      <trkpt lat="48.70434" lon="1.71417">
        <ele>185.80000305176</ele>
        <time>2011-10-08T09:58:32.000Z</time>
      </trkpt>
      <trkpt lat="48.70434" lon="1.71423">
        <ele>185.80000305176</ele>
        <time>2011-10-08T09:58:38.000Z</time>
      </trkpt>
      <trkpt lat="48.70434" lon="1.71424">
        <ele>185.80000305176</ele>
        <time>2011-10-08T09:58:40.000Z</time>
      </trkpt>
      <trkpt lat="48.70434" lon="1.71422">
        <ele>185.80000305176</ele>
        <time>2011-10-08T09:58:48.000Z</time>
      </trkpt>
      <trkpt lat="48.70433" lon="1.71423">
        <ele>185.60000610352</ele>
        <time>2011-10-08T09:58:51.000Z</time>
      </trkpt>
      <trkpt lat="48.7043" lon="1.71422">
        <ele>185.60000610352</ele>
        <time>2011-10-08T09:59:01.000Z</time>
      </trkpt>
      <trkpt lat="48.7043" lon="1.71424">
        <ele>185.60000610352</ele>
        <time>2011-10-08T09:59:07.000Z</time>
      </trkpt>
      <trkpt lat="48.70427" lon="1.71439">
        <ele>185.60000610352</ele>
        <time>2011-10-08T10:00:21.000Z</time>
      </trkpt>
      <trkpt lat="48.70428" lon="1.7145">
        <ele>185.60000610352</ele>
        <time>2011-10-08T10:00:25.000Z</time>
      </trkpt>
      <trkpt lat="48.70427" lon="1.71459">
        <ele>185.80000305176</ele>
        <time>2011-10-08T10:00:29.000Z</time>
      </trkpt>
      <trkpt lat="48.70424" lon="1.7147">
        <ele>185.80000305176</ele>
        <time>2011-10-08T10:00:35.000Z</time>
      </trkpt>
      <trkpt lat="48.70423" lon="1.71482">
        <ele>185.80000305176</ele>
        <time>2011-10-08T10:00:41.000Z</time>
      </trkpt>
      <trkpt lat="48.70421" lon="1.71496">
        <ele>186</ele>
        <time>2011-10-08T10:00:47.000Z</time>
      </trkpt>
      <trkpt lat="48.70414" lon="1.71517">
        <ele>185.60000610352</ele>
        <time>2011-10-08T10:00:57.000Z</time>
      </trkpt>
      <trkpt lat="48.70409" lon="1.7153">
        <ele>185.39999389648</ele>
        <time>2011-10-08T10:01:03.000Z</time>
      </trkpt>
      <trkpt lat="48.70409" lon="1.71536">
        <ele>185.39999389648</ele>
        <time>2011-10-08T10:01:06.000Z</time>
      </trkpt>
      <trkpt lat="48.70408" lon="1.71553">
        <ele>185</ele>
        <time>2011-10-08T10:01:12.000Z</time>
      </trkpt>
      <trkpt lat="48.70403" lon="1.71568">
        <ele>184.80000305176</ele>
        <time>2011-10-08T10:01:19.000Z</time>
      </trkpt>
      <trkpt lat="48.70397" lon="1.71584">
        <ele>184.39999389648</ele>
        <time>2011-10-08T10:01:26.000Z</time>
      </trkpt>
      <trkpt lat="48.70394" lon="1.71602">
        <ele>184.60000610352</ele>
        <time>2011-10-08T10:01:33.000Z</time>
      </trkpt>
      <trkpt lat="48.70393" lon="1.71615">
        <ele>184.80000305176</ele>
        <time>2011-10-08T10:01:38.000Z</time>
      </trkpt>
      <trkpt lat="48.70391" lon="1.71626">
        <ele>184.80000305176</ele>
        <time>2011-10-08T10:01:43.000Z</time>
      </trkpt>
      <trkpt lat="48.7039" lon="1.71635">
        <ele>184.80000305176</ele>
        <time>2011-10-08T10:01:47.000Z</time>
      </trkpt>
      <trkpt lat="48.70388" lon="1.71646">
        <ele>185</ele>
        <time>2011-10-08T10:01:52.000Z</time>
      </trkpt>
      <trkpt lat="48.70386" lon="1.71654">
        <ele>185</ele>
        <time>2011-10-08T10:01:55.000Z</time>
      </trkpt>
      <trkpt lat="48.70384" lon="1.71673">
        <ele>185.19999694824</ele>
        <time>2011-10-08T10:02:02.000Z</time>
      </trkpt>
      <trkpt lat="48.70382" lon="1.71685">
        <ele>185.39999389648</ele>
        <time>2011-10-08T10:02:07.000Z</time>
      </trkpt>
      <trkpt lat="48.70381" lon="1.71695">
        <ele>185.60000610352</ele>
        <time>2011-10-08T10:02:12.000Z</time>
      </trkpt>
      <trkpt lat="48.70376" lon="1.71709">
        <ele>185.60000610352</ele>
        <time>2011-10-08T10:02:19.000Z</time>
      </trkpt>
      <trkpt lat="48.70373" lon="1.71725">
        <ele>186</ele>
        <time>2011-10-08T10:02:26.000Z</time>
      </trkpt>
      <trkpt lat="48.70375" lon="1.71738">
        <ele>186.19999694824</ele>
        <time>2011-10-08T10:02:32.000Z</time>
      </trkpt>
      <trkpt lat="48.70373" lon="1.71745">
        <ele>186.19999694824</ele>
        <time>2011-10-08T10:02:35.000Z</time>
      </trkpt>
      <trkpt lat="48.70372" lon="1.71752">
        <ele>186.39999389648</ele>
        <time>2011-10-08T10:02:38.000Z</time>
      </trkpt>
      <trkpt lat="48.7037" lon="1.71759">
        <ele>186.19999694824</ele>
        <time>2011-10-08T10:02:41.000Z</time>
      </trkpt>
      <trkpt lat="48.70365" lon="1.71775">
        <ele>185.80000305176</ele>
        <time>2011-10-08T10:02:48.000Z</time>
      </trkpt>
      <trkpt lat="48.70362" lon="1.7179">
        <ele>185.39999389648</ele>
        <time>2011-10-08T10:02:54.000Z</time>
      </trkpt>
      <trkpt lat="48.70357" lon="1.718">
        <ele>185.19999694824</ele>
        <time>2011-10-08T10:02:58.000Z</time>
      </trkpt>
      <trkpt lat="48.70354" lon="1.71812">
        <ele>184.80000305176</ele>
        <time>2011-10-08T10:03:03.000Z</time>
      </trkpt>
      <trkpt lat="48.70352" lon="1.71819">
        <ele>184.60000610352</ele>
        <time>2011-10-08T10:03:08.000Z</time>
      </trkpt>
      <trkpt lat="48.70352" lon="1.71818">
        <ele>184.60000610352</ele>
        <time>2011-10-08T10:03:09.000Z</time>
      </trkpt>
      <trkpt lat="48.70356" lon="1.71834">
        <ele>184.39999389648</ele>
        <time>2011-10-08T10:03:37.000Z</time>
      </trkpt>
      <trkpt lat="48.70353" lon="1.71852">
        <ele>184.19999694824</ele>
        <time>2011-10-08T10:03:44.000Z</time>
      </trkpt>
      <trkpt lat="48.70346" lon="1.71873">
        <ele>183.80000305176</ele>
        <time>2011-10-08T10:03:53.000Z</time>
      </trkpt>
      <trkpt lat="48.70339" lon="1.71892">
        <ele>183.39999389648</ele>
        <time>2011-10-08T10:04:02.000Z</time>
      </trkpt>
      <trkpt lat="48.70333" lon="1.7191">
        <ele>183</ele>
        <time>2011-10-08T10:04:10.000Z</time>
      </trkpt>
      <trkpt lat="48.7033" lon="1.71921">
        <ele>182.80000305176</ele>
        <time>2011-10-08T10:04:15.000Z</time>
      </trkpt>
      <trkpt lat="48.70325" lon="1.71939">
        <ele>182.60000610352</ele>
        <time>2011-10-08T10:04:23.000Z</time>
      </trkpt>
      <trkpt lat="48.70321" lon="1.71953">
        <ele>182.39999389648</ele>
        <time>2011-10-08T10:04:29.000Z</time>
      </trkpt>
      <trkpt lat="48.70316" lon="1.71968">
        <ele>182</ele>
        <time>2011-10-08T10:04:36.000Z</time>
      </trkpt>
      <trkpt lat="48.70311" lon="1.71989">
        <ele>181.60000610352</ele>
        <time>2011-10-08T10:04:45.000Z</time>
      </trkpt>
      <trkpt lat="48.70306" lon="1.7201">
        <ele>181.60000610352</ele>
        <time>2011-10-08T10:04:54.000Z</time>
      </trkpt>
      <trkpt lat="48.70302" lon="1.72032">
        <ele>182</ele>
        <time>2011-10-08T10:05:03.000Z</time>
      </trkpt>
      <trkpt lat="48.70298" lon="1.72047">
        <ele>182.19999694824</ele>
        <time>2011-10-08T10:05:09.000Z</time>
      </trkpt>
      <trkpt lat="48.70294" lon="1.72061">
        <ele>182.39999389648</ele>
        <time>2011-10-08T10:05:15.000Z</time>
      </trkpt>
      <trkpt lat="48.7029" lon="1.72078">
        <ele>182.60000610352</ele>
        <time>2011-10-08T10:05:22.000Z</time>
      </trkpt>
      <trkpt lat="48.7029" lon="1.72083">
        <ele>182.80000305176</ele>
        <time>2011-10-08T10:05:24.000Z</time>
      </trkpt>
      <trkpt lat="48.70288" lon="1.72097">
        <ele>183</ele>
        <time>2011-10-08T10:05:30.000Z</time>
      </trkpt>
      <trkpt lat="48.70283" lon="1.72115">
        <ele>183.39999389648</ele>
        <time>2011-10-08T10:05:38.000Z</time>
      </trkpt>
      <trkpt lat="48.70278" lon="1.72137">
        <ele>183.80000305176</ele>
        <time>2011-10-08T10:05:47.000Z</time>
      </trkpt>
      <trkpt lat="48.70275" lon="1.72153">
        <ele>184</ele>
        <time>2011-10-08T10:05:53.000Z</time>
      </trkpt>
      <trkpt lat="48.7027" lon="1.72171">
        <ele>184.39999389648</ele>
        <time>2011-10-08T10:06:00.000Z</time>
      </trkpt>
      <trkpt lat="48.70264" lon="1.72192">
        <ele>184.39999389648</ele>
        <time>2011-10-08T10:06:08.000Z</time>
      </trkpt>
      <trkpt lat="48.70261" lon="1.7221">
        <ele>184.60000610352</ele>
        <time>2011-10-08T10:06:15.000Z</time>
      </trkpt>
      <trkpt lat="48.70257" lon="1.72225">
        <ele>184.80000305176</ele>
        <time>2011-10-08T10:06:21.000Z</time>
      </trkpt>
      <trkpt lat="48.70257" lon="1.72234">
        <ele>184.80000305176</ele>
        <time>2011-10-08T10:06:25.000Z</time>
      </trkpt>
      <trkpt lat="48.70256" lon="1.72253">
        <ele>185</ele>
        <time>2011-10-08T10:06:32.000Z</time>
      </trkpt>
      <trkpt lat="48.70254" lon="1.72268">
        <ele>185</ele>
        <time>2011-10-08T10:06:38.000Z</time>
      </trkpt>
      <trkpt lat="48.70252" lon="1.72278">
        <ele>185</ele>
        <time>2011-10-08T10:06:42.000Z</time>
      </trkpt>
      <trkpt lat="48.70247" lon="1.72293">
        <ele>184.80000305176</ele>
        <time>2011-10-08T10:06:48.000Z</time>
      </trkpt>
      <trkpt lat="48.70242" lon="1.72309">
        <ele>184.60000610352</ele>
        <time>2011-10-08T10:06:55.000Z</time>
      </trkpt>
      <trkpt lat="48.70239" lon="1.72324">
        <ele>184.60000610352</ele>
        <time>2011-10-08T10:07:01.000Z</time>
      </trkpt>
      <trkpt lat="48.70237" lon="1.72342">
        <ele>184.39999389648</ele>
        <time>2011-10-08T10:07:08.000Z</time>
      </trkpt>
      <trkpt lat="48.70237" lon="1.72353">
        <ele>184</ele>
        <time>2011-10-08T10:07:13.000Z</time>
      </trkpt>
      <trkpt lat="48.70237" lon="1.72356">
        <ele>184</ele>
        <time>2011-10-08T10:07:17.000Z</time>
      </trkpt>
      <trkpt lat="48.70236" lon="1.72361">
        <ele>184</ele>
        <time>2011-10-08T10:07:20.000Z</time>
      </trkpt>
      <trkpt lat="48.70233" lon="1.72373">
        <ele>183.60000610352</ele>
        <time>2011-10-08T10:07:24.000Z</time>
      </trkpt>
      <trkpt lat="48.70228" lon="1.72386">
        <ele>183.39999389648</ele>
        <time>2011-10-08T10:07:30.000Z</time>
      </trkpt>
      <trkpt lat="48.70228" lon="1.7239">
        <ele>183.39999389648</ele>
        <time>2011-10-08T10:07:32.000Z</time>
      </trkpt>
      <trkpt lat="48.70229" lon="1.72401">
        <ele>183.19999694824</ele>
        <time>2011-10-08T10:07:36.000Z</time>
      </trkpt>
      <trkpt lat="48.70226" lon="1.72417">
        <ele>183</ele>
        <time>2011-10-08T10:07:42.000Z</time>
      </trkpt>
      <trkpt lat="48.70222" lon="1.72437">
        <ele>182.80000305176</ele>
        <time>2011-10-08T10:07:50.000Z</time>
      </trkpt>
      <trkpt lat="48.70218" lon="1.7245">
        <ele>182.80000305176</ele>
        <time>2011-10-08T10:07:55.000Z</time>
      </trkpt>
      <trkpt lat="48.70214" lon="1.72467">
        <ele>182.60000610352</ele>
        <time>2011-10-08T10:08:02.000Z</time>
      </trkpt>
      <trkpt lat="48.70213" lon="1.7248">
        <ele>182.60000610352</ele>
        <time>2011-10-08T10:08:07.000Z</time>
      </trkpt>
      <trkpt lat="48.7021" lon="1.72496">
        <ele>182.39999389648</ele>
        <time>2011-10-08T10:08:13.000Z</time>
      </trkpt>
      <trkpt lat="48.70206" lon="1.72514">
        <ele>182.19999694824</ele>
        <time>2011-10-08T10:08:20.000Z</time>
      </trkpt>
      <trkpt lat="48.70204" lon="1.7253">
        <ele>182</ele>
        <time>2011-10-08T10:08:26.000Z</time>
      </trkpt>
      <trkpt lat="48.70201" lon="1.72547">
        <ele>181.80000305176</ele>
        <time>2011-10-08T10:08:33.000Z</time>
      </trkpt>
      <trkpt lat="48.70196" lon="1.72561">
        <ele>181.80000305176</ele>
        <time>2011-10-08T10:08:39.000Z</time>
      </trkpt>
      <trkpt lat="48.7019" lon="1.72583">
        <ele>182</ele>
        <time>2011-10-08T10:08:48.000Z</time>
      </trkpt>
      <trkpt lat="48.70186" lon="1.72598">
        <ele>181.80000305176</ele>
        <time>2011-10-08T10:08:55.000Z</time>
      </trkpt>
      <trkpt lat="48.70186" lon="1.72599">
        <ele>181.60000610352</ele>
        <time>2011-10-08T10:08:58.000Z</time>
      </trkpt>
      <trkpt lat="48.70181" lon="1.72613">
        <ele>181.39999389648</ele>
        <time>2011-10-08T10:09:12.000Z</time>
      </trkpt>
      <trkpt lat="48.7018" lon="1.72627">
        <ele>181</ele>
        <time>2011-10-08T10:09:17.000Z</time>
      </trkpt>
      <trkpt lat="48.70179" lon="1.7263">
        <ele>180.80000305176</ele>
        <time>2011-10-08T10:09:19.000Z</time>
      </trkpt>
      <trkpt lat="48.70174" lon="1.72648">
        <ele>180.39999389648</ele>
        <time>2011-10-08T10:09:27.000Z</time>
      </trkpt>
      <trkpt lat="48.7017" lon="1.72667">
        <ele>179.60000610352</ele>
        <time>2011-10-08T10:09:35.000Z</time>
      </trkpt>
      <trkpt lat="48.70166" lon="1.7269">
        <ele>178.80000305176</ele>
        <time>2011-10-08T10:09:44.000Z</time>
      </trkpt>
      <trkpt lat="48.70161" lon="1.72709">
        <ele>178</ele>
        <time>2011-10-08T10:09:52.000Z</time>
      </trkpt>
      <trkpt lat="48.70156" lon="1.72725">
        <ele>177.39999389648</ele>
        <time>2011-10-08T10:09:59.000Z</time>
      </trkpt>
      <trkpt lat="48.7015" lon="1.72747">
        <ele>177</ele>
        <time>2011-10-08T10:10:08.000Z</time>
      </trkpt>
      <trkpt lat="48.70145" lon="1.72763">
        <ele>177</ele>
        <time>2011-10-08T10:10:15.000Z</time>
      </trkpt>
      <trkpt lat="48.70138" lon="1.72783">
        <ele>177</ele>
        <time>2011-10-08T10:10:23.000Z</time>
      </trkpt>
      <trkpt lat="48.70135" lon="1.72793">
        <ele>177.19999694824</ele>
        <time>2011-10-08T10:10:28.000Z</time>
      </trkpt>
      <trkpt lat="48.70131" lon="1.72811">
        <ele>177.19999694824</ele>
        <time>2011-10-08T10:10:36.000Z</time>
      </trkpt>
      <trkpt lat="48.70124" lon="1.7283">
        <ele>177.60000610352</ele>
        <time>2011-10-08T10:10:44.000Z</time>
      </trkpt>
      <trkpt lat="48.70117" lon="1.72849">
        <ele>177.80000305176</ele>
        <time>2011-10-08T10:10:52.000Z</time>
      </trkpt>
      <trkpt lat="48.70111" lon="1.72865">
        <ele>178</ele>
        <time>2011-10-08T10:10:59.000Z</time>
      </trkpt>
      <trkpt lat="48.70104" lon="1.72886">
        <ele>178</ele>
        <time>2011-10-08T10:11:08.000Z</time>
      </trkpt>
      <trkpt lat="48.70102" lon="1.72895">
        <ele>178</ele>
        <time>2011-10-08T10:11:14.000Z</time>
      </trkpt>
      <trkpt lat="48.70102" lon="1.72895">
        <ele>178</ele>
        <time>2011-10-08T10:11:15.000Z</time>
      </trkpt>
      <trkpt lat="48.70099" lon="1.72902">
        <ele>178</ele>
        <time>2011-10-08T10:11:21.000Z</time>
      </trkpt>
      <trkpt lat="48.70093" lon="1.72922">
        <ele>178.19999694824</ele>
        <time>2011-10-08T10:11:29.000Z</time>
      </trkpt>
      <trkpt lat="48.70087" lon="1.7294">
        <ele>179</ele>
        <time>2011-10-08T10:11:37.000Z</time>
      </trkpt>
      <trkpt lat="48.70079" lon="1.72963">
        <ele>179.80000305176</ele>
        <time>2011-10-08T10:11:47.000Z</time>
      </trkpt>
      <trkpt lat="48.70073" lon="1.72981">
        <ele>180.60000610352</ele>
        <time>2011-10-08T10:11:55.000Z</time>
      </trkpt>
      <trkpt lat="48.70067" lon="1.73002">
        <ele>181.39999389648</ele>
        <time>2011-10-08T10:12:04.000Z</time>
      </trkpt>
      <trkpt lat="48.70064" lon="1.73015">
        <ele>182</ele>
        <time>2011-10-08T10:12:10.000Z</time>
      </trkpt>
      <trkpt lat="48.70061" lon="1.73028">
        <ele>182.39999389648</ele>
        <time>2011-10-08T10:12:15.000Z</time>
      </trkpt>
      <trkpt lat="48.70055" lon="1.73043">
        <ele>183</ele>
        <time>2011-10-08T10:12:22.000Z</time>
      </trkpt>
      <trkpt lat="48.7005" lon="1.73056">
        <ele>183.39999389648</ele>
        <time>2011-10-08T10:12:28.000Z</time>
      </trkpt>
      <trkpt lat="48.70048" lon="1.73061">
        <ele>183.60000610352</ele>
        <time>2011-10-08T10:12:32.000Z</time>
      </trkpt>
      <trkpt lat="48.70045" lon="1.73067">
        <ele>183.80000305176</ele>
        <time>2011-10-08T10:12:36.000Z</time>
      </trkpt>
      <trkpt lat="48.70039" lon="1.73084">
        <ele>184</ele>
        <time>2011-10-08T10:12:42.000Z</time>
      </trkpt>
      <trkpt lat="48.70031" lon="1.7311">
        <ele>183.60000610352</ele>
        <time>2011-10-08T10:12:48.000Z</time>
      </trkpt>
      <trkpt lat="48.70025" lon="1.73134">
        <ele>182.80000305176</ele>
        <time>2011-10-08T10:12:53.000Z</time>
      </trkpt>
      <trkpt lat="48.70017" lon="1.73157">
        <ele>182.19999694824</ele>
        <time>2011-10-08T10:12:58.000Z</time>
      </trkpt>
      <trkpt lat="48.70005" lon="1.73179">
        <ele>181.19999694824</ele>
        <time>2011-10-08T10:13:03.000Z</time>
      </trkpt>
      <trkpt lat="48.69996" lon="1.73201">
        <ele>180</ele>
        <time>2011-10-08T10:13:08.000Z</time>
      </trkpt>
      <trkpt lat="48.69987" lon="1.73219">
        <ele>178.80000305176</ele>
        <time>2011-10-08T10:13:12.000Z</time>
      </trkpt>
      <trkpt lat="48.6997" lon="1.73247">
        <ele>177</ele>
        <time>2011-10-08T10:13:18.000Z</time>
      </trkpt>
      <trkpt lat="48.69965" lon="1.73258">
        <ele>176.80000305176</ele>
        <time>2011-10-08T10:13:20.000Z</time>
      </trkpt>
      <trkpt lat="48.69953" lon="1.73281">
        <ele>176.80000305176</ele>
        <time>2011-10-08T10:13:25.000Z</time>
      </trkpt>
      <trkpt lat="48.69945" lon="1.73301">
        <ele>177</ele>
        <time>2011-10-08T10:13:29.000Z</time>
      </trkpt>
      <trkpt lat="48.69933" lon="1.73327">
        <ele>177.19999694824</ele>
        <time>2011-10-08T10:13:35.000Z</time>
      </trkpt>
      <trkpt lat="48.69915" lon="1.73357">
        <ele>177.39999389648</ele>
        <time>2011-10-08T10:13:42.000Z</time>
      </trkpt>
      <trkpt lat="48.69902" lon="1.73386">
        <ele>178.19999694824</ele>
        <time>2011-10-08T10:13:48.000Z</time>
      </trkpt>
      <trkpt lat="48.69892" lon="1.7341">
        <ele>178.80000305176</ele>
        <time>2011-10-08T10:13:53.000Z</time>
      </trkpt>
      <trkpt lat="48.69883" lon="1.73428">
        <ele>178.60000610352</ele>
        <time>2011-10-08T10:13:57.000Z</time>
      </trkpt>
      <trkpt lat="48.69871" lon="1.73459">
        <ele>178.19999694824</ele>
        <time>2011-10-08T10:14:04.000Z</time>
      </trkpt>
      <trkpt lat="48.69862" lon="1.7348">
        <ele>178.19999694824</ele>
        <time>2011-10-08T10:14:09.000Z</time>
      </trkpt>
      <trkpt lat="48.69851" lon="1.73509">
        <ele>178.19999694824</ele>
        <time>2011-10-08T10:14:15.000Z</time>
      </trkpt>
      <trkpt lat="48.69841" lon="1.73533">
        <ele>178.60000610352</ele>
        <time>2011-10-08T10:14:20.000Z</time>
      </trkpt>
      <trkpt lat="48.69828" lon="1.73559">
        <ele>179</ele>
        <time>2011-10-08T10:14:26.000Z</time>
      </trkpt>
      <trkpt lat="48.69817" lon="1.73583">
        <ele>179</ele>
        <time>2011-10-08T10:14:31.000Z</time>
      </trkpt>
      <trkpt lat="48.69804" lon="1.73609">
        <ele>179</ele>
        <time>2011-10-08T10:14:37.000Z</time>
      </trkpt>
      <trkpt lat="48.69795" lon="1.73628">
        <ele>179.19999694824</ele>
        <time>2011-10-08T10:14:42.000Z</time>
      </trkpt>
      <trkpt lat="48.69786" lon="1.73643">
        <ele>179.39999389648</ele>
        <time>2011-10-08T10:14:47.000Z</time>
      </trkpt>
      <trkpt lat="48.69779" lon="1.73655">
        <ele>179.39999389648</ele>
        <time>2011-10-08T10:14:53.000Z</time>
      </trkpt>
      <trkpt lat="48.69773" lon="1.73668">
        <ele>179.60000610352</ele>
        <time>2011-10-08T10:14:59.000Z</time>
      </trkpt>
      <trkpt lat="48.69772" lon="1.73689">
        <ele>179</ele>
        <time>2011-10-08T10:15:07.000Z</time>
      </trkpt>
      <trkpt lat="48.69774" lon="1.73704">
        <ele>178.60000610352</ele>
        <time>2011-10-08T10:15:13.000Z</time>
      </trkpt>
      <trkpt lat="48.69773" lon="1.73706">
        <ele>178.39999389648</ele>
        <time>2011-10-08T10:15:14.000Z</time>
      </trkpt>
      <trkpt lat="48.69775" lon="1.73718">
        <ele>178.19999694824</ele>
        <time>2011-10-08T10:15:19.000Z</time>
      </trkpt>
      <trkpt lat="48.69778" lon="1.73737">
        <ele>177.60000610352</ele>
        <time>2011-10-08T10:15:28.000Z</time>
      </trkpt>
      <trkpt lat="48.6978" lon="1.73753">
        <ele>177.19999694824</ele>
        <time>2011-10-08T10:15:35.000Z</time>
      </trkpt>
      <trkpt lat="48.69783" lon="1.73769">
        <ele>176.80000305176</ele>
        <time>2011-10-08T10:15:42.000Z</time>
      </trkpt>
      <trkpt lat="48.69789" lon="1.73789">
        <ele>176.19999694824</ele>
        <time>2011-10-08T10:15:50.000Z</time>
      </trkpt>
      <trkpt lat="48.69791" lon="1.738">
        <ele>175.80000305176</ele>
        <time>2011-10-08T10:15:55.000Z</time>
      </trkpt>
      <trkpt lat="48.69792" lon="1.73804">
        <ele>175.80000305176</ele>
        <time>2011-10-08T10:16:01.000Z</time>
      </trkpt>
      <trkpt lat="48.69795" lon="1.73811">
        <ele>175.60000610352</ele>
        <time>2011-10-08T10:16:08.000Z</time>
      </trkpt>
      <trkpt lat="48.69799" lon="1.73825">
        <ele>175.19999694824</ele>
        <time>2011-10-08T10:16:13.000Z</time>
      </trkpt>
      <trkpt lat="48.69804" lon="1.73845">
        <ele>174.80000305176</ele>
        <time>2011-10-08T10:16:22.000Z</time>
      </trkpt>
      <trkpt lat="48.6981" lon="1.73862">
        <ele>174.39999389648</ele>
        <time>2011-10-08T10:16:29.000Z</time>
      </trkpt>
      <trkpt lat="48.69814" lon="1.73875">
        <ele>174.19999694824</ele>
        <time>2011-10-08T10:16:35.000Z</time>
      </trkpt>
      <trkpt lat="48.69821" lon="1.73895">
        <ele>173.60000610352</ele>
        <time>2011-10-08T10:16:43.000Z</time>
      </trkpt>
      <trkpt lat="48.69824" lon="1.73912">
        <ele>173.19999694824</ele>
        <time>2011-10-08T10:16:50.000Z</time>
      </trkpt>
      <trkpt lat="48.69825" lon="1.73931">
        <ele>172.80000305176</ele>
        <time>2011-10-08T10:16:59.000Z</time>
      </trkpt>
      <trkpt lat="48.6983" lon="1.73949">
        <ele>172.19999694824</ele>
        <time>2011-10-08T10:17:07.000Z</time>
      </trkpt>
      <trkpt lat="48.69835" lon="1.73967">
        <ele>171.80000305176</ele>
        <time>2011-10-08T10:17:15.000Z</time>
      </trkpt>
      <trkpt lat="48.69842" lon="1.73983">
        <ele>171.39999389648</ele>
        <time>2011-10-08T10:17:21.000Z</time>
      </trkpt>
      <trkpt lat="48.69844" lon="1.73991">
        <ele>171.39999389648</ele>
        <time>2011-10-08T10:17:24.000Z</time>
      </trkpt>
      <trkpt lat="48.69847" lon="1.74015">
        <ele>171</ele>
        <time>2011-10-08T10:17:34.000Z</time>
      </trkpt>
      <trkpt lat="48.69851" lon="1.7403">
        <ele>171</ele>
        <time>2011-10-08T10:17:40.000Z</time>
      </trkpt>
      <trkpt lat="48.69858" lon="1.74046">
        <ele>171</ele>
        <time>2011-10-08T10:17:48.000Z</time>
      </trkpt>
      <trkpt lat="48.69861" lon="1.74062">
        <ele>170.80000305176</ele>
        <time>2011-10-08T10:17:55.000Z</time>
      </trkpt>
      <trkpt lat="48.69861" lon="1.74069">
        <ele>170.80000305176</ele>
        <time>2011-10-08T10:17:58.000Z</time>
      </trkpt>
      <trkpt lat="48.69865" lon="1.74091">
        <ele>170.39999389648</ele>
        <time>2011-10-08T10:18:07.000Z</time>
      </trkpt>
      <trkpt lat="48.69867" lon="1.741">
        <ele>170</ele>
        <time>2011-10-08T10:18:13.000Z</time>
      </trkpt>
      <trkpt lat="48.69869" lon="1.74104">
        <ele>169.80000305176</ele>
        <time>2011-10-08T10:18:18.000Z</time>
      </trkpt>
      <trkpt lat="48.69869" lon="1.74105">
        <ele>169.80000305176</ele>
        <time>2011-10-08T10:18:20.000Z</time>
      </trkpt>
      <trkpt lat="48.69873" lon="1.74113">
        <ele>169.60000610352</ele>
        <time>2011-10-08T10:18:35.000Z</time>
      </trkpt>
      <trkpt lat="48.69876" lon="1.74125">
        <ele>169.19999694824</ele>
        <time>2011-10-08T10:18:40.000Z</time>
      </trkpt>
      <trkpt lat="48.6988" lon="1.74128">
        <ele>169.19999694824</ele>
        <time>2011-10-08T10:18:44.000Z</time>
      </trkpt>
      <trkpt lat="48.69883" lon="1.7413">
        <ele>169.19999694824</ele>
        <time>2011-10-08T10:18:47.000Z</time>
      </trkpt>
      <trkpt lat="48.69893" lon="1.74139">
        <ele>169.19999694824</ele>
        <time>2011-10-08T10:18:52.000Z</time>
      </trkpt>
      <trkpt lat="48.69893" lon="1.74145">
        <ele>169</ele>
        <time>2011-10-08T10:18:55.000Z</time>
      </trkpt>
      <trkpt lat="48.69892" lon="1.74161">
        <ele>168.19999694824</ele>
        <time>2011-10-08T10:19:01.000Z</time>
      </trkpt>
      <trkpt lat="48.69893" lon="1.74171">
        <ele>168</ele>
        <time>2011-10-08T10:19:04.000Z</time>
      </trkpt>
      <trkpt lat="48.69897" lon="1.74192">
        <ele>167.80000305176</ele>
        <time>2011-10-08T10:19:12.000Z</time>
      </trkpt>
      <trkpt lat="48.69899" lon="1.74209">
        <ele>167.80000305176</ele>
        <time>2011-10-08T10:19:18.000Z</time>
      </trkpt>
      <trkpt lat="48.69899" lon="1.74219">
        <ele>167.60000610352</ele>
        <time>2011-10-08T10:19:22.000Z</time>
      </trkpt>
      <trkpt lat="48.69899" lon="1.74222">
        <ele>167.60000610352</ele>
        <time>2011-10-08T10:19:24.000Z</time>
      </trkpt>
      <trkpt lat="48.69904" lon="1.74236">
        <ele>167.60000610352</ele>
        <time>2011-10-08T10:19:30.000Z</time>
      </trkpt>
      <trkpt lat="48.69906" lon="1.74246">
        <ele>167.60000610352</ele>
        <time>2011-10-08T10:19:34.000Z</time>
      </trkpt>
      <trkpt lat="48.69911" lon="1.74262">
        <ele>167.39999389648</ele>
        <time>2011-10-08T10:19:40.000Z</time>
      </trkpt>
      <trkpt lat="48.69913" lon="1.74271">
        <ele>167.19999694824</ele>
        <time>2011-10-08T10:19:44.000Z</time>
      </trkpt>
      <trkpt lat="48.69917" lon="1.7428">
        <ele>167.19999694824</ele>
        <time>2011-10-08T10:19:48.000Z</time>
      </trkpt>
      <trkpt lat="48.69918" lon="1.74281">
        <ele>167.19999694824</ele>
        <time>2011-10-08T10:19:50.000Z</time>
      </trkpt>
      <trkpt lat="48.69921" lon="1.74287">
        <ele>167</ele>
        <time>2011-10-08T10:19:54.000Z</time>
      </trkpt>
      <trkpt lat="48.69922" lon="1.74298">
        <ele>166.80000305176</ele>
        <time>2011-10-08T10:20:01.000Z</time>
      </trkpt>
      <trkpt lat="48.69926" lon="1.74316">
        <ele>166.39999389648</ele>
        <time>2011-10-08T10:20:08.000Z</time>
      </trkpt>
      <trkpt lat="48.69927" lon="1.7432">
        <ele>166.39999389648</ele>
        <time>2011-10-08T10:20:09.000Z</time>
      </trkpt>
      <trkpt lat="48.69929" lon="1.74329">
        <ele>166.19999694824</ele>
        <time>2011-10-08T10:20:12.000Z</time>
      </trkpt>
      <trkpt lat="48.69931" lon="1.74344">
        <ele>165.80000305176</ele>
        <time>2011-10-08T10:20:17.000Z</time>
      </trkpt>
      <trkpt lat="48.69934" lon="1.74364">
        <ele>165.39999389648</ele>
        <time>2011-10-08T10:20:24.000Z</time>
      </trkpt>
      <trkpt lat="48.69938" lon="1.7438">
        <ele>165</ele>
        <time>2011-10-08T10:20:31.000Z</time>
      </trkpt>
      <trkpt lat="48.6994" lon="1.74386">
        <ele>165</ele>
        <time>2011-10-08T10:20:37.000Z</time>
      </trkpt>
      <trkpt lat="48.69943" lon="1.74403">
        <ele>164.60000610352</ele>
        <time>2011-10-08T10:20:44.000Z</time>
      </trkpt>
      <trkpt lat="48.69944" lon="1.74407">
        <ele>164.39999389648</ele>
        <time>2011-10-08T10:20:46.000Z</time>
      </trkpt>
      <trkpt lat="48.69946" lon="1.74426">
        <ele>164</ele>
        <time>2011-10-08T10:20:54.000Z</time>
      </trkpt>
      <trkpt lat="48.69948" lon="1.74435">
        <ele>164</ele>
        <time>2011-10-08T10:20:58.000Z</time>
      </trkpt>
      <trkpt lat="48.69953" lon="1.74454">
        <ele>163.80000305176</ele>
        <time>2011-10-08T10:21:06.000Z</time>
      </trkpt>
      <trkpt lat="48.69953" lon="1.74459">
        <ele>163.80000305176</ele>
        <time>2011-10-08T10:21:08.000Z</time>
      </trkpt>
      <trkpt lat="48.69954" lon="1.74468">
        <ele>163.60000610352</ele>
        <time>2011-10-08T10:21:12.000Z</time>
      </trkpt>
      <trkpt lat="48.69962" lon="1.74495">
        <ele>163.60000610352</ele>
        <time>2011-10-08T10:21:23.000Z</time>
      </trkpt>
      <trkpt lat="48.69965" lon="1.74509">
        <ele>164</ele>
        <time>2011-10-08T10:21:29.000Z</time>
      </trkpt>
      <trkpt lat="48.69968" lon="1.74524">
        <ele>164.39999389648</ele>
        <time>2011-10-08T10:21:36.000Z</time>
      </trkpt>
      <trkpt lat="48.69972" lon="1.74538">
        <ele>164.80000305176</ele>
        <time>2011-10-08T10:21:43.000Z</time>
      </trkpt>
      <trkpt lat="48.69977" lon="1.74558">
        <ele>165.39999389648</ele>
        <time>2011-10-08T10:21:52.000Z</time>
      </trkpt>
      <trkpt lat="48.69983" lon="1.74577">
        <ele>166</ele>
        <time>2011-10-08T10:22:00.000Z</time>
      </trkpt>
      <trkpt lat="48.69988" lon="1.74595">
        <ele>166.60000610352</ele>
        <time>2011-10-08T10:22:08.000Z</time>
      </trkpt>
      <trkpt lat="48.69992" lon="1.74609">
        <ele>167</ele>
        <time>2011-10-08T10:22:14.000Z</time>
      </trkpt>
      <trkpt lat="48.69995" lon="1.74624">
        <ele>167.39999389648</ele>
        <time>2011-10-08T10:22:21.000Z</time>
      </trkpt>
      <trkpt lat="48.7" lon="1.74644">
        <ele>167.60000610352</ele>
        <time>2011-10-08T10:22:30.000Z</time>
      </trkpt>
      <trkpt lat="48.70004" lon="1.74662">
        <ele>168</ele>
        <time>2011-10-08T10:22:38.000Z</time>
      </trkpt>
      <trkpt lat="48.70007" lon="1.74677">
        <ele>168.39999389648</ele>
        <time>2011-10-08T10:22:45.000Z</time>
      </trkpt>
      <trkpt lat="48.70012" lon="1.74697">
        <ele>168.60000610352</ele>
        <time>2011-10-08T10:22:54.000Z</time>
      </trkpt>
      <trkpt lat="48.70018" lon="1.74717">
        <ele>169</ele>
        <time>2011-10-08T10:23:03.000Z</time>
      </trkpt>
      <trkpt lat="48.70021" lon="1.74729">
        <ele>169.39999389648</ele>
        <time>2011-10-08T10:23:09.000Z</time>
      </trkpt>
      <trkpt lat="48.70027" lon="1.7475">
        <ele>169.80000305176</ele>
        <time>2011-10-08T10:23:19.000Z</time>
      </trkpt>
      <trkpt lat="48.70035" lon="1.74772">
        <ele>170.80000305176</ele>
        <time>2011-10-08T10:23:30.000Z</time>
      </trkpt>
      <trkpt lat="48.70037" lon="1.74777">
        <ele>171</ele>
        <time>2011-10-08T10:23:34.000Z</time>
      </trkpt>
      <trkpt lat="48.70039" lon="1.74782">
        <ele>171.19999694824</ele>
        <time>2011-10-08T10:23:41.000Z</time>
      </trkpt>
      <trkpt lat="48.7004" lon="1.7479">
        <ele>171.60000610352</ele>
        <time>2011-10-08T10:23:49.000Z</time>
      </trkpt>
      <trkpt lat="48.70044" lon="1.74807">
        <ele>172</ele>
        <time>2011-10-08T10:23:56.000Z</time>
      </trkpt>
      <trkpt lat="48.70046" lon="1.74816">
        <ele>172.19999694824</ele>
        <time>2011-10-08T10:24:00.000Z</time>
      </trkpt>
      <trkpt lat="48.70051" lon="1.74832">
        <ele>172.80000305176</ele>
        <time>2011-10-08T10:24:07.000Z</time>
      </trkpt>
      <trkpt lat="48.70054" lon="1.74847">
        <ele>172.80000305176</ele>
        <time>2011-10-08T10:24:14.000Z</time>
      </trkpt>
      <trkpt lat="48.70057" lon="1.74863">
        <ele>172.80000305176</ele>
        <time>2011-10-08T10:24:22.000Z</time>
      </trkpt>
      <trkpt lat="48.70064" lon="1.74888">
        <ele>172.60000610352</ele>
        <time>2011-10-08T10:24:33.000Z</time>
      </trkpt>
      <trkpt lat="48.70066" lon="1.74909">
        <ele>172.60000610352</ele>
        <time>2011-10-08T10:24:43.000Z</time>
      </trkpt>
      <trkpt lat="48.70066" lon="1.74922">
        <ele>172.39999389648</ele>
        <time>2011-10-08T10:24:49.000Z</time>
      </trkpt>
      <trkpt lat="48.70071" lon="1.74935">
        <ele>172.39999389648</ele>
        <time>2011-10-08T10:24:55.000Z</time>
      </trkpt>
      <trkpt lat="48.70075" lon="1.74951">
        <ele>172.19999694824</ele>
        <time>2011-10-08T10:25:02.000Z</time>
      </trkpt>
      <trkpt lat="48.70077" lon="1.74959">
        <ele>172.19999694824</ele>
        <time>2011-10-08T10:25:05.000Z</time>
      </trkpt>
      <trkpt lat="48.70082" lon="1.74972">
        <ele>172.19999694824</ele>
        <time>2011-10-08T10:25:11.000Z</time>
      </trkpt>
      <trkpt lat="48.70084" lon="1.74984">
        <ele>172.19999694824</ele>
        <time>2011-10-08T10:25:16.000Z</time>
      </trkpt>
      <trkpt lat="48.70089" lon="1.75001">
        <ele>172.39999389648</ele>
        <time>2011-10-08T10:25:23.000Z</time>
      </trkpt>
      <trkpt lat="48.70095" lon="1.75025">
        <ele>172.39999389648</ele>
        <time>2011-10-08T10:25:34.000Z</time>
      </trkpt>
      <trkpt lat="48.70101" lon="1.75047">
        <ele>172.80000305176</ele>
        <time>2011-10-08T10:25:44.000Z</time>
      </trkpt>
      <trkpt lat="48.70109" lon="1.75074">
        <ele>173.19999694824</ele>
        <time>2011-10-08T10:25:56.000Z</time>
      </trkpt>
      <trkpt lat="48.70113" lon="1.75092">
        <ele>173.60000610352</ele>
        <time>2011-10-08T10:26:04.000Z</time>
      </trkpt>
      <trkpt lat="48.70118" lon="1.75112">
        <ele>174.39999389648</ele>
        <time>2011-10-08T10:26:13.000Z</time>
      </trkpt>
      <trkpt lat="48.70124" lon="1.7513">
        <ele>175</ele>
        <time>2011-10-08T10:26:21.000Z</time>
      </trkpt>
      <trkpt lat="48.70126" lon="1.75147">
        <ele>175.19999694824</ele>
        <time>2011-10-08T10:26:29.000Z</time>
      </trkpt>
      <trkpt lat="48.70132" lon="1.75166">
        <ele>175.39999389648</ele>
        <time>2011-10-08T10:26:37.000Z</time>
      </trkpt>
      <trkpt lat="48.70138" lon="1.7518">
        <ele>175.60000610352</ele>
        <time>2011-10-08T10:26:44.000Z</time>
      </trkpt>
      <trkpt lat="48.70143" lon="1.75194">
        <ele>175.80000305176</ele>
        <time>2011-10-08T10:26:50.000Z</time>
      </trkpt>
      <trkpt lat="48.70146" lon="1.75202">
        <ele>175.80000305176</ele>
        <time>2011-10-08T10:26:55.000Z</time>
      </trkpt>
      <trkpt lat="48.70147" lon="1.75203">
        <ele>175.80000305176</ele>
        <time>2011-10-08T10:26:57.000Z</time>
      </trkpt>
      <trkpt lat="48.70151" lon="1.75212">
        <ele>175.80000305176</ele>
        <time>2011-10-08T10:27:07.000Z</time>
      </trkpt>
      <trkpt lat="48.70156" lon="1.75231">
        <ele>175.80000305176</ele>
        <time>2011-10-08T10:27:15.000Z</time>
      </trkpt>
      <trkpt lat="48.70158" lon="1.75246">
        <ele>175.80000305176</ele>
        <time>2011-10-08T10:27:22.000Z</time>
      </trkpt>
      <trkpt lat="48.70158" lon="1.75248">
        <ele>175.80000305176</ele>
        <time>2011-10-08T10:27:23.000Z</time>
      </trkpt>
      <trkpt lat="48.70162" lon="1.75255">
        <ele>175.80000305176</ele>
        <time>2011-10-08T10:27:29.000Z</time>
      </trkpt>
      <trkpt lat="48.7017" lon="1.75257">
        <ele>176</ele>
        <time>2011-10-08T10:27:44.000Z</time>
      </trkpt>
      <trkpt lat="48.70185" lon="1.75254">
        <ele>176.80000305176</ele>
        <time>2011-10-08T10:27:53.000Z</time>
      </trkpt>
      <trkpt lat="48.70187" lon="1.75252">
        <ele>176.80000305176</ele>
        <time>2011-10-08T10:27:56.000Z</time>
      </trkpt>
      <trkpt lat="48.70196" lon="1.75247">
        <ele>177.19999694824</ele>
        <time>2011-10-08T10:28:04.000Z</time>
      </trkpt>
      <trkpt lat="48.70206" lon="1.75242">
        <ele>177.80000305176</ele>
        <time>2011-10-08T10:28:11.000Z</time>
      </trkpt>
      <trkpt lat="48.70215" lon="1.75239">
        <ele>178.19999694824</ele>
        <time>2011-10-08T10:28:17.000Z</time>
      </trkpt>
      <trkpt lat="48.70221" lon="1.75241">
        <ele>178.39999389648</ele>
        <time>2011-10-08T10:28:23.000Z</time>
      </trkpt>
      <trkpt lat="48.70231" lon="1.75247">
        <ele>179</ele>
        <time>2011-10-08T10:28:29.000Z</time>
      </trkpt>
      <trkpt lat="48.70236" lon="1.75251">
        <ele>179.19999694824</ele>
        <time>2011-10-08T10:28:34.000Z</time>
      </trkpt>
      <trkpt lat="48.70246" lon="1.75259">
        <ele>179.60000610352</ele>
        <time>2011-10-08T10:28:41.000Z</time>
      </trkpt>
      <trkpt lat="48.70256" lon="1.75268">
        <ele>179.80000305176</ele>
        <time>2011-10-08T10:28:48.000Z</time>
      </trkpt>
      <trkpt lat="48.70263" lon="1.75275">
        <ele>180</ele>
        <time>2011-10-08T10:28:55.000Z</time>
      </trkpt>
      <trkpt lat="48.70271" lon="1.75281">
        <ele>180</ele>
        <time>2011-10-08T10:29:00.000Z</time>
      </trkpt>
      <trkpt lat="48.70282" lon="1.75287">
        <ele>180.19999694824</ele>
        <time>2011-10-08T10:29:06.000Z</time>
      </trkpt>
      <trkpt lat="48.70292" lon="1.75295">
        <ele>180.39999389648</ele>
        <time>2011-10-08T10:29:12.000Z</time>
      </trkpt>
      <trkpt lat="48.70296" lon="1.75299">
        <ele>180.39999389648</ele>
        <time>2011-10-08T10:29:15.000Z</time>
      </trkpt>
      <trkpt lat="48.70298" lon="1.75305">
        <ele>180.39999389648</ele>
        <time>2011-10-08T10:29:18.000Z</time>
      </trkpt>
      <trkpt lat="48.70302" lon="1.75318">
        <ele>180.39999389648</ele>
        <time>2011-10-08T10:29:25.000Z</time>
      </trkpt>
      <trkpt lat="48.70307" lon="1.75331">
        <ele>180.39999389648</ele>
        <time>2011-10-08T10:29:32.000Z</time>
      </trkpt>
      <trkpt lat="48.70312" lon="1.7534">
        <ele>180.39999389648</ele>
        <time>2011-10-08T10:29:37.000Z</time>
      </trkpt>
      <trkpt lat="48.70313" lon="1.75342">
        <ele>180.39999389648</ele>
        <time>2011-10-08T10:29:39.000Z</time>
      </trkpt>
      <trkpt lat="48.70317" lon="1.75347">
        <ele>180.39999389648</ele>
        <time>2011-10-08T10:29:43.000Z</time>
      </trkpt>
      <trkpt lat="48.70325" lon="1.75352">
        <ele>180.60000610352</ele>
        <time>2011-10-08T10:29:49.000Z</time>
      </trkpt>
      <trkpt lat="48.70331" lon="1.75356">
        <ele>180.80000305176</ele>
        <time>2011-10-08T10:29:53.000Z</time>
      </trkpt>
      <trkpt lat="48.70338" lon="1.75362">
        <ele>180.80000305176</ele>
        <time>2011-10-08T10:29:58.000Z</time>
      </trkpt>
      <trkpt lat="48.70353" lon="1.75374">
        <ele>180.60000610352</ele>
        <time>2011-10-08T10:30:06.000Z</time>
      </trkpt>
      <trkpt lat="48.70363" lon="1.75384">
        <ele>180.60000610352</ele>
        <time>2011-10-08T10:30:13.000Z</time>
      </trkpt>
      <trkpt lat="48.70372" lon="1.75392">
        <ele>180.80000305176</ele>
        <time>2011-10-08T10:30:19.000Z</time>
      </trkpt>
      <trkpt lat="48.70381" lon="1.75401">
        <ele>181</ele>
        <time>2011-10-08T10:30:26.000Z</time>
      </trkpt>
      <trkpt lat="48.70381" lon="1.75401">
        <ele>181</ele>
        <time>2011-10-08T10:30:28.000Z</time>
      </trkpt>
      <trkpt lat="48.70377" lon="1.75402">
        <ele>181</ele>
        <time>2011-10-08T10:30:43.000Z</time>
      </trkpt>
      <trkpt lat="48.70383" lon="1.75398">
        <ele>181</ele>
        <time>2011-10-08T10:30:48.000Z</time>
      </trkpt>
      <trkpt lat="48.70385" lon="1.75396">
        <ele>180.80000305176</ele>
        <time>2011-10-08T10:30:50.000Z</time>
      </trkpt>
      <trkpt lat="48.7039" lon="1.75403">
        <ele>181.19999694824</ele>
        <time>2011-10-08T10:30:56.000Z</time>
      </trkpt>
      <trkpt lat="48.70392" lon="1.7541">
        <ele>181.39999389648</ele>
        <time>2011-10-08T10:31:02.000Z</time>
      </trkpt>
      <trkpt lat="48.70399" lon="1.75413">
        <ele>181.60000610352</ele>
        <time>2011-10-08T10:31:07.000Z</time>
      </trkpt>
      <trkpt lat="48.70408" lon="1.75417">
        <ele>181.80000305176</ele>
        <time>2011-10-08T10:31:14.000Z</time>
      </trkpt>
      <trkpt lat="48.70418" lon="1.75422">
        <ele>182</ele>
        <time>2011-10-08T10:31:20.000Z</time>
      </trkpt>
      <trkpt lat="48.7043" lon="1.75429">
        <ele>181.39999389648</ele>
        <time>2011-10-08T10:31:26.000Z</time>
      </trkpt>
      <trkpt lat="48.70431" lon="1.7543">
        <ele>181.19999694824</ele>
        <time>2011-10-08T10:31:27.000Z</time>
      </trkpt>
      <trkpt lat="48.70439" lon="1.75437">
        <ele>181</ele>
        <time>2011-10-08T10:31:32.000Z</time>
      </trkpt>
      <trkpt lat="48.70446" lon="1.75443">
        <ele>180.80000305176</ele>
        <time>2011-10-08T10:31:37.000Z</time>
      </trkpt>
      <trkpt lat="48.70454" lon="1.75451">
        <ele>180.60000610352</ele>
        <time>2011-10-08T10:31:44.000Z</time>
      </trkpt>
      <trkpt lat="48.70465" lon="1.75461">
        <ele>180.39999389648</ele>
        <time>2011-10-08T10:31:52.000Z</time>
      </trkpt>
      <trkpt lat="48.70466" lon="1.75462">
        <ele>180.39999389648</ele>
        <time>2011-10-08T10:31:53.000Z</time>
      </trkpt>
      <trkpt lat="48.7047" lon="1.75469">
        <ele>180.60000610352</ele>
        <time>2011-10-08T10:31:59.000Z</time>
      </trkpt>
      <trkpt lat="48.70471" lon="1.75469">
        <ele>180.39999389648</ele>
        <time>2011-10-08T10:32:00.000Z</time>
      </trkpt>
      <trkpt lat="48.70479" lon="1.75482">
        <ele>180.80000305176</ele>
        <time>2011-10-08T10:32:08.000Z</time>
      </trkpt>
      <trkpt lat="48.70485" lon="1.7549">
        <ele>181</ele>
        <time>2011-10-08T10:32:14.000Z</time>
      </trkpt>
      <trkpt lat="48.70495" lon="1.755">
        <ele>181</ele>
        <time>2011-10-08T10:32:21.000Z</time>
      </trkpt>
      <trkpt lat="48.70501" lon="1.75504">
        <ele>181</ele>
        <time>2011-10-08T10:32:24.000Z</time>
      </trkpt>
      <trkpt lat="48.70513" lon="1.75513">
        <ele>180.60000610352</ele>
        <time>2011-10-08T10:32:31.000Z</time>
      </trkpt>
      <trkpt lat="48.70522" lon="1.75518">
        <ele>180.19999694824</ele>
        <time>2011-10-08T10:32:36.000Z</time>
      </trkpt>
      <trkpt lat="48.70525" lon="1.75521">
        <ele>180.19999694824</ele>
        <time>2011-10-08T10:32:39.000Z</time>
      </trkpt>
      <trkpt lat="48.70529" lon="1.75523">
        <ele>180</ele>
        <time>2011-10-08T10:32:43.000Z</time>
      </trkpt>
      <trkpt lat="48.70535" lon="1.75529">
        <ele>180.19999694824</ele>
        <time>2011-10-08T10:32:49.000Z</time>
      </trkpt>
      <trkpt lat="48.70541" lon="1.75537">
        <ele>180.39999389648</ele>
        <time>2011-10-08T10:32:55.000Z</time>
      </trkpt>
      <trkpt lat="48.70547" lon="1.75543">
        <ele>180.39999389648</ele>
        <time>2011-10-08T10:32:59.000Z</time>
      </trkpt>
      <trkpt lat="48.70556" lon="1.75553">
        <ele>181</ele>
        <time>2011-10-08T10:33:05.000Z</time>
      </trkpt>
      <trkpt lat="48.70566" lon="1.75563">
        <ele>181.39999389648</ele>
        <time>2011-10-08T10:33:12.000Z</time>
      </trkpt>
      <trkpt lat="48.70577" lon="1.75574">
        <ele>182</ele>
        <time>2011-10-08T10:33:18.000Z</time>
      </trkpt>
      <trkpt lat="48.70585" lon="1.75584">
        <ele>182.80000305176</ele>
        <time>2011-10-08T10:33:24.000Z</time>
      </trkpt>
      <trkpt lat="48.70594" lon="1.75595">
        <ele>182.19999694824</ele>
        <time>2011-10-08T10:33:30.000Z</time>
      </trkpt>
      <trkpt lat="48.70601" lon="1.75605">
        <ele>181.60000610352</ele>
        <time>2011-10-08T10:33:36.000Z</time>
      </trkpt>
      <trkpt lat="48.70603" lon="1.75606">
        <ele>181.39999389648</ele>
        <time>2011-10-08T10:33:37.000Z</time>
      </trkpt>
      <trkpt lat="48.70609" lon="1.75615">
        <ele>181</ele>
        <time>2011-10-08T10:33:42.000Z</time>
      </trkpt>
      <trkpt lat="48.70617" lon="1.75626">
        <ele>180.19999694824</ele>
        <time>2011-10-08T10:33:50.000Z</time>
      </trkpt>
      <trkpt lat="48.70624" lon="1.75633">
        <ele>179.60000610352</ele>
        <time>2011-10-08T10:33:57.000Z</time>
      </trkpt>
      <trkpt lat="48.70629" lon="1.75636">
        <ele>179</ele>
        <time>2011-10-08T10:34:03.000Z</time>
      </trkpt>
      <trkpt lat="48.70634" lon="1.75641">
        <ele>178.60000610352</ele>
        <time>2011-10-08T10:34:09.000Z</time>
      </trkpt>
      <trkpt lat="48.70637" lon="1.75642">
        <ele>178.19999694824</ele>
        <time>2011-10-08T10:34:12.000Z</time>
      </trkpt>
      <trkpt lat="48.70637" lon="1.75635">
        <ele>178.19999694824</ele>
        <time>2011-10-08T10:34:17.000Z</time>
      </trkpt>
      <trkpt lat="48.70642" lon="1.75619">
        <ele>177.60000610352</ele>
        <time>2011-10-08T10:34:25.000Z</time>
      </trkpt>
      <trkpt lat="48.70643" lon="1.75616">
        <ele>177.39999389648</ele>
        <time>2011-10-08T10:34:27.000Z</time>
      </trkpt>
      <trkpt lat="48.70643" lon="1.75615">
        <ele>177.39999389648</ele>
        <time>2011-10-08T10:34:30.000Z</time>
      </trkpt>
      <trkpt lat="48.70648" lon="1.75607">
        <ele>176.80000305176</ele>
        <time>2011-10-08T10:34:46.000Z</time>
      </trkpt>
      <trkpt lat="48.70652" lon="1.75596">
        <ele>176.39999389648</ele>
        <time>2011-10-08T10:34:51.000Z</time>
      </trkpt>
      <trkpt lat="48.70658" lon="1.75585">
        <ele>175.80000305176</ele>
        <time>2011-10-08T10:34:58.000Z</time>
      </trkpt>
      <trkpt lat="48.70665" lon="1.75574">
        <ele>174.80000305176</ele>
        <time>2011-10-08T10:35:05.000Z</time>
      </trkpt>
      <trkpt lat="48.70671" lon="1.75562">
        <ele>174.19999694824</ele>
        <time>2011-10-08T10:35:12.000Z</time>
      </trkpt>
      <trkpt lat="48.7068" lon="1.75542">
        <ele>173.60000610352</ele>
        <time>2011-10-08T10:35:22.000Z</time>
      </trkpt>
      <trkpt lat="48.70688" lon="1.75523">
        <ele>172.80000305176</ele>
        <time>2011-10-08T10:35:32.000Z</time>
      </trkpt>
      <trkpt lat="48.70695" lon="1.75507">
        <ele>172.39999389648</ele>
        <time>2011-10-08T10:35:41.000Z</time>
      </trkpt>
      <trkpt lat="48.70695" lon="1.75505">
        <ele>172.39999389648</ele>
        <time>2011-10-08T10:35:45.000Z</time>
      </trkpt>
      <trkpt lat="48.70699" lon="1.75492">
        <ele>172</ele>
        <time>2011-10-08T10:40:00.000Z</time>
      </trkpt>
      <trkpt lat="48.70697" lon="1.75509">
        <ele>172.39999389648</ele>
        <time>2011-10-08T10:40:02.000Z</time>
      </trkpt>
      <trkpt lat="48.70696" lon="1.75511">
        <ele>172.39999389648</ele>
        <time>2011-10-08T10:40:05.000Z</time>
      </trkpt>
      <trkpt lat="48.70698" lon="1.75506">
        <ele>172.19999694824</ele>
        <time>2011-10-08T10:40:09.000Z</time>
      </trkpt>
      <trkpt lat="48.707" lon="1.755">
        <ele>172</ele>
        <time>2011-10-08T10:40:16.000Z</time>
      </trkpt>
      <trkpt lat="48.70698" lon="1.75494">
        <ele>172</ele>
        <time>2011-10-08T10:40:22.000Z</time>
      </trkpt>
      <trkpt lat="48.70698" lon="1.75493">
        <ele>172</ele>
        <time>2011-10-08T10:40:23.000Z</time>
      </trkpt>
      <trkpt lat="48.70699" lon="1.75489">
        <ele>172</ele>
        <time>2011-10-08T10:40:27.000Z</time>
      </trkpt>
      <trkpt lat="48.70698" lon="1.75489">
        <ele>172</ele>
        <time>2011-10-08T10:40:28.000Z</time>
      </trkpt>
      <trkpt lat="48.70698" lon="1.75492">
        <ele>172</ele>
        <time>2011-10-08T10:40:35.000Z</time>
      </trkpt>
      <trkpt lat="48.70698" lon="1.75493">
        <ele>172</ele>
        <time>2011-10-08T10:40:37.000Z</time>
      </trkpt>
      <trkpt lat="48.70696" lon="1.75508">
        <ele>172.39999389648</ele>
        <time>2011-10-08T10:56:22.000Z</time>
      </trkpt>
      <trkpt lat="48.70689" lon="1.75521">
        <ele>172.80000305176</ele>
        <time>2011-10-08T10:56:25.000Z</time>
      </trkpt>
      <trkpt lat="48.70677" lon="1.75547">
        <ele>173.80000305176</ele>
        <time>2011-10-08T10:56:31.000Z</time>
      </trkpt>
      <trkpt lat="48.70668" lon="1.75569">
        <ele>174.39999389648</ele>
        <time>2011-10-08T10:56:36.000Z</time>
      </trkpt>
      <trkpt lat="48.70662" lon="1.75583">
        <ele>175.39999389648</ele>
        <time>2011-10-08T10:56:40.000Z</time>
      </trkpt>
      <trkpt lat="48.70657" lon="1.75593">
        <ele>175.80000305176</ele>
        <time>2011-10-08T10:56:43.000Z</time>
      </trkpt>
      <trkpt lat="48.70655" lon="1.75591">
        <ele>176</ele>
        <time>2011-10-08T10:56:47.000Z</time>
      </trkpt>
      <trkpt lat="48.70655" lon="1.75591">
        <ele>176</ele>
        <time>2011-10-08T10:56:48.000Z</time>
      </trkpt>
      <trkpt lat="48.70652" lon="1.75606">
        <ele>176.39999389648</ele>
        <time>2011-10-08T10:57:00.000Z</time>
      </trkpt>
      <trkpt lat="48.70651" lon="1.75613">
        <ele>176.60000610352</ele>
        <time>2011-10-08T10:57:03.000Z</time>
      </trkpt>
      <trkpt lat="48.70648" lon="1.75619">
        <ele>176.80000305176</ele>
        <time>2011-10-08T10:57:07.000Z</time>
      </trkpt>
      <trkpt lat="48.70648" lon="1.75621">
        <ele>177</ele>
        <time>2011-10-08T10:57:10.000Z</time>
      </trkpt>
      <trkpt lat="48.70645" lon="1.7563">
        <ele>177.19999694824</ele>
        <time>2011-10-08T10:57:17.000Z</time>
      </trkpt>
      <trkpt lat="48.70644" lon="1.75632">
        <ele>177.39999389648</ele>
        <time>2011-10-08T10:57:18.000Z</time>
      </trkpt>
      <trkpt lat="48.70645" lon="1.75644">
        <ele>177.39999389648</ele>
        <time>2011-10-08T10:57:23.000Z</time>
      </trkpt>
      <trkpt lat="48.70647" lon="1.75649">
        <ele>177.19999694824</ele>
        <time>2011-10-08T10:57:26.000Z</time>
      </trkpt>
      <trkpt lat="48.7065" lon="1.75654">
        <ele>176.80000305176</ele>
        <time>2011-10-08T10:57:30.000Z</time>
      </trkpt>
      <trkpt lat="48.70656" lon="1.75663">
        <ele>176.19999694824</ele>
        <time>2011-10-08T10:57:36.000Z</time>
      </trkpt>
      <trkpt lat="48.70657" lon="1.75664">
        <ele>176</ele>
        <time>2011-10-08T10:57:37.000Z</time>
      </trkpt>
      <trkpt lat="48.7066" lon="1.75667">
        <ele>175.60000610352</ele>
        <time>2011-10-08T10:57:42.000Z</time>
      </trkpt>
      <trkpt lat="48.70669" lon="1.75678">
        <ele>174.80000305176</ele>
        <time>2011-10-08T10:57:50.000Z</time>
      </trkpt>
      <trkpt lat="48.70672" lon="1.75684">
        <ele>174.60000610352</ele>
        <time>2011-10-08T10:57:54.000Z</time>
      </trkpt>
      <trkpt lat="48.70676" lon="1.75691">
        <ele>174.39999389648</ele>
        <time>2011-10-08T10:57:59.000Z</time>
      </trkpt>
      <trkpt lat="48.70681" lon="1.75697">
        <ele>174.39999389648</ele>
        <time>2011-10-08T10:58:03.000Z</time>
      </trkpt>
      <trkpt lat="48.70683" lon="1.757">
        <ele>174.19999694824</ele>
        <time>2011-10-08T10:58:05.000Z</time>
      </trkpt>
      <trkpt lat="48.70695" lon="1.75713">
        <ele>174</ele>
        <time>2011-10-08T10:58:15.000Z</time>
      </trkpt>
      <trkpt lat="48.70702" lon="1.75723">
        <ele>174</ele>
        <time>2011-10-08T10:58:22.000Z</time>
      </trkpt>
      <trkpt lat="48.70707" lon="1.75734">
        <ele>174</ele>
        <time>2011-10-08T10:58:27.000Z</time>
      </trkpt>
      <trkpt lat="48.70717" lon="1.75746">
        <ele>173.80000305176</ele>
        <time>2011-10-08T10:58:36.000Z</time>
      </trkpt>
      <trkpt lat="48.70722" lon="1.75752">
        <ele>173.80000305176</ele>
        <time>2011-10-08T10:58:41.000Z</time>
      </trkpt>
      <trkpt lat="48.70724" lon="1.75758">
        <ele>173.80000305176</ele>
        <time>2011-10-08T10:58:45.000Z</time>
      </trkpt>
    </trkseg>
  </trk>
</gpx>